Detalle de ayer:

18/6/18
Time         Wind Dir  Wind Gust   Humidity       Temp   Tot Rain Wind Chill Heat Index  Dew Point   Barom SL Temp Out H Temp Out L  DailyRain   HourRain   24HrRain   RainRate   Wind Run   Deg Heat   Deg Cool  MonthRain
                          km/hr          %         C         mm         C         C         C         mb         C         C         mm         mm         mm      mm/hr         km         C         C         mm
0:00              227       11.3         46       25.3      460.4       25.3       25.5       12.8     1015.2       25.3       25.3        0.0        0.0        0.0       0.00      112.5       0.00       6.63        4.4
0:02              227        9.7         47       25.2      460.4       24.7       25.5       13.1     1015.2       25.3       25.2        0.0        0.0        0.0       0.00        0.2       0.00       0.03        4.4
0:04              223        9.7         47       25.1      460.4       24.6       25.3       13.0     1015.2       25.3       25.1        0.0        0.0        0.0       0.00        0.5       0.00       0.03        4.4
0:06              224       11.3         48       24.9      460.4       23.8       25.2       13.1     1015.3       25.3       24.9        0.0        0.0        0.0       0.00        0.8       0.00       0.03        4.4
0:07              227       12.9         48       24.7      460.4       24.3       25.1       13.0     1015.2       25.3       24.7        0.0        0.0        0.0       0.00        1.1       0.00       0.03        4.4
0:10              223       16.1         48       24.6      460.4       23.5       25.0       12.9     1015.5       25.3       24.6        0.0        0.0        0.0       0.00        1.5       0.00       0.03        4.4
0:12              217       16.1         49       24.5      460.4       22.8       24.9       13.1     1015.6       25.3       24.5        0.0        0.0        0.0       0.00        2.0       0.00       0.03        4.4
0:14              227       22.5         49       24.4      460.4       22.3       24.8       13.0     1015.7       25.3       24.4        0.0        0.0        0.0       0.00        2.6       0.00       0.03        4.4
0:16              242       20.9         49       24.3      460.4       22.0       24.7       12.9     1015.7       25.3       24.3        0.0        0.0        0.0       0.00        3.2       0.00       0.06        4.4
0:18              233       20.9         49       24.2      460.4       21.9       24.6       12.8     1015.7       25.3       24.2        0.0        0.0        0.0       0.00        3.7       0.00       0.06        4.4
0:20              244       22.5         49       24.1      460.4       21.2       24.4       12.7     1015.6       25.3       24.1        0.0        0.0        0.0       0.00        4.2       0.00       0.06        4.4
0:21              252       17.7         49       24.0      460.4       23.5       24.4       12.6     1015.6       25.3       24.0        0.0        0.0        0.0       0.00        4.7       0.00       0.06        4.4
0:24              257       20.9         49       24.0      460.4       22.8       24.4       12.6     1015.6       25.3       24.0        0.0        0.0        0.0       0.00        5.2       0.00       0.06        4.4
0:26              258       19.3         49       24.0      460.4       22.2       24.4       12.6     1015.7       25.3       24.0        0.0        0.0        0.0       0.00        5.6       0.00       0.06        4.4
0:28              253       19.3         49       24.0      460.4       21.9       24.4       12.6     1015.6       25.3       24.0        0.0        0.0        0.0       0.00        6.1       0.00       0.06        4.4
0:30              254       25.7         49       24.0      460.4       22.5       24.4       12.6     1015.6       25.3       24.0        0.0        0.0        0.0       0.00        6.6       0.00       0.06        4.4
0:32              236       16.1         49       24.0      460.4       21.9       24.4       12.6     1015.6       25.3       24.0        0.0        0.0        0.0       0.00        7.0       0.00       0.08        4.4
0:33              244       14.5         49       24.0      460.4       22.8       24.4       12.6     1015.6       25.3       24.0        0.0        0.0        0.0       0.00        7.4       0.00       0.08        4.4
0:36              258       14.5         49       24.0      460.4       22.2       24.4       12.6     1015.6       25.3       24.0        0.0        0.0        0.0       0.00        7.9       0.00       0.08        4.4
0:38              248       16.1         49       24.0      460.4       22.2       24.4       12.6     1015.6       25.3       24.0        0.0        0.0        0.0       0.00        8.2       0.00       0.08        4.4
0:40              252       19.3         49       24.0      460.4       21.5       24.4       12.6     1015.6       25.3       24.0        0.0        0.0        0.0       0.00        8.6       0.00       0.08        4.4
0:42              257       16.1         49       24.0      460.4       23.5       24.4       12.6     1015.5       25.3       24.0        0.0        0.0        0.0       0.00        9.1       0.00       0.08        4.4
0:44              256       11.3         49       24.0      460.4       22.8       24.4       12.6     1015.5       25.3       24.0        0.0        0.0        0.0       0.00        9.4       0.00       0.08        4.4
0:45              261       17.7         49       24.0      460.4       22.5       24.4       12.6     1015.5       25.3       24.0        0.0        0.0        0.0       0.00        9.8       0.00       0.10        4.4
0:48              260       19.3         49       24.0      460.4       24.0       24.4       12.6     1015.3       25.3       24.0        0.0        0.0        0.0       0.00       10.3       0.00       0.10        4.4
0:50              256       16.1         49       24.0      460.4       22.8       24.4       12.6     1015.2       25.3       24.0        0.0        0.0        0.0       0.00       10.7       0.00       0.10        4.4
0:52              261       16.1         49       24.0      460.4       23.2       24.4       12.6     1015.2       25.3       24.0        0.0        0.0        0.0       0.00       11.2       0.00       0.10        4.4
0:54              258       17.7         49       23.9      460.4       21.8       24.3       12.6     1015.3       25.3       23.9        0.0        0.0        0.0       0.00       11.6       0.00       0.10        4.4
0:56              254       16.1         50       23.9      460.4       21.7       24.3       12.8     1015.2       25.3       23.9        0.0        0.0        0.0       0.00       12.1       0.00       0.10        4.4
0:58              262       16.1         50       23.8      460.4       22.3       24.3       12.8     1015.2       25.3       23.8        0.0        0.0        0.0       0.00       12.5       0.00       0.10        4.4
1:00              259       19.3         50       23.8      460.4       22.7       24.3       12.8     1015.3       25.3       23.8        0.0        0.0        0.0       0.00       13.0       0.00       0.10        4.4
1:02              269       17.7         50       23.8      460.4       21.9       24.2       12.7     1015.4       25.3       23.8        0.0        0.0        0.0       0.00       13.4       0.00       0.12        4.4
1:03              264       17.7         50       23.7      460.4       23.7       24.2       12.7     1015.3       25.3       23.7        0.0        0.0        0.0       0.00       13.8       0.00       0.12        4.4
1:06              254       17.7         50       23.7      460.4       21.3       24.1       12.6     1015.3       25.3       23.7        0.0        0.0        0.0       0.00       14.3       0.00       0.12        4.4
1:08              246       17.7         50       23.6      460.4       22.1       24.1       12.6     1015.3       25.3       23.6        0.0        0.0        0.0       0.00       14.7       0.00       0.12        4.4
1:10              258       17.7         50       23.6      460.4       21.7       24.1       12.6     1015.3       25.3       23.6        0.0        0.0        0.0       0.00       15.1       0.00       0.12        4.4
1:11              246       16.1         50       23.6      460.4       22.1       24.1       12.6     1015.3       25.3       23.6        0.0        0.0        0.0       0.00       15.5       0.00       0.12        4.4
1:14              252       17.7         50       23.6      460.4       21.6       24.0       12.5     1015.3       25.3       23.6        0.0        0.0        0.0       0.00       16.0       0.00       0.12        4.4
1:15              242       16.1         50       23.6      460.4       21.6       24.0       12.5     1015.3       25.3       23.6        0.0        0.0        0.0       0.00       16.5       0.00       0.14        4.4
1:18              252       17.7         51       23.5      460.4       21.9       24.0       12.8     1015.3       25.3       23.5        0.0        0.0        0.0       0.00       16.9       0.00       0.14        4.4
1:20              254       16.1         51       23.5      460.4       23.0       24.0       12.8     1015.4       25.3       23.5        0.0        0.0        0.0       0.00       17.3       0.00       0.14        4.4
1:22              256       16.1         51       23.5      460.4       21.6       24.0       12.8     1015.3       25.3       23.5        0.0        0.0        0.0       0.00       17.6       0.00       0.14        4.4
1:24              254       16.1         51       23.4      460.4       21.5       23.9       12.7     1015.6       25.3       23.4        0.0        0.0        0.0       0.00       18.1       0.00       0.14        4.4
1:26              265       17.7         51       23.4      460.4       22.5       23.9       12.7     1015.5       25.3       23.4        0.0        0.0        0.0       0.00       18.5       0.00       0.14        4.4
1:28              244       14.5         51       23.3      460.4       21.4       23.8       12.6     1015.5       25.3       23.3        0.0        0.0        0.0       0.00       18.9       0.00       0.14        4.4
1:30              254        6.4         51       23.3      460.4       23.3       23.8       12.6     1015.5       25.3       23.3        0.0        0.0        0.0       0.00       19.3       0.00       0.14        4.4
1:32              259       20.9         52       23.3      460.4       21.7       23.8       12.9     1015.4       25.3       23.3        0.0        0.0        0.0       0.00       19.8       0.00       0.15        4.4
1:34              266       14.5         52       23.3      460.4       22.4       23.8       12.9     1015.3       25.3       23.3        0.0        0.0        0.0       0.00       20.1       0.00       0.15        4.4
1:36              271       16.1         52       23.2      460.4       23.2       23.8       12.8     1015.3       25.3       23.2        0.0        0.0        0.0       0.00       20.4       0.00       0.15        4.4
1:38              254       19.3         52       23.2      460.4       21.2       23.8       12.8     1015.2       25.3       23.2        0.0        0.0        0.0       0.00       20.8       0.00       0.15        4.4
1:40              261       11.3         52       23.3      460.4       22.0       23.8       12.9     1015.1       25.3       23.2        0.0        0.0        0.0       0.00       21.1       0.00       0.15        4.4
1:42              265       12.9         52       23.3      460.4       22.4       23.8       12.9     1015.1       25.3       23.2        0.0        0.0        0.0       0.00       21.5       0.00       0.15        4.4
1:44              263       14.5         52       23.3      460.4       22.1       23.9       12.9     1015.1       25.3       23.2        0.0        0.0        0.0       0.00       21.8       0.00       0.15        4.4
1:46              261        4.8         51       23.4      460.4       23.4       23.9       12.7     1015.0       25.3       23.2        0.0        0.0        0.0       0.00       22.1       0.00       0.16        4.4
1:48              261        9.7         51       23.4      460.4       22.6       23.9       12.7     1015.0       25.3       23.2        0.0        0.0        0.0       0.00       22.3       0.00       0.16        4.4
1:50              261        4.8         51       23.4      460.4       23.4       23.9       12.7     1015.0       25.3       23.2        0.0        0.0        0.0       0.00       22.4       0.00       0.16        4.4
1:52              261        9.7         51       23.5      460.4       23.5       24.0       12.8     1015.2       25.3       23.2        0.0        0.0        0.0       0.00       22.6       0.00       0.16        4.4
1:54              261        3.2         50       23.6      460.4       23.6       24.0       12.5     1015.1       25.3       23.2        0.0        0.0        0.0       0.00       22.7       0.00       0.16        4.4
1:56              261        0.0         50       23.6      460.4       23.6       24.0       12.5     1015.2       25.3       23.2        0.0        0.0        0.0       0.00       22.8       0.00       0.16        4.4
1:58              261        1.6         50       23.6      460.4       23.6       24.0       12.5     1015.2       25.3       23.2        0.0        0.0        0.0       0.00       22.9       0.00       0.16        4.4
2:00              261        0.0         50       23.6      460.4       23.6       24.1       12.6     1015.2       25.3       23.2        0.0        0.0        0.0       0.00       22.9       0.00       0.16        4.4
2:02              261        6.4         50       23.6      460.4       23.6       24.1       12.6     1015.2       25.3       23.2        0.0        0.0        0.0       0.00       23.0       0.00       0.18        4.4
2:04              261        3.2         50       23.6      460.4       23.6       24.1       12.6     1015.3       25.3       23.2        0.0        0.0        0.0       0.00       23.1       0.00       0.18        4.4
2:06              261        4.8         50       23.6      460.4       23.6       24.1       12.6     1015.2       25.3       23.2        0.0        0.0        0.0       0.00       23.3       0.00       0.18        4.4
2:07              261        6.4         50       23.6      460.4       23.6       24.1       12.6     1015.2       25.3       23.2        0.0        0.0        0.0       0.00       23.5       0.00       0.18        4.4
2:10              261        6.4         51       23.6      460.4       23.6       24.1       12.9     1015.3       25.3       23.2        0.0        0.0        0.0       0.00       23.7       0.00       0.18        4.4
2:12              261        6.4         51       23.6      460.4       23.6       24.1       12.8     1015.3       25.3       23.2        0.0        0.0        0.0       0.00       23.8       0.00       0.18        4.4
2:14              261        4.8         51       23.6      460.4       23.6       24.1       12.8     1015.3       25.3       23.2        0.0        0.0        0.0       0.00       24.0       0.00       0.18        4.4
2:16              261        9.7         51       23.6      460.4       22.7       24.1       12.8     1015.3       25.3       23.2        0.0        0.0        0.0       0.00       24.1       0.00       0.20        4.4
2:18              261        6.4         51       23.6      460.4       23.6       24.1       12.8     1015.4       25.3       23.2        0.0        0.0        0.0       0.00       24.4       0.00       0.20        4.4
2:19              261        9.7         51       23.6      460.4       23.6       24.1       12.8     1015.3       25.3       23.2        0.0        0.0        0.0       0.00       24.6       0.00       0.20        4.4
2:22              261        9.7         51       23.6      460.4       23.6       24.1       12.8     1015.3       25.3       23.2        0.0        0.0        0.0       0.00       24.8       0.00       0.20        4.4
2:24              261        9.7         51       23.6      460.4       23.6       24.1       12.8     1015.4       25.3       23.2        0.0        0.0        0.0       0.00       25.0       0.00       0.20        4.4
2:26              261        6.4         50       23.6      460.4       23.6       24.1       12.6     1015.3       25.3       23.2        0.0        0.0        0.0       0.00       25.2       0.00       0.20        4.4
2:28              261       12.9         50       23.6      460.4       22.1       24.1       12.6     1015.3       25.3       23.2        0.0        0.0        0.0       0.00       25.5       0.00       0.20        4.4
2:30              261        9.7         50       23.6      460.4       23.6       24.1       12.6     1015.3       25.3       23.2        0.0        0.0        0.0       0.00       25.7       0.00       0.20        4.4
2:32              262        6.4         50       23.6      460.4       23.6       24.1       12.6     1015.3       25.3       23.2        0.0        0.0        0.0       0.00       26.0       0.00       0.21        4.4
2:34              262       11.3         50       23.6      460.4       22.4       24.1       12.6     1015.3       25.3       23.2        0.0        0.0        0.0       0.00       26.2       0.00       0.21        4.4
2:36              262        9.7         50       23.7      460.4       23.7       24.1       12.6     1015.3       25.3       23.2        0.0        0.0        0.0       0.00       26.5       0.00       0.21        4.4
2:38              262       11.3         50       23.7      460.4       22.5       24.1       12.6     1015.3       25.3       23.2        0.0        0.0        0.0       0.00       26.7       0.00       0.21        4.4
2:40              262       12.9         50       23.7      460.4       22.5       24.1       12.6     1015.3       25.3       23.2        0.0        0.0        0.0       0.00       26.9       0.00       0.21        4.4
2:42              262        9.7         50       23.7      460.4       23.7       24.1       12.6     1015.2       25.3       23.2        0.0        0.0        0.0       0.00       27.1       0.00       0.21        4.4
2:44              262        6.4         50       23.7      460.4       23.7       24.1       12.6     1015.2       25.3       23.2        0.0        0.0        0.0       0.00       27.3       0.00       0.21        4.4
2:46              262        6.4         50       23.7      460.4       23.7       24.2       12.7     1015.1       25.3       23.2        0.0        0.0        0.0       0.00       27.4       0.00       0.23        4.4
2:47              262        6.4         50       23.7      460.4       23.7       24.1       12.6     1015.2       25.3       23.2        0.0        0.0        0.0       0.00       27.7       0.00       0.23        4.4
2:50              262        4.8         50       23.7      460.4       23.7       24.2       12.7     1015.1       25.3       23.2        0.0        0.0        0.0       0.00       27.8       0.00       0.23        4.4
2:52              262        3.2         50       23.7      460.4       23.7       24.2       12.7     1015.1       25.3       23.2        0.0        0.0        0.0       0.00       27.9       0.00       0.23        4.4
2:54              262        4.8         49       23.7      460.4       23.7       24.1       12.4     1015.2       25.3       23.2        0.0        0.0        0.0       0.00       28.1       0.00       0.23        4.4
2:56              262        6.4         49       23.7      460.4       23.7       24.1       12.4     1015.1       25.3       23.2        0.0        0.0        0.0       0.00       28.1       0.00       0.23        4.4
2:58              262        3.2         49       23.7      460.4       23.7       24.1       12.4     1015.1       25.3       23.2        0.0        0.0        0.0       0.00       28.2       0.00       0.23        4.4
3:00              262        4.8         49       23.7      460.4       23.7       24.1       12.4     1015.1       25.3       23.2        0.0        0.0        0.0       0.00       28.3       0.00       0.23        4.4
3:02              262        4.8         49       23.7      460.4       23.7       24.1       12.4     1015.1       25.3       23.2        0.0        0.0        0.0       0.00       28.4       0.00       0.25        4.4
3:03              262        3.2         49       23.7      460.4       23.7       24.1       12.4     1015.1       25.3       23.2        0.0        0.0        0.0       0.00       28.5       0.00       0.25        4.4
3:06              262        3.2         49       23.7      460.4       23.7       24.1       12.4     1015.1       25.3       23.2        0.0        0.0        0.0       0.00       28.6       0.00       0.25        4.4
3:07              262        0.0         49       23.7      460.4       23.7       24.1       12.4     1015.1       25.3       23.2        0.0        0.0        0.0       0.00       28.6       0.00       0.25        4.4
3:10              262        4.8         49       23.7      460.4       23.7       24.1       12.4     1015.1       25.3       23.2        0.0        0.0        0.0       0.00       28.7       0.00       0.25        4.4
3:12              262        3.2         49       23.7      460.4       23.7       24.1       12.4     1015.1       25.3       23.2        0.0        0.0        0.0       0.00       28.8       0.00       0.25        4.4
3:14              262        0.0         49       23.7      460.4       23.7       24.1       12.4     1015.1       25.3       23.2        0.0        0.0        0.0       0.00       28.8       0.00       0.25        4.4
3:15              262        0.0         49       23.7      460.4       23.7       24.1       12.3     1015.1       25.3       23.2        0.0        0.0        0.0       0.00       28.8       0.00       0.27        4.4
3:18              262        0.0         49       23.7      460.4       23.7       24.1       12.3     1015.1       25.3       23.2        0.0        0.0        0.0       0.00       28.8       0.00       0.27        4.4
3:20              262        0.0         49       23.7      460.4       23.7       24.1       12.3     1015.1       25.3       23.2        0.0        0.0        0.0       0.00       28.8       0.00       0.27        4.4
3:22              262        0.0         49       23.7      460.4       23.7       24.1       12.3     1015.3       25.3       23.2        0.0        0.0        0.0       0.00       28.8       0.00       0.27        4.4
3:24              262        0.0         49       23.7      460.4       23.7       24.1       12.3     1015.3       25.3       23.2        0.0        0.0        0.0       0.00       28.8       0.00       0.27        4.4
3:26              262        0.0         49       23.7      460.4       23.7       24.1       12.3     1015.3       25.3       23.2        0.0        0.0        0.0       0.00       28.8       0.00       0.27        4.4
3:28              262        0.0         49       23.6      460.4       23.6       24.0       12.3     1015.5       25.3       23.2        0.0        0.0        0.0       0.00       28.8       0.00       0.27        4.4
3:30              262        0.0         49       23.6      460.4       23.6       24.0       12.3     1015.6       25.3       23.2        0.0        0.0        0.0       0.00       28.8       0.00       0.27        4.4
3:32              262        0.0         49       23.6      460.4       23.6       24.0       12.3     1015.6       25.3       23.2        0.0        0.0        0.0       0.00       28.8       0.00       0.28        4.4
3:34              262        0.0         49       23.6      460.4       23.6       24.0       12.3     1015.7       25.3       23.2        0.0        0.0        0.0       0.00       28.8       0.00       0.28        4.4
3:36              262        0.0         49       23.6      460.4       23.6       24.0       12.3     1015.8       25.3       23.2        0.0        0.0        0.0       0.00       28.8       0.00       0.28        4.4
3:38              262        9.7         49       23.6      460.4       22.7       24.0       12.3     1015.8       25.3       23.2        0.0        0.0        0.0       0.00       28.9       0.00       0.28        4.4
3:40              262        4.8         50       23.6      460.4       23.6       24.1       12.6     1015.7       25.3       23.2        0.0        0.0        0.0       0.00       29.1       0.00       0.28        4.4
3:41              262        4.8         50       23.6      460.4       23.6       24.1       12.6     1015.7       25.3       23.2        0.0        0.0        0.0       0.00       29.3       0.00       0.28        4.4
3:44              262        3.2         50       23.6      460.4       23.6       24.1       12.6     1015.7       25.3       23.2        0.0        0.0        0.0       0.00       29.3       0.00       0.28        4.4
3:46              263        0.0         50       23.6      460.4       23.6       24.1       12.6     1015.7       25.3       23.2        0.0        0.0        0.0       0.00       29.4       0.00       0.30        4.4
3:48              262        0.0         50       23.6      460.4       23.6       24.0       12.5     1015.7       25.3       23.2        0.0        0.0        0.0       0.00       29.4       0.00       0.30        4.4
3:50              262        0.0         50       23.6      460.4       23.6       24.0       12.5     1015.7       25.3       23.2        0.0        0.0        0.0       0.00       29.4       0.00       0.30        4.4
3:52              262        0.0         50       23.6      460.4       23.6       24.0       12.5     1015.8       25.3       23.2        0.0        0.0        0.0       0.00       29.4       0.00       0.30        4.4
3:53              262        0.0         51       23.5      460.4       23.5       24.0       12.8     1015.7       25.3       23.2        0.0        0.0        0.0       0.00       29.4       0.00       0.30        4.4
3:56              262        0.0         50       23.5      460.4       23.5       23.9       12.5     1015.8       25.3       23.2        0.0        0.0        0.0       0.00       29.4       0.00       0.30        4.4
3:58              263        0.0         50       23.4      460.4       23.4       23.9       12.4     1015.7       25.3       23.2        0.0        0.0        0.0       0.00       29.4       0.00       0.30        4.4
4:00              262        0.0         50       23.4      460.4       23.4       23.8       12.4     1015.8       25.3       23.2        0.0        0.0        0.0       0.00       29.4       0.00       0.30        4.4
4:02              262        0.0         51       23.4      460.4       23.4       23.9       12.7     1015.7       25.3       23.2        0.0        0.0        0.0       0.00       29.4       0.00       0.31        4.4
4:04              263        0.0         51       23.3      460.4       23.3       23.8       12.6     1015.7       25.3       23.2        0.0        0.0        0.0       0.00       29.4       0.00       0.31        4.4
4:05              262        0.0         51       23.3      460.4       23.3       23.8       12.6     1015.7       25.3       23.2        0.0        0.0        0.0       0.00       29.4       0.00       0.31        4.4
4:07              262        0.0         51       23.3      460.4       23.3       23.8       12.6     1015.8       25.3       23.2        0.0        0.0        0.0       0.00       29.4       0.00       0.31        4.4
4:10              262        0.0         51       23.3      460.4       23.3       23.8       12.6     1015.7       25.3       23.2        0.0        0.0        0.0       0.00       29.4       0.00       0.31        4.4
4:12              262        0.0         52       23.3      460.4       23.3       23.8       12.9     1015.7       25.3       23.2        0.0        0.0        0.0       0.00       29.4       0.00       0.31        4.4
4:14              262        0.0         52       23.2      460.4       23.2       23.8       12.8     1015.7       25.3       23.2        0.0        0.0        0.0       0.00       29.4       0.00       0.31        4.4
4:16              262        0.0         52       23.2      460.4       23.2       23.8       12.8     1015.6       25.3       23.2        0.0        0.0        0.0       0.00       29.4       0.00       0.33        4.4
4:18              262        0.0         52       23.2      460.4       23.2       23.7       12.8     1015.7       25.3       23.2        0.0        0.0        0.0       0.00       29.4       0.00       0.33        4.4
4:20              262        0.0         51       23.1      460.4       23.1       23.6       12.4     1015.7       25.3       23.1        0.0        0.0        0.0       0.00       29.4       0.00       0.33        4.4
4:22              262        0.0         52       23.1      460.4       23.1       23.6       12.7     1015.7       25.3       23.1        0.0        0.0        0.0       0.00       29.4       0.00       0.33        4.4
4:24              263        0.0         52       23.1      460.4       23.1       23.6       12.7     1015.7       25.3       23.1        0.0        0.0        0.0       0.00       29.4       0.00       0.33        4.4
4:26              263        0.0         52       23.0      460.4       23.0       23.6       12.6     1015.7       25.3       23.0        0.0        0.0        0.0       0.00       29.4       0.00       0.33        4.4
4:28              262        0.0         53       23.0      460.4       23.0       23.6       12.9     1015.6       25.3       23.0        0.0        0.0        0.0       0.00       29.4       0.00       0.33        4.4
4:30              262        0.0         53       23.0      460.4       23.0       23.6       12.9     1015.7       25.3       23.0        0.0        0.0        0.0       0.00       29.4       0.00       0.33        4.4
4:32              263        0.0         53       22.9      460.4       22.9       23.6       12.9     1015.7       25.3       22.9        0.0        0.0        0.0       0.00       29.4       0.00       0.34        4.4
4:34              262        0.0         53       22.9      460.4       22.9       23.6       12.9     1015.6       25.3       22.9        0.0        0.0        0.0       0.00       29.4       0.00       0.34        4.4
4:36              262        0.0         53       22.9      460.4       22.9       23.5       12.8     1015.6       25.3       22.9        0.0        0.0        0.0       0.00       29.4       0.00       0.34        4.4
4:38              262        0.0         53       22.9      460.4       22.9       23.5       12.8     1015.6       25.3       22.9        0.0        0.0        0.0       0.00       29.4       0.00       0.34        4.4
4:40              262        0.0         53       22.8      460.4       22.8       23.4       12.8     1015.5       25.3       22.8        0.0        0.0        0.0       0.00       29.4       0.00       0.34        4.4
4:42              262        0.0         53       22.8      460.4       22.8       23.4       12.8     1015.6       25.3       22.8        0.0        0.0        0.0       0.00       29.4       0.00       0.34        4.4
4:44              262        0.0         54       22.8      460.4       22.8       23.4       13.0     1015.6       25.3       22.8        0.0        0.0        0.0       0.00       29.4       0.00       0.34        4.4
4:46              262        0.0         54       22.8      460.4       22.8       23.4       13.0     1015.5       25.3       22.8        0.0        0.0        0.0       0.00       29.4       0.00       0.34        4.4
4:48              262        0.0         54       22.7      460.4       22.7       23.4       12.9     1015.5       25.3       22.7        0.0        0.0        0.0       0.00       29.4       0.00       0.34        4.4
4:50              262        0.0         54       22.7      460.4       22.7       23.4       12.9     1015.6       25.3       22.7        0.0        0.0        0.0       0.00       29.4       0.00       0.34        4.4
4:52              262        0.0         54       22.7      460.4       22.7       23.3       12.9     1015.5       25.3       22.7        0.0        0.0        0.0       0.00       29.4       0.00       0.34        4.4
4:54              262        0.0         53       22.6      460.4       22.6       23.2       12.6     1015.4       25.3       22.6        0.0        0.0        0.0       0.00       29.4       0.00       0.34        4.4
4:56              262        0.0         53       22.6      460.4       22.6       23.2       12.6     1015.5       25.3       22.6        0.0        0.0        0.0       0.00       29.4       0.00       0.34        4.4
4:58              262        0.0         54       22.6      460.4       22.6       23.2       12.8     1015.5       25.3       22.6        0.0        0.0        0.0       0.00       29.4       0.00       0.34        4.4
5:00              262        0.0         53       22.5      460.4       22.5       23.1       12.5     1015.5       25.3       22.5        0.0        0.0        0.0       0.00       29.4       0.00       0.34        4.4
5:02              262        0.0         54       22.5      460.4       22.5       23.2       12.7     1015.5       25.3       22.5        0.0        0.0        0.0       0.00       29.4       0.00       0.35        4.4
5:04              262        0.0         54       22.4      460.4       22.4       23.1       12.7     1015.6       25.3       22.4        0.0        0.0        0.0       0.00       29.4       0.00       0.35        4.4
5:06              262        0.0         54       22.4      460.4       22.4       23.0       12.6     1015.6       25.3       22.4        0.0        0.0        0.0       0.00       29.4       0.00       0.35        4.4
5:08              262        0.0         53       22.4      460.4       22.4       23.0       12.4     1015.4       25.3       22.4        0.0        0.0        0.0       0.00       29.4       0.00       0.35        4.4
5:10              262        0.0         54       22.4      460.4       22.4       23.0       12.6     1015.4       25.3       22.4        0.0        0.0        0.0       0.00       29.4       0.00       0.35        4.4
5:12              262        0.0         55       22.4      460.4       22.4       23.1       12.9     1015.5       25.3       22.4        0.0        0.0        0.0       0.00       29.4       0.00       0.35        4.4
5:14              262        0.0         54       22.4      460.4       22.4       23.0       12.6     1015.5       25.3       22.4        0.0        0.0        0.0       0.00       29.4       0.00       0.35        4.4
5:16              262        0.0         54       22.4      460.4       22.4       23.0       12.6     1015.6       25.3       22.4        0.0        0.0        0.0       0.00       29.4       0.00       0.35        4.4
5:18              262        0.0         54       22.4      460.4       22.4       23.0       12.6     1015.6       25.3       22.4        0.0        0.0        0.0       0.00       29.4       0.00       0.35        4.4
5:20              262        0.0         54       22.4      460.4       22.4       23.0       12.6     1015.5       25.3       22.4        0.0        0.0        0.0       0.00       29.4       0.00       0.35        4.4
5:22              262        0.0         55       22.4      460.4       22.4       23.1       12.9     1015.5       25.3       22.4        0.0        0.0        0.0       0.00       29.4       0.00       0.35        4.4
5:24              262        0.0         55       22.4      460.4       22.4       23.1       12.9     1015.6       25.3       22.4        0.0        0.0        0.0       0.00       29.4       0.00       0.35        4.4
5:26              261        0.0         55       22.4      460.4       22.4       23.1       12.9     1015.6       25.3       22.4        0.0        0.0        0.0       0.00       29.4       0.00       0.35        4.4
5:28              261        0.0         55       22.4      460.4       22.4       23.2       13.0     1015.5       25.3       22.4        0.0        0.0        0.0       0.00       29.4       0.00       0.35        4.4
5:30              261        0.0         55       22.4      460.4       22.4       23.2       13.0     1015.5       25.3       22.4        0.0        0.0        0.0       0.00       29.4       0.00       0.35        4.4
5:32              260        0.0         55       22.4      460.4       22.4       23.2       13.0     1015.5       25.3       22.4        0.0        0.0        0.0       0.00       29.4       0.00       0.36        4.4
5:34              261        0.0         56       22.4      460.4       22.4       23.2       13.2     1015.5       25.3       22.4        0.0        0.0        0.0       0.00       29.4       0.00       0.36        4.4
5:36              260        0.0         55       22.5      460.4       22.5       23.2       13.0     1015.6       25.3       22.4        0.0        0.0        0.0       0.00       29.4       0.00       0.36        4.4
5:38              261        0.0         56       22.5      460.4       22.5       23.3       13.3     1015.6       25.3       22.4        0.0        0.0        0.0       0.00       29.4       0.00       0.36        4.4
5:40              261        0.0         56       22.6      460.4       22.6       23.3       13.3     1015.6       25.3       22.4        0.0        0.0        0.0       0.00       29.4       0.00       0.36        4.4
5:42              261        0.0         56       22.6      460.4       22.6       23.4       13.4     1015.6       25.3       22.4        0.0        0.0        0.0       0.00       29.4       0.00       0.36        4.4
5:44              261        0.0         56       22.7      460.4       22.7       23.4       13.4     1015.6       25.3       22.4        0.0        0.0        0.0       0.00       29.4       0.00       0.36        4.4
5:46              261        0.0         56       22.7      460.4       22.7       23.5       13.5     1015.5       25.3       22.4        0.0        0.0        0.0       0.00       29.4       0.00       0.37        4.4
5:48              261        0.0         56       22.8      460.4       22.8       23.6       13.6     1015.6       25.3       22.4        0.0        0.0        0.0       0.00       29.4       0.00       0.37        4.4
5:50              261        0.0         56       22.8      460.4       22.8       23.6       13.6     1015.5       25.3       22.4        0.0        0.0        0.0       0.00       29.4       0.00       0.37        4.4
5:52              261        0.0         57       22.8      460.4       22.8       23.7       13.9     1015.5       25.3       22.4        0.0        0.0        0.0       0.00       29.4       0.00       0.37        4.4
5:54              261        0.0         57       22.9      460.4       22.9       23.8       14.0     1015.5       25.3       22.4        0.0        0.0        0.0       0.00       29.4       0.00       0.37        4.4
5:56              261        3.2         56       23.0      460.4       23.0       23.8       13.8     1015.5       25.3       22.4        0.0        0.0        0.0       0.00       29.4       0.00       0.37        4.4
5:58              261        0.0         56       23.1      460.4       23.1       23.8       13.8     1015.5       25.3       22.4        0.0        0.0        0.0       0.00       29.5       0.00       0.37        4.4
6:00              261        0.0         56       23.1      460.4       23.1       23.9       13.9     1015.5       25.3       22.4        0.0        0.0        0.0       0.00       29.5       0.00       0.37        4.4
6:02              261        6.4         55       23.1      460.4       23.1       23.8       13.6     1015.5       25.3       22.4        0.0        0.0        0.0       0.00       29.6       0.00       0.38        4.4
6:04              261        6.4         55       23.2      460.4       23.2       23.9       13.6     1015.4       25.3       22.4        0.0        0.0        0.0       0.00       29.6       0.00       0.38        4.4
6:06              272        9.7         54       23.2      460.4       22.3       23.8       13.4     1015.4       25.3       22.4        0.0        0.0        0.0       0.00       29.8       0.00       0.38        4.4
6:08              280        4.8         54       23.1      460.4       23.1       23.8       13.3     1015.5       25.3       22.4        0.0        0.0        0.0       0.00       29.9       0.00       0.38        4.4
6:10              280        0.0         54       23.1      460.4       23.1       23.7       13.3     1015.4       25.3       22.4        0.0        0.0        0.0       0.00       30.0       0.00       0.38        4.4
6:12              280        0.0         56       23.1      460.4       23.1       23.8       13.8     1015.5       25.3       22.4        0.0        0.0        0.0       0.00       30.0       0.00       0.38        4.4
6:14              280        0.0         55       23.0      460.4       23.0       23.7       13.5     1015.5       25.3       22.4        0.0        0.0        0.0       0.00       30.0       0.00       0.38        4.4
6:16              280        0.0         56       22.9      460.4       22.9       23.7       13.7     1015.7       25.3       22.4        0.0        0.0        0.0       0.00       30.0       0.00       0.39        4.4
6:18              280        1.6         56       22.9      460.4       22.9       23.7       13.7     1015.6       25.3       22.4        0.0        0.0        0.0       0.00       30.0       0.00       0.39        4.4
6:20              280        4.8         56       22.9      460.4       22.9       23.7       13.7     1015.5       25.3       22.4        0.0        0.0        0.0       0.00       30.1       0.00       0.39        4.4
6:22              280        4.8         56       22.9      460.4       22.9       23.7       13.7     1015.6       25.3       22.4        0.0        0.0        0.0       0.00       30.2       0.00       0.39        4.4
6:24              280        4.8         56       22.9      460.4       22.9       23.7       13.7     1015.6       25.3       22.4        0.0        0.0        0.0       0.00       30.2       0.00       0.39        4.4
6:26              280        3.2         56       22.9      460.4       22.9       23.7       13.7     1015.6       25.3       22.4        0.0        0.0        0.0       0.00       30.3       0.00       0.39        4.4
6:28              280        0.0         56       22.9      460.4       22.9       23.7       13.7     1015.6       25.3       22.4        0.0        0.0        0.0       0.00       30.4       0.00       0.39        4.4
6:30              280        0.0         57       22.9      460.4       22.9       23.8       14.0     1015.6       25.3       22.4        0.0        0.0        0.0       0.00       30.4       0.00       0.39        4.4
6:32              280        0.0         57       22.9      460.4       22.9       23.8       14.0     1015.7       25.3       22.4        0.0        0.0        0.0       0.00       30.4       0.00       0.40        4.4
6:34              280        0.0         57       23.0      460.4       23.0       23.8       14.0     1015.8       25.3       22.4        0.0        0.0        0.0       0.00       30.5       0.00       0.40        4.4
6:36              280        4.8         56       23.1      460.4       23.1       23.8       13.8     1015.9       25.3       22.4        0.0        0.0        0.0       0.00       30.5       0.00       0.40        4.4
6:38              280        3.2         55       23.1      460.4       23.1       23.8       13.6     1015.8       25.3       22.4        0.0        0.0        0.0       0.00       30.6       0.00       0.40        4.4
6:40              280        1.6         56       23.2      460.4       23.2       23.9       13.9     1016.0       25.3       22.4        0.0        0.0        0.0       0.00       30.6       0.00       0.40        4.4
6:42              280        6.4         56       23.2      460.4       23.2       24.0       14.0     1016.0       25.3       22.4        0.0        0.0        0.0       0.00       30.7       0.00       0.40        4.4
6:44              282        4.8         56       23.3      460.4       23.3       24.1       14.1     1016.0       25.3       22.4        0.0        0.0        0.0       0.00       30.8       0.00       0.40        4.4
6:46              282        0.0         56       23.3      460.4       23.3       24.1       14.1     1016.0       25.3       22.4        0.0        0.0        0.0       0.00       30.8       0.00       0.41        4.4
6:48              283        9.7         56       23.4      460.4       23.4       24.2       14.1     1016.1       25.3       22.4        0.0        0.0        0.0       0.00       30.9       0.00       0.41        4.4
6:50              290        3.2         56       23.4      460.4       23.4       24.2       14.1     1016.0       25.3       22.4        0.0        0.0        0.0       0.00       31.1       0.00       0.41        4.4
6:52              308        8.0         56       23.4      460.4       23.4       24.2       14.1     1016.0       25.3       22.4        0.0        0.0        0.0       0.00       31.3       0.00       0.41        4.4
6:54              309        3.2         56       23.4      460.4       23.4       24.2       14.2     1016.0       25.3       22.4        0.0        0.0        0.0       0.00       31.4       0.00       0.41        4.4
6:56              309        0.0         56       23.4      460.4       23.4       24.2       14.2     1016.0       25.3       22.4        0.0        0.0        0.0       0.00       31.4       0.00       0.41        4.4
6:58              311        6.4         56       23.5      460.4       23.5       24.3       14.2     1016.1       25.3       22.4        0.0        0.0        0.0       0.00       31.5       0.00       0.41        4.4
7:00              312        8.0         56       23.5      460.4       23.0       24.3       14.2     1016.0       25.3       22.4        0.0        0.0        0.0       0.00       31.6       0.00       0.41        4.4
7:02              316        3.2         55       23.6      460.4       23.6       24.3       14.0     1016.1       25.3       22.4        0.0        0.0        0.0       0.00       31.8       0.00       0.43        4.4
7:04              317        1.6         55       23.6      460.4       23.6       24.3       14.0     1016.0       25.3       22.4        0.0        0.0        0.0       0.00       31.9       0.00       0.43        4.4
7:06              317        1.6         56       23.6      460.4       23.6       24.4       14.3     1016.1       25.3       22.4        0.0        0.0        0.0       0.00       31.9       0.00       0.43        4.4
7:08              317        6.4         56       23.7      460.4       23.7       24.4       14.4     1016.1       25.3       22.4        0.0        0.0        0.0       0.00       32.0       0.00       0.43        4.4
7:10              317        3.2         55       23.7      460.4       23.7       24.4       14.2     1016.2       25.3       22.4        0.0        0.0        0.0       0.00       32.1       0.00       0.43        4.4
7:12              319        6.4         55       23.8      460.4       23.8       24.5       14.2     1016.2       25.3       22.4        0.0        0.0        0.0       0.00       32.3       0.00       0.43        4.4
7:14              319        4.8         56       23.8      460.4       23.8       24.6       14.5     1016.1       25.3       22.4        0.0        0.0        0.0       0.00       32.4       0.00       0.43        4.4
7:16              319        0.0         56       23.9      460.4       23.9       24.7       14.6     1016.0       25.3       22.4        0.0        0.0        0.0       0.00       32.5       0.00       0.45        4.4
7:18              326        8.0         55       23.9      460.4       23.9       24.7       14.4     1016.0       25.3       22.4        0.0        0.0        0.0       0.00       32.6       0.00       0.45        4.4
7:20              333        8.0         54       24.0      460.4       24.0       24.7       14.1     1016.1       25.3       22.4        0.0        0.0        0.0       0.00       32.8       0.00       0.45        4.4
7:22              355        4.8         54       24.1      460.4       24.1       24.7       14.2     1016.0       25.3       22.4        0.0        0.0        0.0       0.00       33.0       0.00       0.45        4.4
7:24              355        4.8         54       24.1      460.4       24.1       24.8       14.2     1016.0       25.3       22.4        0.0        0.0        0.0       0.00       33.1       0.00       0.45        4.4
7:26              355        6.4         54       24.2      460.4       24.2       24.9       14.3     1016.0       25.3       22.4        0.0        0.0        0.0       0.00       33.2       0.00       0.45        4.4
7:28              360        4.8         53       24.3      460.4       24.3       24.9       14.1     1016.0       25.3       22.4        0.0        0.0        0.0       0.00       33.3       0.00       0.45        4.4
7:30              360        8.0         53       24.4      460.4       24.4       25.0       14.2     1016.0       25.3       22.4        0.0        0.0        0.0       0.00       33.4       0.00       0.45        4.4
7:32                5        6.4         53       24.5      460.4       24.5       25.1       14.3     1016.0       25.3       22.4        0.0        0.0        0.0       0.00       33.6       0.00       0.47        4.4
7:34               21        8.0         52       24.6      460.4       24.6       25.1       14.1     1016.0       25.3       22.4        0.0        0.0        0.0       0.00       33.9       0.00       0.47        4.4
7:36               28        8.0         52       24.7      460.4       24.7       25.2       14.2     1016.0       25.3       22.4        0.0        0.0        0.0       0.00       34.1       0.00       0.47        4.4
7:38               22        6.4         53       24.7      460.4       24.7       25.3       14.5     1016.0       25.3       22.4        0.0        0.0        0.0       0.00       34.2       0.00       0.47        4.4
7:40               34       12.9         52       24.7      460.4       24.2       25.2       14.2     1016.0       25.3       22.4        0.0        0.0        0.0       0.00       34.5       0.00       0.47        4.4
7:42               34        8.0         53       24.7      460.4       24.3       25.3       14.5     1016.0       25.3       22.4        0.0        0.0        0.0       0.00       34.7       0.00       0.47        4.4
7:44               40        6.4         52       24.8      460.4       24.8       25.3       14.3     1016.0       25.3       22.4        0.0        0.0        0.0       0.00       35.0       0.00       0.47        4.4
7:46               28        8.0         53       24.8      460.4       24.8       25.4       14.6     1016.0       25.3       22.4        0.0        0.0        0.0       0.00       35.1       0.00       0.50        4.4
7:48               29        3.2         53       24.9      460.4       24.9       25.5       14.7     1016.0       25.3       22.4        0.0        0.0        0.0       0.00       35.3       0.00       0.50        4.4
7:50               24        9.7         53       25.0      460.4       25.0       25.6       14.8     1016.0       25.3       22.4        0.0        0.0        0.0       0.00       35.5       0.00       0.50        4.4
7:52               39        9.7         53       25.0      460.4       25.0       25.6       14.8     1015.9       25.3       22.4        0.0        0.0        0.0       0.00       35.8       0.00       0.50        4.4
7:54               32        8.0         53       25.0      460.4       25.0       25.6       14.8     1015.9       25.3       22.4        0.0        0.0        0.0       0.00       35.9       0.00       0.50        4.4
7:56               30        9.7         54       25.1      460.4       24.6       25.7       15.1     1016.0       25.3       22.4        0.0        0.0        0.0       0.00       36.2       0.00       0.50        4.4
7:58               14       11.3         53       25.1      460.4       25.1       25.7       14.9     1016.0       25.3       22.4        0.0        0.0        0.0       0.00       36.4       0.00       0.50        4.4
8:00               15       11.3         53       25.2      460.4       24.2       25.8       14.9     1015.9       25.3       22.4        0.0        0.0        0.0       0.00       36.6       0.00       0.50        4.4
8:02              355        8.0         54       25.2      460.4       25.2       25.8       15.2     1015.9       25.3       22.4        0.0        0.0        0.0       0.00       36.8       0.00       0.53        4.4
8:04                5        6.4         53       25.2      460.4       25.2       25.8       14.9     1016.0       25.3       22.4        0.0        0.0        0.0       0.00       37.1       0.00       0.53        4.4
8:06                5        6.4         54       25.2      460.4       25.2       25.8       15.2     1015.9       25.3       22.4        0.0        0.0        0.0       0.00       37.3       0.00       0.53        4.4
8:08                5        9.7         54       25.2      460.4       25.2       25.9       15.3     1015.9       25.3       22.4        0.0        0.0        0.0       0.00       37.5       0.00       0.53        4.4
8:10               20       12.9         54       25.3      460.4       25.3       25.9       15.3     1016.0       25.3       22.4        0.0        0.0        0.0       0.00       37.8       0.00       0.53        4.4
8:12               22       17.7         53       25.3      460.4       24.6       25.9       15.0     1016.0       25.3       22.4        0.0        0.0        0.0       0.00       38.1       0.00       0.53        4.4
8:14               19       12.9         54       25.3      460.4       25.3       26.0       15.4     1015.9       25.3       22.4        0.0        0.0        0.0       0.00       38.4       0.00       0.53        4.4
8:16               15       12.9         54       25.4      460.4       24.4       26.0       15.4     1016.0       25.4       22.4        0.0        0.0        0.0       0.00       38.6       0.00       0.57        4.4
8:18                9        8.0         53       25.4      460.4       25.4       26.1       15.2     1016.0       25.4       22.4        0.0        0.0        0.0       0.00       38.8       0.00       0.57        4.4
8:20               27       12.9         52       25.5      460.4       25.1       26.1       14.9     1016.0       25.5       22.4        0.0        0.0        0.0       0.00       39.0       0.00       0.57        4.4
8:22               32       14.5         51       25.6      460.4       24.1       26.1       14.7     1016.0       25.6       22.4        0.0        0.0        0.0       0.00       39.4       0.00       0.57        4.4
8:24               39       14.5         51       25.7      460.4       24.8       26.2       14.8     1016.1       25.7       22.4        0.0        0.0        0.0       0.00       39.7       0.00       0.57        4.4
8:26               17       11.3         51       25.8      460.4       25.8       26.3       14.9     1016.0       25.8       22.4        0.0        0.0        0.0       0.00       39.9       0.00       0.57        4.4
8:28               37       12.9         49       25.8      460.4       25.2       26.2       14.3     1016.0       25.8       22.4        0.0        0.0        0.0       0.00       40.3       0.00       0.57        4.4
8:30               37       14.5         49       25.9      460.4       25.9       26.3       14.4     1016.0       25.9       22.4        0.0        0.0        0.0       0.00       40.6       0.00       0.57        4.4
8:32               42        6.4         50       26.0      460.4       26.0       26.4       14.8     1016.0       26.0       22.4        0.0        0.0        0.0       0.00       40.9       0.00       0.61        4.4
8:34               40       16.1         48       26.1      460.4       25.2       26.5       14.3     1016.1       26.1       22.4        0.0        0.0        0.0       0.00       41.2       0.00       0.61        4.4
8:36               30       16.1         48       26.2      460.4       24.8       26.5       14.3     1016.1       26.2       22.4        0.0        0.0        0.0       0.00       41.5       0.00       0.61        4.4
8:38               37       16.1         49       26.2      460.4       24.6       26.6       14.7     1016.1       26.2       22.4        0.0        0.0        0.0       0.00       41.8       0.00       0.61        4.4
8:40               33       17.7         48       26.3      460.4       24.5       26.6       14.4     1016.1       26.3       22.4        0.0        0.0        0.0       0.00       42.2       0.00       0.61        4.4
8:42               25        4.8         48       26.3      460.4       26.3       26.7       14.5     1016.1       26.3       22.4        0.0        0.0        0.0       0.00       42.5       0.00       0.61        4.4
8:44               24        8.0         49       26.4      460.4       26.4       26.8       14.8     1016.0       26.4       22.4        0.0        0.0        0.0       0.00       42.6       0.00       0.61        4.4
8:46               15        8.0         48       26.5      460.4       26.5       26.8       14.6     1016.0       26.5       22.4        0.0        0.0        0.0       0.00       42.8       0.00       0.66        4.4
8:48               25        9.7         48       26.6      460.4       26.6       26.9       14.7     1016.0       26.6       22.4        0.0        0.0        0.0       0.00       42.9       0.00       0.66        4.4
8:50               29        9.7         48       26.7      460.4       26.1       27.0       14.8     1016.0       26.7       22.4        0.0        0.0        0.0       0.00       43.1       0.00       0.66        4.4
8:52               19       11.3         48       26.8      460.4       26.0       27.1       14.9     1016.0       26.8       22.4        0.0        0.0        0.0       0.00       43.3       0.00       0.66        4.4
8:54               17        6.4         48       26.8      460.4       26.8       27.2       14.9     1016.0       26.8       22.4        0.0        0.0        0.0       0.00       43.5       0.00       0.66        4.4
8:56               17        4.8         48       26.9      460.4       26.9       27.2       15.0     1015.9       26.9       22.4        0.0        0.0        0.0       0.00       43.7       0.00       0.66        4.4
8:58               21       11.3         47       27.0      460.4       27.0       27.2       14.7     1015.9       27.0       22.4        0.0        0.0        0.0       0.00       43.9       0.00       0.66        4.4
9:00               22        9.7         48       27.1      460.4       26.8       27.4       15.2     1015.9       27.1       22.4        0.0        0.0        0.0       0.00       44.1       0.00       0.66        4.4
9:02               49       14.5         47       27.2      460.4       26.7       27.4       14.9     1015.9       27.2       22.4        0.0        0.0        0.0       0.00       44.4       0.00       0.71        4.4
9:04               38       11.3         46       27.3      460.4       27.3       27.5       14.7     1015.9       27.3       22.4        0.0        0.0        0.0       0.00       44.6       0.00       0.71        4.4
9:06               40       11.3         45       27.4      460.4       27.4       27.5       14.4     1015.9       27.4       22.4        0.0        0.0        0.0       0.00       44.9       0.00       0.71        4.4
9:08               19        8.0         45       27.4      460.4       27.4       27.5       14.5     1015.9       27.4       22.4        0.0        0.0        0.0       0.00       45.2       0.00       0.71        4.4
9:10               24        4.8         46       27.5      460.4       27.5       27.6       14.9     1015.8       27.5       22.4        0.0        0.0        0.0       0.00       45.4       0.00       0.71        4.4
9:12               18       14.5         46       27.6      460.4       26.4       27.7       14.9     1015.9       27.6       22.4        0.0        0.0        0.0       0.00       45.6       0.00       0.71        4.4
9:14               34       14.5         45       27.6      460.4       27.1       27.7       14.6     1015.9       27.6       22.4        0.0        0.0        0.0       0.00       46.0       0.00       0.71        4.4
9:16               22       12.9         46       27.7      460.4       27.7       27.8       15.0     1015.9       27.7       22.4        0.0        0.0        0.0       0.00       46.2       0.00       0.77        4.4
9:18               30       16.1         45       27.7      460.4       26.7       27.8       14.7     1015.8       27.7       22.4        0.0        0.0        0.0       0.00       46.4       0.00       0.77        4.4
9:20                5       14.5         46       27.8      460.4       27.8       27.9       15.1     1015.9       27.8       22.4        0.0        0.0        0.0       0.00       46.7       0.00       0.77        4.4
9:22               26       12.9         46       27.8      460.4       27.0       27.9       15.2     1015.9       27.8       22.4        0.0        0.0        0.0       0.00       47.0       0.00       0.77        4.4
9:24               34       12.9         46       27.9      460.4       27.4       28.0       15.2     1015.8       27.9       22.4        0.0        0.0        0.0       0.00       47.4       0.00       0.77        4.4
9:26               38        8.0         46       27.9      460.4       27.6       28.0       15.2     1015.8       27.9       22.4        0.0        0.0        0.0       0.00       47.6       0.00       0.77        4.4
9:28               38        9.7         47       28.0      460.4       27.7       28.2       15.6     1015.8       28.0       22.4        0.0        0.0        0.0       0.00       47.9       0.00       0.77        4.4
9:30               12       12.9         47       28.1      460.4       27.3       28.3       15.7     1015.8       28.1       22.4        0.0        0.0        0.0       0.00       48.0       0.00       0.77        4.4
9:32               24       12.9         46       28.2      460.4       27.4       28.3       15.5     1015.8       28.2       22.4        0.0        0.0        0.0       0.00       48.3       0.00       0.83        4.4
9:34               33       16.1         44       28.2      460.4       27.4       28.2       14.8     1015.8       28.2       22.4        0.0        0.0        0.0       0.00       48.8       0.00       0.83        4.4
9:36               33       16.1         43       28.3      460.4       28.0       28.1       14.5     1015.8       28.3       22.4        0.0        0.0        0.0       0.00       49.1       0.00       0.83        4.4
9:38               36        8.0         43       28.3      460.4       28.1       28.2       14.6     1015.7       28.3       22.4        0.0        0.0        0.0       0.00       49.4       0.00       0.83        4.4
9:40               24       16.1         43       28.4      460.4       27.3       28.3       14.6     1015.7       28.4       22.4        0.0        0.0        0.0       0.00       49.7       0.00       0.83        4.4
9:42               34        9.7         43       28.5      460.4       28.1       28.4       14.7     1015.7       28.5       22.4        0.0        0.0        0.0       0.00       50.1       0.00       0.83        4.4
9:44               28        4.8         42       28.5      460.4       28.5       28.3       14.4     1015.8       28.6       22.4        0.0        0.0        0.0       0.00       50.4       0.00       0.83        4.4
9:46               37       16.1         42       28.6      460.4       28.6       28.4       14.5     1015.7       28.6       22.4        0.0        0.0        0.0       0.00       50.7       0.00       0.90        4.4
9:48               29        8.0         42       28.7      460.4       28.7       28.5       14.6     1015.8       28.7       22.4        0.0        0.0        0.0       0.00       50.9       0.00       0.90        4.4
9:50               13       16.1         42       28.8      460.4       28.8       28.6       14.7     1015.7       28.8       22.4        0.0        0.0        0.0       0.00       51.2       0.00       0.90        4.4
9:52               28       12.9         42       28.9      460.4       28.7       28.7       14.7     1015.7       28.9       22.4        0.0        0.0        0.0       0.00       51.5       0.00       0.90        4.4
9:54               30        8.0         42       29.0      460.4       28.8       28.8       14.8     1015.7       29.0       22.4        0.0        0.0        0.0       0.00       51.6       0.00       0.90        4.4
9:56               49        6.4         41       29.2      460.4       29.2       28.9       14.6     1015.7       29.2       22.4        0.0        0.0        0.0       0.00       51.8       0.00       0.90        4.4
9:58               25        9.7         41       29.3      460.4       29.3       29.1       14.7     1015.7       29.3       22.4        0.0        0.0        0.0       0.00       52.1       0.00       0.90        4.4
10:00              56        4.8         40       29.5      460.4       29.5       29.1       14.5     1015.7       29.5       22.4        0.0        0.0        0.0       0.00       52.3       0.00       0.90        4.4
10:02              50        8.0         40       29.7      460.4       29.5       29.3       14.6     1015.7       29.7       22.4        0.0        0.0        0.0       0.00       52.5       0.00       0.98        4.4
10:04              51        8.0         39       29.8      460.4       29.8       29.4       14.4     1015.7       29.8       22.4        0.0        0.0        0.0       0.00       52.8       0.00       0.98        4.4
10:06              48        3.2         38       30.0      460.4       30.0       29.5       14.1     1015.7       30.0       22.4        0.0        0.0        0.0       0.00       53.0       0.00       0.98        4.4
10:07              52        4.8         39       30.1      460.4       30.1       29.6       14.6     1015.7       30.1       22.4        0.0        0.0        0.0       0.00       53.1       0.00       0.98        4.4
10:10              80        4.8         38       30.2      460.4       30.2       29.7       14.3     1015.6       30.2       22.4        0.0        0.0        0.0       0.00       53.4       0.00       0.98        4.4
10:12              53       11.3         38       30.3      460.4       30.1       29.8       14.4     1015.7       30.3       22.4        0.0        0.0        0.0       0.00       53.7       0.00       0.98        4.4
10:14              44        9.7         37       30.6      460.4       30.3       30.0       14.2     1015.7       30.6       22.4        0.0        0.0        0.0       0.00       53.9       0.00       0.98        4.4
10:16              58       17.7         37       30.7      460.4       30.1       30.1       14.3     1015.6       30.7       22.4        0.0        0.0        0.0       0.00       54.2       0.00       1.07        4.4
10:18              80       14.5         37       30.8      460.4       30.7       30.2       14.4     1015.6       30.8       22.4        0.0        0.0        0.0       0.00       54.5       0.00       1.07        4.4
10:20              88        6.4         37       30.9      460.4       30.9       30.4       14.5     1015.6       30.9       22.4        0.0        0.0        0.0       0.00       54.8       0.00       1.07        4.4
10:22              42        9.7         37       31.1      460.4       30.9       30.6       14.7     1015.5       31.1       22.4        0.0        0.0        0.0       0.00       55.0       0.00       1.07        4.4
10:24              42        9.7         36       31.2      460.4       31.2       30.6       14.4     1015.5       31.2       22.4        0.0        0.0        0.0       0.00       55.2       0.00       1.07        4.4
10:26              27       12.9         36       31.3      460.4       31.2       30.8       14.5     1015.4       31.3       22.4        0.0        0.0        0.0       0.00       55.5       0.00       1.07        4.4
10:28              68       16.1         36       31.4      460.4       31.0       30.8       14.5     1015.4       31.4       22.4        0.0        0.0        0.0       0.00       55.8       0.00       1.07        4.4
10:30              34        6.4         36       31.5      460.4       31.5       31.0       14.6     1015.3       31.5       22.4        0.0        0.0        0.0       0.00       56.0       0.00       1.07        4.4
10:32              54       12.9         35       31.6      460.4       31.5       31.0       14.3     1015.3       31.6       22.4        0.0        0.0        0.0       0.00       56.4       0.00       1.17        4.4
10:34              50       14.5         35       31.8      460.4       31.7       31.2       14.4     1015.2       31.8       22.4        0.0        0.0        0.0       0.00       56.6       0.00       1.17        4.4
10:36              74       16.1         34       31.9      460.4       31.7       31.2       14.1     1015.2       31.9       22.4        0.0        0.0        0.0       0.00       56.9       0.00       1.17        4.4
10:38              19        6.4         34       32.1      460.4       32.1       31.4       14.2     1015.0       32.1       22.4        0.0        0.0        0.0       0.00       57.1       0.00       1.17        4.4
10:40              37       16.1         34       32.2      460.4       32.2       31.5       14.3     1015.1       32.2       22.4        0.0        0.0        0.0       0.00       57.4       0.00       1.17        4.4
10:42              55        6.4         34       32.3      460.4       32.3       31.7       14.5     1015.1       32.3       22.4        0.0        0.0        0.0       0.00       57.7       0.00       1.17        4.4
10:44              34       14.5         34       32.4      460.4       32.3       31.9       14.6     1015.1       32.4       22.4        0.0        0.0        0.0       0.00       58.0       0.00       1.17        4.4
10:46              46        8.0         33       32.6      460.4       32.6       32.0       14.3     1015.2       32.6       22.4        0.0        0.0        0.0       0.00       58.3       0.00       1.28        4.4
10:48              41       16.1         33       32.7      460.4       32.7       32.1       14.4     1015.2       32.7       22.4        0.0        0.0        0.0       0.00       58.6       0.00       1.28        4.4
10:50              19       17.7         32       32.8      460.4       32.7       32.0       13.9     1015.1       32.8       22.4        0.0        0.0        0.0       0.00       59.0       0.00       1.28        4.4
10:52              43        9.7         31       32.9      460.4       32.9       32.0       13.5     1015.1       32.9       22.4        0.0        0.0        0.0       0.00       59.4       0.00       1.28        4.4
10:54              61       16.1         31       33.0      460.4       33.0       32.1       13.6     1015.1       33.0       22.4        0.0        0.0        0.0       0.00       59.7       0.00       1.28        4.4
10:56              60        9.7         31       33.2      460.4       33.2       32.4       13.8     1015.1       33.2       22.4        0.0        0.0        0.0       0.00       60.0       0.00       1.28        4.4
10:58              57        8.0         30       33.4      460.4       33.4       32.5       13.5     1015.1       33.4       22.4        0.0        0.0        0.0       0.00       60.2       0.00       1.28        4.4
11:00              42        8.0         30       33.5      460.4       33.5       32.6       13.6     1015.0       33.5       22.4        0.0        0.0        0.0       0.00       60.5       0.00       1.28        4.4
11:02             105       12.9         30       33.7      460.4       33.7       32.8       13.7     1015.0       33.7       22.4        0.0        0.0        0.0       0.00       60.9       0.00       1.40        4.4
11:04              69       14.5         30       33.8      460.4       33.8       33.1       13.8     1015.0       33.8       22.4        0.0        0.0        0.0       0.00       61.2       0.00       1.40        4.4
11:06              61        4.8         29       34.0      460.4       34.0       33.1       13.5     1015.1       34.0       22.4        0.0        0.0        0.0       0.00       61.5       0.00       1.40        4.4
11:08              34       14.5         29       34.1      460.4       34.1       33.3       13.6     1014.9       34.1       22.4        0.0        0.0        0.0       0.00       61.8       0.00       1.40        4.4
11:10             100       11.3         29       34.2      460.4       34.2       33.3       13.6     1015.0       34.2       22.4        0.0        0.0        0.0       0.00       62.1       0.00       1.40        4.4
11:12              37       14.5         29       34.3      460.4       34.3       33.6       13.8     1015.0       34.3       22.4        0.0        0.0        0.0       0.00       62.5       0.00       1.40        4.4
11:14              43        8.0         29       34.4      460.4       34.4       33.6       13.8     1014.9       34.4       22.4        0.0        0.0        0.0       0.00       62.7       0.00       1.40        4.4
11:16              40       20.9         29       34.4      460.4       34.4       33.6       13.8     1014.9       34.4       22.4        0.0        0.0        0.0       0.00       63.3       0.00       1.52        4.4
11:18              38        9.7         29       34.3      460.4       34.3       33.6       13.8     1014.8       34.4       22.4        0.0        0.0        0.0       0.00       63.6       0.00       1.52        4.4
11:20              34        6.4         30       34.3      460.4       34.3       33.7       14.2     1014.9       34.4       22.4        0.0        0.0        0.0       0.00       63.8       0.00       1.52        4.4
11:22              63       14.5         29       34.3      460.4       34.3       33.5       13.7     1014.9       34.4       22.4        0.0        0.0        0.0       0.00       64.1       0.00       1.52        4.4
11:24              56        9.7         29       34.4      460.4       34.4       33.6       13.8     1014.8       34.4       22.4        0.0        0.0        0.0       0.00       64.6       0.00       1.52        4.4
11:26              76       16.1         29       34.4      460.4       34.4       33.7       13.9     1014.8       34.4       22.4        0.0        0.0        0.0       0.00       64.8       0.00       1.52        4.4
11:28              49       11.3         29       34.6      460.4       34.6       33.9       14.0     1014.8       34.6       22.4        0.0        0.0        0.0       0.00       65.0       0.00       1.52        4.4
11:30              40        9.7         29       34.7      460.4       34.7       34.0       14.0     1014.8       34.7       22.4        0.0        0.0        0.0       0.00       65.3       0.00       1.52        4.4
11:32              80       11.3         29       34.7      460.4       34.7       34.1       14.1     1014.8       34.7       22.4        0.0        0.0        0.0       0.00       65.6       0.00       1.66        4.4
11:34              65        8.0         28       34.8      460.4       34.8       34.0       13.6     1014.8       34.8       22.4        0.0        0.0        0.0       0.00       65.9       0.00       1.66        4.4
11:36              67        8.0         28       34.8      460.4       34.8       34.0       13.6     1014.8       34.8       22.4        0.0        0.0        0.0       0.00       66.1       0.00       1.66        4.4
11:38              99        9.7         28       34.9      460.4       34.9       34.1       13.7     1014.8       34.9       22.4        0.0        0.0        0.0       0.00       66.3       0.00       1.66        4.4
11:40              27       12.9         28       35.0      460.4       35.0       34.3       13.8     1014.8       35.0       22.4        0.0        0.0        0.0       0.00       66.5       0.00       1.66        4.4
11:42              29       12.9         29       35.1      460.4       35.1       34.5       14.4     1014.8       35.1       22.4        0.0        0.0        0.0       0.00       66.8       0.00       1.66        4.4
11:44              36       19.3         30       35.1      460.4       35.1       34.8       14.9     1014.8       35.1       22.4        0.0        0.0        0.0       0.00       67.1       0.00       1.66        4.4
11:46              13       16.1         29       35.0      460.4       35.0       34.5       14.3     1014.8       35.1       22.4        0.0        0.0        0.0       0.00       67.6       0.00       1.79        4.4
11:48              57        9.7         30       34.9      460.4       34.9       34.6       14.8     1014.8       35.1       22.4        0.0        0.0        0.0       0.00       67.9       0.00       1.79        4.4
11:50              26       12.9         30       35.0      460.4       35.0       34.7       14.9     1014.8       35.1       22.4        0.0        0.0        0.0       0.00       68.2       0.00       1.79        4.4
11:52              30        9.7         29       35.0      460.4       35.0       34.5       14.3     1014.7       35.1       22.4        0.0        0.0        0.0       0.00       68.4       0.00       1.79        4.4
11:54              48       11.3         30       35.1      460.4       35.1       34.8       14.9     1014.8       35.1       22.4        0.0        0.0        0.0       0.00       68.7       0.00       1.79        4.4
11:56              39        9.7         30       35.1      460.4       35.1       34.8       14.9     1014.7       35.1       22.4        0.0        0.0        0.0       0.00       69.0       0.00       1.79        4.4
11:58              46       11.3         29       35.1      460.4       35.1       34.5       14.4     1014.7       35.1       22.4        0.0        0.0        0.0       0.00       69.4       0.00       1.79        4.4
12:00              17        8.0         30       35.0      460.4       35.0       34.7       14.9     1014.6       35.1       22.4        0.0        0.0        0.0       0.00       69.7       0.00       1.79        4.4
12:02              65       17.7         29       35.0      460.4       35.0       34.5       14.3     1014.7       35.1       22.4        0.0        0.0        0.0       0.00       69.9       0.00       1.93        4.4
12:04              76       16.1         29       35.1      460.4       35.1       34.5       14.4     1014.6       35.1       22.4        0.0        0.0        0.0       0.00       70.3       0.00       1.93        4.4
12:06              92        3.2         28       35.2      460.4       35.2       34.5       13.9     1014.7       35.2       22.4        0.0        0.0        0.0       0.00       70.6       0.00       1.93        4.4
12:08              89        4.8         29       35.3      460.4       35.3       34.9       14.6     1014.7       35.3       22.4        0.0        0.0        0.0       0.00       70.8       0.00       1.93        4.4
12:10              51        8.0         29       35.5      460.4       35.5       35.2       14.8     1014.6       35.5       22.4        0.0        0.0        0.0       0.00       70.9       0.00       1.93        4.4
12:12              63        9.7         28       35.6      460.4       35.6       35.1       14.3     1014.7       35.6       22.4        0.0        0.0        0.0       0.00       71.1       0.00       1.93        4.4
12:14              76        6.4         27       35.7      460.4       35.7       35.1       13.8     1014.6       35.7       22.4        0.0        0.0        0.0       0.00       71.3       0.00       1.93        4.4
12:16              84        8.0         27       35.9      460.4       35.9       35.3       14.0     1014.7       35.9       22.4        0.0        0.0        0.0       0.00       71.5       0.00       2.07        4.4
12:18              82        6.4         27       36.1      460.4       36.1       35.5       14.1     1014.6       36.1       22.4        0.0        0.0        0.0       0.00       71.7       0.00       2.07        4.4
12:20              54        4.8         27       36.2      460.4       36.2       35.7       14.2     1014.6       36.2       22.4        0.0        0.0        0.0       0.00       72.0       0.00       2.07        4.4
12:22              67       16.1         27       36.2      460.4       36.2       35.8       14.3     1014.6       36.2       22.4        0.0        0.0        0.0       0.00       72.2       0.00       2.07        4.4
12:24              70        1.6         27       36.3      460.4       36.3       35.9       14.3     1014.6       36.3       22.4        0.0        0.0        0.0       0.00       72.4       0.00       2.07        4.4
12:26              48        9.7         27       36.3      460.4       36.3       35.9       14.3     1014.5       36.3       22.4        0.0        0.0        0.0       0.00       72.6       0.00       2.07        4.4
12:28              69       16.1         27       36.3      460.4       36.3       35.9       14.4     1014.5       36.3       22.4        0.0        0.0        0.0       0.00       72.9       0.00       2.07        4.4
12:30              68       19.3         27       36.4      460.4       36.4       36.0       14.4     1014.5       36.4       22.4        0.0        0.0        0.0       0.00       73.2       0.00       2.07        4.4
12:32              56        9.7         27       36.5      460.4       36.5       36.2       14.5     1014.5       36.5       22.4        0.0        0.0        0.0       0.00       73.5       0.00       2.22        4.4
12:34              40       19.3         27       36.6      460.4       36.6       36.3       14.6     1014.4       36.6       22.4        0.0        0.0        0.0       0.00       73.7       0.00       2.22        4.4
12:36              51        8.0         27       36.6      460.4       36.6       36.3       14.6     1014.4       36.6       22.4        0.0        0.0        0.0       0.00       74.0       0.00       2.22        4.4
12:38              47        4.8         27       36.6      460.4       36.6       36.3       14.6     1014.4       36.7       22.4        0.0        0.0        0.0       0.00       74.1       0.00       2.22        4.4
12:40              47        3.2         26       36.6      460.4       36.6       36.1       14.0     1014.1       36.7       22.4        0.0        0.0        0.0       0.00       74.2       0.00       2.22        4.4
12:42              82       16.1         27       36.6      460.4       36.6       36.3       14.5     1014.2       36.7       22.4        0.0        0.0        0.0       0.00       74.4       0.00       2.22        4.4
12:44              93       14.5         26       36.7      460.4       36.7       36.2       14.1     1014.3       36.7       22.4        0.0        0.0        0.0       0.00       74.7       0.00       2.22        4.4
12:46              84        6.4         26       36.8      460.4       36.8       36.4       14.2     1014.1       36.8       22.4        0.0        0.0        0.0       0.00       75.0       0.00       2.38        4.4
12:48             107       12.9         26       36.9      460.4       36.9       36.6       14.3     1014.1       36.9       22.4        0.0        0.0        0.0       0.00       75.4       0.00       2.38        4.4
12:50              77        6.4         25       37.1      460.4       37.1       36.5       13.8     1014.2       37.1       22.4        0.0        0.0        0.0       0.00       75.5       0.00       2.38        4.4
12:52              82        8.0         26       37.2      460.4       37.2       37.0       14.5     1014.1       37.2       22.4        0.0        0.0        0.0       0.00       75.7       0.00       2.38        4.4
12:54              81        4.8         25       37.3      460.4       37.3       36.9       14.0     1014.1       37.3       22.4        0.0        0.0        0.0       0.00       75.8       0.00       2.38        4.4
12:56              70       16.1         26       37.4      460.4       37.4       37.3       14.7     1014.1       37.4       22.4        0.0        0.0        0.0       0.00       76.0       0.00       2.38        4.4
12:58              73       14.5         25       37.6      460.4       37.6       37.2       14.2     1014.1       37.6       22.4        0.0        0.0        0.0       0.00       76.3       0.00       2.38        4.4
13:00              84        6.4         25       37.7      460.4       37.7       37.4       14.3     1014.1       37.7       22.4        0.0        0.0        0.0       0.00       76.6       0.00       2.38        4.4
13:02              68        9.7         25       37.7      460.4       37.7       37.5       14.3     1014.0       37.7       22.4        0.0        0.0        0.0       0.00       76.8       0.00       2.54        4.4
13:04              76        4.8         25       37.8      460.4       37.8       37.7       14.4     1014.0       37.8       22.4        0.0        0.0        0.0       0.00       77.1       0.00       2.54        4.4
13:06              42        9.7         25       37.9      460.4       37.9       37.7       14.5     1014.1       37.9       22.4        0.0        0.0        0.0       0.00       77.2       0.00       2.54        4.4
13:08              41        6.4         25       37.9      460.4       37.9       37.7       14.5     1014.0       37.9       22.4        0.0        0.0        0.0       0.00       77.4       0.00       2.54        4.4
13:10              50        8.0         25       37.9      460.4       37.9       37.8       14.5     1014.0       37.9       22.4        0.0        0.0        0.0       0.00       77.7       0.00       2.54        4.4
13:12              52        6.4         25       37.9      460.4       37.9       37.8       14.5     1014.0       37.9       22.4        0.0        0.0        0.0       0.00       77.8       0.00       2.54        4.4
13:14              72       19.3         24       38.1      460.4       38.1       37.7       14.0     1014.0       38.1       22.4        0.0        0.0        0.0       0.00       78.1       0.00       2.54        4.4
13:16              66       14.5         24       38.1      460.4       38.1       37.8       14.0     1014.0       38.1       22.4        0.0        0.0        0.0       0.00       78.5       0.00       2.71        4.4
13:18              63        3.2         24       38.2      460.4       38.2       37.9       14.1     1014.0       38.2       22.4        0.0        0.0        0.0       0.00       78.7       0.00       2.71        4.4
13:20              71        3.2         24       38.2      460.4       38.2       37.9       14.1     1013.9       38.2       22.4        0.0        0.0        0.0       0.00       78.8       0.00       2.71        4.4
13:22              45        9.7         24       38.2      460.4       38.2       38.0       14.1     1014.0       38.3       22.4        0.0        0.0        0.0       0.00       79.0       0.00       2.71        4.4
13:24              46        8.0         24       38.2      460.4       38.2       38.0       14.1     1014.0       38.3       22.4        0.0        0.0        0.0       0.00       79.1       0.00       2.71        4.4
13:26              51        3.2         24       38.3      460.4       38.3       38.0       14.2     1013.9       38.3       22.4        0.0        0.0        0.0       0.00       79.2       0.00       2.71        4.4
13:28              34        8.0         25       38.3      460.4       38.3       38.4       14.9     1013.9       38.3       22.4        0.0        0.0        0.0       0.00       79.4       0.00       2.71        4.4
13:30              34        1.6         25       38.3      460.4       38.3       38.4       14.9     1013.8       38.3       22.4        0.0        0.0        0.0       0.00       79.5       0.00       2.71        4.4
13:32              33        6.4         24       38.3      460.4       38.3       38.0       14.2     1013.8       38.3       22.4        0.0        0.0        0.0       0.00       79.6       0.00       2.88        4.4
13:34              55       11.3         24       38.2      460.4       38.2       37.9       14.1     1013.8       38.3       22.4        0.0        0.0        0.0       0.00       79.8       0.00       2.88        4.4
13:36              67        4.8         24       38.2      460.4       38.2       37.9       14.1     1013.8       38.3       22.4        0.0        0.0        0.0       0.00       80.1       0.00       2.88        4.4
13:38              90       11.3         24       38.3      460.4       38.3       38.0       14.2     1013.7       38.3       22.4        0.0        0.0        0.0       0.00       80.4       0.00       2.88        4.4
13:40              90        1.6         24       38.4      460.4       38.4       38.2       14.3     1013.7       38.4       22.4        0.0        0.0        0.0       0.00       80.5       0.00       2.88        4.4
13:42              90        9.7         24       38.5      460.4       38.5       38.4       14.4     1013.7       38.5       22.4        0.0        0.0        0.0       0.00       80.6       0.00       2.88        4.4
13:44              88        4.8         24       38.7      460.4       38.7       38.6       14.5     1013.6       38.7       22.4        0.0        0.0        0.0       0.00       80.8       0.00       2.88        4.4
13:46              79        6.4         24       38.8      460.4       38.8       38.9       14.6     1013.6       38.8       22.4        0.0        0.0        0.0       0.00       80.9       0.00       3.05        4.4
13:48              39        9.7         23       38.9      460.4       38.9       38.7       14.1     1013.7       38.9       22.4        0.0        0.0        0.0       0.00       81.3       0.00       3.05        4.4
13:50              69        8.0         23       39.0      460.4       39.0       38.8       14.1     1013.6       39.0       22.4        0.0        0.0        0.0       0.00       81.6       0.00       3.05        4.4
13:52              67        8.0         23       39.0      460.4       39.0       38.8       14.1     1013.6       39.1       22.4        0.0        0.0        0.0       0.00       81.8       0.00       3.05        4.4
13:54              98        6.4         23       39.1      460.4       39.1       38.9       14.2     1013.6       39.1       22.4        0.0        0.0        0.0       0.00       82.0       0.00       3.05        4.4
13:56              98        3.2         23       39.1      460.4       39.1       39.0       14.2     1013.6       39.1       22.4        0.0        0.0        0.0       0.00       82.1       0.00       3.05        4.4
13:58              86        8.0         23       39.1      460.4       39.1       39.0       14.2     1013.6       39.2       22.4        0.0        0.0        0.0       0.00       82.2       0.00       3.05        4.4
14:00              38        3.2         23       39.1      460.4       39.1       38.9       14.2     1013.5       39.2       22.4        0.0        0.0        0.0       0.00       82.4       0.00       3.05        4.4
14:02              30        3.2         23       39.0      460.4       39.0       38.8       14.1     1013.5       39.2       22.4        0.0        0.0        0.0       0.00       82.5       0.00       3.23        4.4
14:04              67       14.5         23       38.9      460.4       38.9       38.7       14.0     1013.5       39.2       22.4        0.0        0.0        0.0       0.00       82.8       0.00       3.23        4.4
14:06              69        4.8         23       38.9      460.4       38.9       38.7       14.1     1013.5       39.2       22.4        0.0        0.0        0.0       0.00       82.9       0.00       3.23        4.4
14:08              68       14.5         23       39.0      460.4       39.0       38.8       14.1     1013.5       39.2       22.4        0.0        0.0        0.0       0.00       83.2       0.00       3.23        4.4
14:09              40       19.3         23       39.2      460.4       39.2       39.1       14.3     1013.5       39.2       22.4        0.0        0.0        0.0       0.00       83.6       0.00       3.23        4.4
14:12              34        4.8         23       39.1      460.4       39.1       39.0       14.2     1013.5       39.2       22.4        0.0        0.0        0.0       0.00       83.9       0.00       3.23        4.4
14:14              70       14.5         23       39.1      460.4       39.1       39.0       14.2     1013.4       39.2       22.4        0.0        0.0        0.0       0.00       84.2       0.00       3.23        4.4
14:16              40       14.5         23       39.2      460.4       39.2       39.1       14.3     1013.4       39.2       22.4        0.0        0.0        0.0       0.00       84.5       0.00       3.41        4.4
14:18              68        1.6         23       39.1      460.4       39.1       39.0       14.2     1013.2       39.2       22.4        0.0        0.0        0.0       0.00       84.8       0.00       3.41        4.4
14:20              65        6.4         23       39.2      460.4       39.2       39.1       14.3     1013.1       39.2       22.4        0.0        0.0        0.0       0.00       84.9       0.00       3.41        4.4
14:22              37        9.7         24       39.1      460.4       39.1       39.3       14.9     1013.1       39.2       22.4        0.0        0.0        0.0       0.00       85.1       0.00       3.41        4.4
14:24              53        9.7         23       39.1      460.4       39.1       38.9       14.2     1013.1       39.2       22.4        0.0        0.0        0.0       0.00       85.3       0.00       3.41        4.4
14:26              60       17.7         23       39.1      460.4       39.1       38.9       14.2     1013.1       39.2       22.4        0.0        0.0        0.0       0.00       85.7       0.00       3.41        4.4
14:28              42       14.5         22       39.1      460.4       39.1       38.6       13.5     1013.1       39.2       22.4        0.0        0.0        0.0       0.00       86.2       0.00       3.41        4.4
14:30              57        6.4         23       39.1      460.4       39.1       38.9       14.2     1013.1       39.2       22.4        0.0        0.0        0.0       0.00       86.5       0.00       3.41        4.4
14:32              40       11.3         23       39.0      460.4       39.0       38.8       14.1     1013.1       39.2       22.4        0.0        0.0        0.0       0.00       86.8       0.00       3.58        4.4
14:34              67       12.9         23       39.0      460.4       39.0       38.8       14.1     1013.1       39.2       22.4        0.0        0.0        0.0       0.00       87.1       0.00       3.58        4.4
14:36              61       12.9         22       39.1      460.4       39.1       38.7       13.5     1013.1       39.2       22.4        0.0        0.0        0.0       0.00       87.4       0.00       3.58        4.4
14:38              25       12.9         22       39.2      460.4       39.2       38.9       13.6     1013.0       39.2       22.4        0.0        0.0        0.0       0.00       87.7       0.00       3.58        4.4
14:40             338        9.7         23       39.2      460.4       39.2       39.1       14.3     1013.0       39.2       22.4        0.0        0.0        0.0       0.00       87.9       0.00       3.58        4.4
14:42             338        6.4         23       38.9      460.4       38.9       38.7       14.1     1013.0       39.2       22.4        0.0        0.0        0.0       0.00       88.1       0.00       3.58        4.4
14:44             340        8.0         23       38.8      460.4       38.8       38.6       14.0     1012.9       39.2       22.4        0.0        0.0        0.0       0.00       88.2       0.00       3.58        4.4
14:46             342        0.0         23       38.8      460.4       38.8       38.5       13.9     1013.0       39.2       22.4        0.0        0.0        0.0       0.00       88.3       0.00       3.76        4.4
14:48             342        3.2         24       38.8      460.4       38.8       38.9       14.6     1013.0       39.2       22.4        0.0        0.0        0.0       0.00       88.3       0.00       3.76        4.4
14:50              17       12.9         23       38.9      460.4       38.9       38.7       14.0     1012.9       39.2       22.4        0.0        0.0        0.0       0.00       88.4       0.00       3.76        4.4
14:52              38       16.1         24       38.9      460.4       38.9       39.0       14.7     1012.9       39.2       22.4        0.0        0.0        0.0       0.00       88.7       0.00       3.76        4.4
14:54              27       16.1         23       38.9      460.4       38.9       38.7       14.0     1012.9       39.2       22.4        0.0        0.0        0.0       0.00       89.0       0.00       3.76        4.4
14:56              28        8.0         24       38.9      460.4       38.9       39.0       14.7     1012.8       39.2       22.4        0.0        0.0        0.0       0.00       89.1       0.00       3.76        4.4
14:58              26        6.4         24       39.0      460.4       39.0       39.1       14.8     1012.9       39.2       22.4        0.0        0.0        0.0       0.00       89.2       0.00       3.76        4.4
15:00              26        6.4         24       39.1      460.4       39.1       39.2       14.8     1012.8       39.2       22.4        0.0        0.0        0.0       0.00       89.4       0.00       3.76        4.4
15:02               9       11.3         24       39.1      460.4       39.1       39.3       14.9     1012.8       39.2       22.4        0.0        0.0        0.0       0.00       89.5       0.00       3.94        4.4
15:04               5        9.7         24       39.1      460.4       39.1       39.3       14.9     1012.8       39.2       22.4        0.0        0.0        0.0       0.00       89.7       0.00       3.94        4.4
15:06               9        3.2         25       39.1      460.4       39.1       39.5       15.5     1012.8       39.2       22.4        0.0        0.0        0.0       0.00       89.8       0.00       3.94        4.4
15:08               9        1.6         24       39.1      460.4       39.1       39.3       14.9     1012.8       39.2       22.4        0.0        0.0        0.0       0.00       89.9       0.00       3.94        4.4
15:10               9        0.0         24       39.1      460.4       39.1       39.3       14.9     1012.8       39.2       22.4        0.0        0.0        0.0       0.00       89.9       0.00       3.94        4.4
15:12               9        6.4         24       39.2      460.4       39.2       39.5       15.0     1012.8       39.2       22.4        0.0        0.0        0.0       0.00       90.0       0.00       3.94        4.4
15:14             341        8.0         24       39.2      460.4       39.2       39.5       15.0     1012.8       39.3       22.4        0.0        0.0        0.0       0.00       90.2       0.00       3.94        4.4
15:16              39        6.4         23       39.2      460.4       39.2       39.1       14.3     1012.8       39.3       22.4        0.0        0.0        0.0       0.00       90.4       0.00       4.12        4.4
15:18              65        4.8         23       39.2      460.4       39.2       39.2       14.3     1012.9       39.3       22.4        0.0        0.0        0.0       0.00       90.7       0.00       4.12        4.4
15:20              71       16.1         25       39.4      460.4       39.4       40.1       15.7     1012.9       39.4       22.4        0.0        0.0        0.0       0.00       91.0       0.00       4.12        4.4
15:22             215       20.9         28       39.5      460.4       39.5       41.4       17.6     1012.5       39.5       22.4        0.0        0.0        0.0       0.00       91.5       0.00       4.12        4.4
15:24             259       17.7         28       39.2      460.4       39.2       40.9       17.4     1012.9       39.5       22.4        0.0        0.0        0.0       0.00       92.1       0.00       4.12        4.4
15:26             221       37.0         30       38.5      460.4       38.5       40.3       17.9     1012.9       39.5       22.4        0.0        0.0        0.0       0.00       92.9       0.00       4.12        4.4
15:28             217       25.7         31       37.7      460.4       37.7       39.3       17.7     1012.9       39.5       22.4        0.0        0.0        0.0       0.00       93.6       0.00       4.12        4.4
15:30             257       25.7         31       37.1      460.4       37.1       38.1       17.1     1013.0       39.5       22.4        0.0        0.0        0.0       0.00       94.2       0.00       4.12        4.4
15:31             266       20.9         31       36.6      460.4       36.6       37.4       16.8     1013.0       39.5       22.4        0.0        0.0        0.0       0.00       94.8       0.00       4.27        4.4
15:34             250       25.7         33       36.1      460.4       36.1       37.1       17.3     1013.0       39.5       22.4        0.0        0.0        0.0       0.00       95.3       0.00       4.27        4.4
15:36             221       22.5         34       35.8      460.4       35.8       36.9       17.5     1013.0       39.5       22.4        0.0        0.0        0.0       0.00       96.0       0.00       4.27        4.4
15:38             209       19.3         34       35.6      460.4       35.6       36.5       17.3     1013.1       39.5       22.4        0.0        0.0        0.0       0.00       96.5       0.00       4.27        4.4
15:40             229       16.1         34       35.4      460.4       35.4       36.3       17.2     1013.0       39.5       22.4        0.0        0.0        0.0       0.00       97.0       0.00       4.27        4.4
15:42             238       22.5         35       35.4      460.4       35.4       36.5       17.6     1013.1       39.5       22.4        0.0        0.0        0.0       0.00       97.6       0.00       4.27        4.4
15:44             234       19.3         35       35.3      460.4       35.3       36.3       17.5     1013.0       39.5       22.4        0.0        0.0        0.0       0.00       98.1       0.00       4.27        4.4
15:46             218       22.5         36       35.2      460.4       35.2       36.5       17.9     1013.0       39.5       22.4        0.0        0.0        0.0       0.00       98.5       0.00       4.41        4.4
15:48             224       22.5         36       35.2      460.4       35.2       36.4       17.9     1013.0       39.5       22.4        0.0        0.0        0.0       0.00       99.0       0.00       4.41        4.4
15:50             218       20.9         36       35.2      460.4       35.2       36.5       17.9     1012.8       39.5       22.4        0.0        0.0        0.0       0.00       99.5       0.00       4.41        4.4
15:52             245       19.3         37       35.2      460.4       35.2       36.7       18.3     1012.8       39.5       22.4        0.0        0.0        0.0       0.00      100.0       0.00       4.41        4.4
15:54             247       16.1         36       35.2      460.4       35.2       36.5       17.9     1012.7       39.5       22.4        0.0        0.0        0.0       0.00      100.5       0.00       4.41        4.4
15:56             246       16.1         36       35.2      460.4       35.2       36.4       17.9     1013.0       39.5       22.4        0.0        0.0        0.0       0.00      101.0       0.00       4.41        4.4
15:58             217       25.7         36       35.1      460.4       35.1       36.3       17.8     1013.0       39.5       22.4        0.0        0.0        0.0       0.00      101.5       0.00       4.41        4.4
16:00             242       27.4         36       35.1      460.4       35.1       36.2       17.8     1013.1       39.5       22.4        0.0        0.0        0.0       0.00      102.2       0.00       4.41        4.4
16:02             227       27.4         36       35.0      460.4       35.0       36.1       17.7     1013.0       39.5       22.4        0.0        0.0        0.0       0.00      102.8       0.00       4.55        4.4
16:04             204       27.4         36       34.9      460.4       34.9       36.0       17.7     1012.9       39.5       22.4        0.0        0.0        0.0       0.00      103.4       0.00       4.55        4.4
16:06             224       19.3         36       34.9      460.4       34.9       35.9       17.6     1013.0       39.5       22.4        0.0        0.0        0.0       0.00      104.1       0.00       4.55        4.4
16:08             241       29.0         36       34.8      460.4       34.8       35.8       17.6     1012.9       39.5       22.4        0.0        0.0        0.0       0.00      104.6       0.00       4.55        4.4
16:10             243       29.0         36       34.7      460.4       34.7       35.6       17.5     1013.0       39.5       22.4        0.0        0.0        0.0       0.00      105.1       0.00       4.55        4.4
16:12             216       17.7         37       34.6      460.4       34.6       35.6       17.8     1012.8       39.5       22.4        0.0        0.0        0.0       0.00      105.6       0.00       4.55        4.4
16:14             246       20.9         37       34.4      460.4       34.4       35.4       17.7     1012.9       39.5       22.4        0.0        0.0        0.0       0.00      106.3       0.00       4.55        4.4
16:16             250       25.7         37       34.3      460.4       34.3       35.2       17.6     1012.8       39.5       22.4        0.0        0.0        0.0       0.00      106.8       0.00       4.68        4.4
16:18             260       16.1         38       34.1      460.4       34.1       35.1       17.8     1012.9       39.5       22.4        0.0        0.0        0.0       0.00      107.3       0.00       4.68        4.4
16:20             256       17.7         38       34.0      460.4       34.0       34.9       17.7     1012.9       39.5       22.4        0.0        0.0        0.0       0.00      107.8       0.00       4.68        4.4
16:22             257       19.3         37       33.9      460.4       33.9       34.6       17.2     1012.9       39.5       22.4        0.0        0.0        0.0       0.00      108.3       0.00       4.68        4.4
16:24             240       20.9         37       33.9      460.4       33.9       34.5       17.2     1012.9       39.5       22.4        0.0        0.0        0.0       0.00      108.8       0.00       4.68        4.4
16:26             248       19.3         38       33.9      460.4       33.9       34.8       17.6     1013.0       39.5       22.4        0.0        0.0        0.0       0.00      109.3       0.00       4.68        4.4
16:28             273       20.9         37       33.9      460.4       33.9       34.5       17.2     1013.0       39.5       22.4        0.0        0.0        0.0       0.00      109.8       0.00       4.68        4.4
16:30             261       27.4         37       33.8      460.4       33.8       34.4       17.1     1013.0       39.5       22.4        0.0        0.0        0.0       0.00      110.3       0.00       4.68        4.4
16:32             254       24.1         37       33.7      460.4       33.7       34.3       17.0     1013.1       39.5       22.4        0.0        0.0        0.0       0.00      110.8       0.00       4.80        4.4
16:34             268       19.3         36       33.7      460.4       33.7       34.0       16.6     1013.1       39.5       22.4        0.0        0.0        0.0       0.00      111.4       0.00       4.80        4.4
16:36             272       25.7         37       33.6      460.4       33.6       34.1       16.9     1013.1       39.5       22.4        0.0        0.0        0.0       0.00      112.0       0.00       4.80        4.4
16:38             217       17.7         37       33.6      460.4       33.6       34.0       16.9     1013.1       39.5       22.4        0.0        0.0        0.0       0.00      112.6       0.00       4.80        4.4
16:40             259       16.1         37       33.6      460.4       33.6       34.1       16.9     1013.1       39.5       22.4        0.0        0.0        0.0       0.00      113.0       0.00       4.80        4.4
16:42             246       24.1         37       33.7      460.4       33.7       34.2       17.0     1013.1       39.5       22.4        0.0        0.0        0.0       0.00      113.5       0.00       4.80        4.4
16:44             246       12.9         37       33.7      460.4       33.7       34.2       17.0     1013.0       39.5       22.4        0.0        0.0        0.0       0.00      114.1       0.00       4.80        4.4
16:46             221       20.9         37       33.7      460.4       33.7       34.2       17.0     1013.1       39.5       22.4        0.0        0.0        0.0       0.00      114.5       0.00       4.92        4.4
16:48             246       29.0         38       33.7      460.4       33.7       34.4       17.4     1013.1       39.5       22.4        0.0        0.0        0.0       0.00      115.1       0.00       4.92        4.4
16:50             270       29.0         37       33.6      460.4       33.6       34.0       16.9     1013.0       39.5       22.4        0.0        0.0        0.0       0.00      115.7       0.00       4.92        4.4
16:52             235       24.1         37       33.4      460.4       33.4       33.8       16.7     1013.1       39.5       22.4        0.0        0.0        0.0       0.00      116.2       0.00       4.92        4.4
16:54             250       24.1         37       33.2      460.4       33.2       33.5       16.6     1013.2       39.5       22.4        0.0        0.0        0.0       0.00      116.9       0.00       4.92        4.4
16:56             250       20.9         38       33.0      460.4       33.0       33.4       16.8     1013.1       39.5       22.4        0.0        0.0        0.0       0.00      117.5       0.00       4.92        4.4
16:58             242       22.5         38       32.9      460.4       32.9       33.2       16.7     1013.1       39.5       22.4        0.0        0.0        0.0       0.00      118.1       0.00       4.92        4.4
17:00             246       24.1         39       32.8      460.4       32.8       33.3       17.1     1013.1       39.5       22.4        0.0        0.0        0.0       0.00      118.6       0.00       4.92        4.4
17:02             268       32.2         39       32.7      460.4       32.6       33.1       17.0     1013.2       39.5       22.4        0.0        0.0        0.0       0.00      119.4       0.00       5.03        4.4
17:04             270       22.5         39       32.5      460.4       32.4       32.8       16.8     1013.2       39.5       22.4        0.0        0.0        0.0       0.00      120.1       0.00       5.03        4.4
17:05             252       22.5         40       32.3      460.4       32.2       32.7       17.0     1013.2       39.5       22.4        0.0        0.0        0.0       0.00      120.9       0.00       5.03        4.4
17:08             233       27.4         41       32.1      460.4       31.8       32.5       17.2     1013.1       39.5       22.4        0.0        0.0        0.0       0.00      121.6       0.00       5.03        4.4
17:10             248       16.1         41       31.8      460.4       31.6       32.2       17.0     1013.1       39.5       22.4        0.0        0.0        0.0       0.00      122.2       0.00       5.03        4.4
17:12             285       35.4         41       31.7      460.4       31.4       32.1       16.9     1013.2       39.5       22.4        0.0        0.0        0.0       0.00      122.9       0.00       5.03        4.4
17:14             231       24.1         42       31.6      460.4       31.4       32.0       17.1     1013.2       39.5       22.4        0.0        0.0        0.0       0.00      123.5       0.00       5.03        4.4
17:16             234       24.1         42       31.5      460.4       31.1       31.9       17.0     1013.2       39.5       22.4        0.0        0.0        0.0       0.00      124.1       0.00       5.13        4.4
17:18             227       25.7         42       31.4      460.4       30.8       31.8       16.9     1013.3       39.5       22.4        0.0        0.0        0.0       0.00      124.7       0.00       5.13        4.4
17:20             227       25.7         42       31.3      460.4       31.1       31.6       16.8     1013.3       39.5       22.4        0.0        0.0        0.0       0.00      125.3       0.00       5.13        4.4
17:22             260       20.9         42       31.2      460.4       30.9       31.4       16.7     1013.4       39.5       22.4        0.0        0.0        0.0       0.00      125.9       0.00       5.13        4.4
17:24             225       22.5         42       31.1      460.4       30.8       31.4       16.7     1013.3       39.5       22.4        0.0        0.0        0.0       0.00      126.5       0.00       5.13        4.4
17:26             218       24.1         43       31.1      460.4       30.7       31.4       17.0     1013.3       39.5       22.4        0.0        0.0        0.0       0.00      127.1       0.00       5.13        4.4
17:28             245       29.0         43       30.9      460.4       30.2       31.3       16.9     1013.4       39.5       22.4        0.0        0.0        0.0       0.00      127.8       0.00       5.13        4.4
17:30             246       19.3         44       30.7      460.4       30.4       31.1       17.1     1013.5       39.5       22.4        0.0        0.0        0.0       0.00      128.4       0.00       5.13        4.4
17:32             251       24.1         45       30.5      460.4       29.8       31.0       17.2     1013.5       39.5       22.4        0.0        0.0        0.0       0.00      128.9       0.00       5.22        4.4
17:34             247       32.2         45       30.3      460.4       29.7       30.8       17.1     1013.5       39.5       22.4        0.0        0.0        0.0       0.00      129.6       0.00       5.22        4.4
17:36             236       25.7         47       30.1      460.4       29.3       30.7       17.6     1013.5       39.5       22.4        0.0        0.0        0.0       0.00      130.3       0.00       5.22        4.4
17:38             254       24.1         47       30.1      460.4       29.3       30.7       17.5     1013.5       39.5       22.4        0.0        0.0        0.0       0.00      131.0       0.00       5.22        4.4
17:40             248       32.2         48       29.9      460.4       29.1       30.6       17.7     1013.5       39.5       22.4        0.0        0.0        0.0       0.00      131.5       0.00       5.22        4.4
17:42             236       14.5         47       29.9      460.4       29.3       30.4       17.4     1013.5       39.5       22.4        0.0        0.0        0.0       0.00      132.0       0.00       5.22        4.4
17:44             249       16.1         47       29.9      460.4       29.9       30.4       17.4     1013.5       39.5       22.4        0.0        0.0        0.0       0.00      132.5       0.00       5.22        4.4
17:45             243       22.5         47       29.8      460.4       28.9       30.3       17.3     1013.4       39.5       22.4        0.0        0.0        0.0       0.00      133.0       0.00       5.31        4.4
17:48             226       19.3         48       29.7      460.4       29.1       30.3       17.5     1013.5       39.5       22.4        0.0        0.0        0.0       0.00      133.5       0.00       5.31        4.4
17:50             234       22.5         46       29.5      460.4       28.6       29.8       16.7     1013.5       39.5       22.4        0.0        0.0        0.0       0.00      134.2       0.00       5.31        4.4
17:52             225       16.1         46       29.3      460.4       28.7       29.6       16.5     1013.5       39.5       22.4        0.0        0.0        0.0       0.00      134.7       0.00       5.31        4.4
17:54             234       22.5         47       29.2      460.4       28.5       29.6       16.8     1013.6       39.5       22.4        0.0        0.0        0.0       0.00      135.2       0.00       5.31        4.4
17:56             253       20.9         47       29.1      460.4       28.4       29.4       16.6     1013.6       39.5       22.4        0.0        0.0        0.0       0.00      135.7       0.00       5.31        4.4
17:58             261       25.7         48       28.9      460.4       27.7       29.3       16.8     1013.6       39.5       22.4        0.0        0.0        0.0       0.00      136.3       0.00       5.31        4.4
18:00             240       27.4         48       28.7      460.4       27.1       29.1       16.6     1013.6       39.5       22.4        0.0        0.0        0.0       0.00      136.8       0.00       5.31        4.4
18:02             243        8.0         48       28.6      460.4       28.4       29.0       16.5     1013.6       39.5       22.4        0.0        0.0        0.0       0.00      137.1       0.00       5.38        4.4
18:04             248       24.1         48       28.6      460.4       27.2       29.0       16.5     1013.6       39.5       22.4        0.0        0.0        0.0       0.00      137.5       0.00       5.38        4.4
18:06             231       20.9         49       28.6      460.4       27.4       29.0       16.8     1013.7       39.5       22.4        0.0        0.0        0.0       0.00      138.1       0.00       5.38        4.4
18:08             277       19.3         49       28.5      460.4       27.3       28.9       16.8     1013.7       39.5       22.4        0.0        0.0        0.0       0.00      138.6       0.00       5.38        4.4
18:10             217       14.5         49       28.4      460.4       27.8       28.8       16.7     1013.7       39.5       22.4        0.0        0.0        0.0       0.00      139.0       0.00       5.38        4.4
18:12             240       19.3         49       28.3      460.4       27.4       28.7       16.6     1013.7       39.5       22.4        0.0        0.0        0.0       0.00      139.5       0.00       5.38        4.4
18:14             248       14.5         49       28.3      460.4       27.5       28.7       16.6     1013.7       39.5       22.4        0.0        0.0        0.0       0.00      140.0       0.00       5.38        4.4
18:16             248       24.1         50       28.2      460.4       26.7       28.6       16.8     1013.8       39.5       22.4        0.0        0.0        0.0       0.00      140.6       0.00       5.44        4.4
18:18             272       24.1         50       28.1      460.4       27.2       28.5       16.7     1013.7       39.5       22.4        0.0        0.0        0.0       0.00      141.3       0.00       5.44        4.4
18:20             252       27.4         51       27.9      460.4       26.2       28.4       16.8     1013.8       39.5       22.4        0.0        0.0        0.0       0.00      141.9       0.00       5.44        4.4
18:22             202       24.1         51       27.7      460.4       27.4       28.2       16.7     1013.7       39.5       22.4        0.0        0.0        0.0       0.00      142.4       0.00       5.44        4.4
18:24             254       11.3         52       27.6      460.4       27.3       28.2       16.9     1013.7       39.5       22.4        0.0        0.0        0.0       0.00      142.9       0.00       5.44        4.4
18:26             271       30.6         52       27.6      460.4       26.1       28.1       16.8     1013.7       39.5       22.4        0.0        0.0        0.0       0.00      143.5       0.00       5.44        4.4
18:28             259       19.3         52       27.4      460.4       26.1       27.9       16.7     1013.7       39.5       22.4        0.0        0.0        0.0       0.00      144.1       0.00       5.44        4.4
18:29             243       24.1         52       27.3      460.4       25.7       27.8       16.6     1013.8       39.5       22.4        0.0        0.0        0.0       0.00      144.6       0.00       5.44        4.4
18:32             245       22.5         52       27.2      460.4       25.7       27.7       16.5     1013.8       39.5       22.4        0.0        0.0        0.0       0.00      145.3       0.00       5.49        4.4
18:34             238       16.1         53       27.1      460.4       25.6       27.7       16.7     1013.8       39.5       22.4        0.0        0.0        0.0       0.00      145.8       0.00       5.49        4.4
18:36             267       19.3         53       27.0      460.4       26.4       27.6       16.6     1013.9       39.5       22.4        0.0        0.0        0.0       0.00      146.4       0.00       5.49        4.4
18:38             226       14.5         53       26.9      460.4       26.4       27.5       16.6     1013.9       39.5       22.4        0.0        0.0        0.0       0.00      146.8       0.00       5.49        4.4
18:39             227       17.7         53       26.9      460.4       26.4       27.5       16.6     1013.9       39.5       22.4        0.0        0.0        0.0       0.00      147.2       0.00       5.49        4.4
18:42             239       20.9         54       26.9      460.4       25.1       27.6       16.9     1014.0       39.5       22.4        0.0        0.0        0.0       0.00      147.8       0.00       5.49        4.4
18:44             257       17.7         54       26.9      460.4       25.9       27.6       16.8     1014.0       39.5       22.4        0.0        0.0        0.0       0.00      148.3       0.00       5.49        4.4
18:46             258       24.1         54       26.8      460.4       24.9       27.5       16.8     1013.9       39.5       22.4        0.0        0.0        0.0       0.00      148.9       0.00       5.55        4.4
18:48             252       24.1         55       26.7      460.4       25.6       27.4       16.9     1014.0       39.5       22.4        0.0        0.0        0.0       0.00      149.6       0.00       5.55        4.4
18:50             259       22.5         55       26.6      460.4       24.9       27.3       16.8     1014.0       39.5       22.4        0.0        0.0        0.0       0.00      150.1       0.00       5.55        4.4
18:52             273       22.5         55       26.4      460.4       25.4       27.2       16.7     1014.0       39.5       22.4        0.0        0.0        0.0       0.00      150.7       0.00       5.55        4.4
18:54             254       16.1         56       26.3      460.4       24.7       27.1       16.9     1013.9       39.5       22.4        0.0        0.0        0.0       0.00      151.3       0.00       5.55        4.4
18:56             270       22.5         56       26.3      460.4       24.4       27.1       16.8     1014.0       39.5       22.4        0.0        0.0        0.0       0.00      151.8       0.00       5.55        4.4
18:58             261       17.7         56       26.2      460.4       26.2       27.0       16.8     1013.9       39.5       22.4        0.0        0.0        0.0       0.00      152.3       0.00       5.55        4.4
19:00             275       17.7         56       26.2      460.4       24.4       26.9       16.7     1014.0       39.5       22.4        0.0        0.0        0.0       0.00      152.7       0.00       5.55        4.4
19:02             262       17.7         56       26.1      460.4       26.1       26.9       16.7     1014.0       39.5       22.4        0.0        0.0        0.0       0.00      153.3       0.00       5.59        4.4
19:04             276       20.9         56       26.1      460.4       24.6       26.8       16.6     1014.1       39.5       22.4        0.0        0.0        0.0       0.00      153.7       0.00       5.59        4.4
19:06             242       20.9         57       25.9      460.4       23.8       26.8       16.8     1014.1       39.5       22.4        0.0        0.0        0.0       0.00      154.1       0.00       5.59        4.4
19:08             248       17.7         57       25.9      460.4       24.2       26.7       16.7     1014.2       39.5       22.4        0.0        0.0        0.0       0.00      154.7       0.00       5.59        4.4
19:10             271       19.3         57       25.8      460.4       23.8       26.7       16.7     1014.2       39.5       22.4        0.0        0.0        0.0       0.00      155.3       0.00       5.59        4.4
19:12             267       16.1         57       25.8      460.4       25.1       26.6       16.6     1014.2       39.5       22.4        0.0        0.0        0.0       0.00      155.8       0.00       5.59        4.4
19:14             236       20.9         57       25.7      460.4       24.2       26.6       16.6     1014.2       39.5       22.4        0.0        0.0        0.0       0.00      156.2       0.00       5.59        4.4
19:16             259       19.3         57       25.7      460.4       24.4       26.5       16.5     1014.2       39.5       22.4        0.0        0.0        0.0       0.00      156.7       0.00       5.63        4.4
19:18             246       20.9         58       25.6      460.4       23.4       26.5       16.7     1014.2       39.5       22.4        0.0        0.0        0.0       0.00      157.2       0.00       5.63        4.4
19:20             274       11.3         58       25.6      460.4       24.7       26.5       16.7     1014.2       39.5       22.4        0.0        0.0        0.0       0.00      157.6       0.00       5.63        4.4
19:22             246       14.5         58       25.6      460.4       25.6       26.4       16.7     1014.2       39.5       22.4        0.0        0.0        0.0       0.00      158.1       0.00       5.63        4.4
19:24             242       27.4         58       25.5      460.4       23.4       26.4       16.6     1014.2       39.5       22.4        0.0        0.0        0.0       0.00      158.7       0.00       5.63        4.4
19:26             251       19.3         58       25.4      460.4       23.9       26.3       16.6     1014.3       39.5       22.4        0.0        0.0        0.0       0.00      159.3       0.00       5.63        4.4
19:28             263       24.1         58       25.4      460.4       23.4       26.3       16.5     1014.3       39.5       22.4        0.0        0.0        0.0       0.00      159.8       0.00       5.63        4.4
19:30             254       22.5         58       25.3      460.4       23.4       26.2       16.5     1014.3       39.5       22.4        0.0        0.0        0.0       0.00      160.5       0.00       5.63        4.4
19:32             250       12.9         58       25.2      460.4       25.2       26.1       16.4     1014.4       39.5       22.4        0.0        0.0        0.0       0.00      160.9       0.00       5.66        4.4
19:34             238       17.7         59       25.2      460.4       24.4       26.1       16.6     1014.4       39.5       22.4        0.0        0.0        0.0       0.00      161.3       0.00       5.66        4.4
19:36             264       25.7         59       25.2      460.4       23.9       26.1       16.6     1014.5       39.5       22.4        0.0        0.0        0.0       0.00      161.7       0.00       5.66        4.4
19:38             257       14.5         59       25.2      460.4       25.2       26.1       16.6     1014.5       39.5       22.4        0.0        0.0        0.0       0.00      162.1       0.00       5.66        4.4
19:40             238       20.9         59       25.2      460.4       23.3       26.1       16.6     1014.6       39.5       22.4        0.0        0.0        0.0       0.00      162.5       0.00       5.66        4.4
19:42             257       19.3         59       25.1      460.4       22.9       26.1       16.5     1014.6       39.5       22.4        0.0        0.0        0.0       0.00      163.0       0.00       5.66        4.4
19:44             252       16.1         59       25.1      460.4       24.6       26.0       16.5     1014.6       39.5       22.4        0.0        0.0        0.0       0.00      163.6       0.00       5.66        4.4
19:46             242       20.9         59       25.0      460.4       23.4       25.9       16.4     1014.6       39.5       22.4        0.0        0.0        0.0       0.00      164.1       0.00       5.69        4.4
19:48             246       16.1         60       24.9      460.4       23.3       25.9       16.7     1014.7       39.5       22.4        0.0        0.0        0.0       0.00      164.6       0.00       5.69        4.4
19:50             264       20.9         60       24.9      460.4       22.5       25.9       16.6     1014.7       39.5       22.4        0.0        0.0        0.0       0.00      165.1       0.00       5.69        4.4
19:52             261       16.1         60       24.9      460.4       23.5       25.9       16.6     1014.7       39.5       22.4        0.0        0.0        0.0       0.00      165.6       0.00       5.69        4.4
19:54             271       22.5         60       24.8      460.4       23.8       25.8       16.5     1014.7       39.5       22.4        0.0        0.0        0.0       0.00      166.1       0.00       5.69        4.4
19:56             244       24.1         60       24.8      460.4       22.1       25.8       16.5     1014.7       39.5       22.4        0.0        0.0        0.0       0.00      166.6       0.00       5.69        4.4
19:58             258       17.7         60       24.8      460.4       22.7       25.8       16.5     1014.8       39.5       22.4        0.0        0.0        0.0       0.00      167.1       0.00       5.69        4.4
20:00             230       16.1         60       24.8      460.4       23.1       25.8       16.5     1014.9       39.5       22.4        0.0        0.0        0.0       0.00      167.5       0.00       5.69        4.4
20:02             265       19.3         60       24.8      460.4       22.5       25.8       16.5     1014.9       39.5       22.4        0.0        0.0        0.0       0.00      168.0       0.00       5.72        4.4
20:04             276       14.5         60       24.7      460.4       23.3       25.7       16.4     1014.9       39.5       22.4        0.0        0.0        0.0       0.00      168.6       0.00       5.72        4.4
20:06             257       17.7         61       24.7      460.4       23.3       25.8       16.7     1015.0       39.5       22.4        0.0        0.0        0.0       0.00      169.0       0.00       5.72        4.4
20:08             272       19.3         61       24.7      460.4       23.3       25.7       16.7     1015.0       39.5       22.4        0.0        0.0        0.0       0.00      169.6       0.00       5.72        4.4
20:10             248       14.5         61       24.7      460.4       23.3       25.7       16.7     1015.0       39.5       22.4        0.0        0.0        0.0       0.00      169.9       0.00       5.72        4.4
20:12             239       22.5         61       24.7      460.4       22.2       25.7       16.7     1015.1       39.5       22.4        0.0        0.0        0.0       0.00      170.4       0.00       5.72        4.4
20:14             257       14.5         61       24.6      460.4       23.2       25.7       16.6     1015.2       39.5       22.4        0.0        0.0        0.0       0.00      170.9       0.00       5.72        4.4
20:16             269       14.5         61       24.6      460.4       24.6       25.7       16.6     1015.1       39.5       22.4        0.0        0.0        0.0       0.00      171.3       0.00       5.75        4.4
20:18             268       20.9         61       24.6      460.4       24.6       25.6       16.5     1015.1       39.5       22.4        0.0        0.0        0.0       0.00      171.8       0.00       5.75        4.4
20:20             272       20.9         61       24.6      460.4       23.5       25.6       16.5     1015.1       39.5       22.4        0.0        0.0        0.0       0.00      172.2       0.00       5.75        4.4
20:22             254       16.1         61       24.5      460.4       24.5       25.6       16.5     1015.0       39.5       22.4        0.0        0.0        0.0       0.00      172.6       0.00       5.75        4.4
20:23             270       19.3         61       24.5      460.4       22.3       25.6       16.5     1015.0       39.5       22.4        0.0        0.0        0.0       0.00      173.0       0.00       5.75        4.4
20:26             266       16.1         61       24.5      460.4       23.4       25.6       16.5     1015.0       39.5       22.4        0.0        0.0        0.0       0.00      173.4       0.00       5.75        4.4
20:28             270        4.8         61       24.5      460.4       24.5       25.6       16.5     1015.0       39.5       22.4        0.0        0.0        0.0       0.00      173.8       0.00       5.75        4.4
20:30             266       17.7         61       24.5      460.4       23.4       25.6       16.5     1015.1       39.5       22.4        0.0        0.0        0.0       0.00      174.1       0.00       5.75        4.4
20:32             250        8.0         61       24.5      460.4       24.0       25.6       16.5     1015.2       39.5       22.4        0.0        0.0        0.0       0.00      174.5       0.00       5.78        4.4
20:34             288       16.1         61       24.5      460.4       24.0       25.6       16.5     1015.2       39.5       22.4        0.0        0.0        0.0       0.00      174.9       0.00       5.78        4.4
20:36             252       19.3         61       24.5      460.4       22.3       25.6       16.5     1015.3       39.5       22.4        0.0        0.0        0.0       0.00      175.2       0.00       5.78        4.4
20:38             257       14.5         61       24.4      460.4       23.3       25.5       16.4     1015.3       39.5       22.4        0.0        0.0        0.0       0.00      175.5       0.00       5.78        4.4
20:40             274       12.9         61       24.4      460.4       23.0       25.5       16.4     1015.3       39.5       22.4        0.0        0.0        0.0       0.00      176.0       0.00       5.78        4.4
20:42             270       19.3         61       24.4      460.4       22.3       25.5       16.4     1015.2       39.5       22.4        0.0        0.0        0.0       0.00      176.4       0.00       5.78        4.4
20:44             273       11.3         61       24.4      460.4       23.6       25.5       16.4     1015.3       39.5       22.4        0.0        0.0        0.0       0.00      176.9       0.00       5.78        4.4
20:46             259       17.7         61       24.3      460.4       22.6       25.4       16.3     1015.3       39.5       22.4        0.0        0.0        0.0       0.00      177.3       0.00       5.80        4.4
20:48             263       14.5         61       24.3      460.4       22.9       25.4       16.3     1015.3       39.5       22.4        0.0        0.0        0.0       0.00      177.6       0.00       5.80        4.4
20:50             285       14.5         61       24.3      460.4       23.5       25.4       16.3     1015.2       39.5       22.4        0.0        0.0        0.0       0.00      178.1       0.00       5.80        4.4
20:52             264       16.1         61       24.3      460.4       24.3       25.4       16.3     1015.4       39.5       22.4        0.0        0.0        0.0       0.00      178.5       0.00       5.80        4.4
20:54             272        9.7         61       24.3      460.4       23.5       25.3       16.3     1015.4       39.5       22.4        0.0        0.0        0.0       0.00      178.8       0.00       5.80        4.4
20:56             267       14.5         61       24.3      460.4       22.8       25.3       16.3     1015.5       39.5       22.4        0.0        0.0        0.0       0.00      179.2       0.00       5.80        4.4
20:58             284       20.9         61       24.3      460.4       21.7       25.3       16.3     1015.5       39.5       22.4        0.0        0.0        0.0       0.00      179.7       0.00       5.80        4.4
21:00             260       12.9         61       24.3      460.4       22.8       25.3       16.3     1015.5       39.5       22.4        0.0        0.0        0.0       0.00      180.1       0.00       5.80        4.4
21:02             263       19.3         61       24.2      460.4       22.1       25.3       16.2     1015.5       39.5       22.4        0.0        0.0        0.0       0.00      180.5       0.00       5.82        4.4
21:04             267       14.5         61       24.2      460.4       22.7       25.2       16.2     1015.5       39.5       22.4        0.0        0.0        0.0       0.00      181.0       0.00       5.82        4.4
21:06             261       16.1         61       24.1      460.4       22.0       25.2       16.1     1015.5       39.5       22.4        0.0        0.0        0.0       0.00      181.4       0.00       5.82        4.4
21:08             289       17.7         62       24.1      460.4       22.3       25.2       16.4     1015.5       39.5       22.4        0.0        0.0        0.0       0.00      181.9       0.00       5.82        4.4
21:10             263       12.9         62       24.1      460.4       22.6       25.2       16.3     1015.5       39.5       22.4        0.0        0.0        0.0       0.00      182.3       0.00       5.82        4.4
21:12             264       16.1         62       24.1      460.4       21.9       25.2       16.3     1015.5       39.5       22.4        0.0        0.0        0.0       0.00      182.6       0.00       5.82        4.4
21:14             279       22.5         62       24.1      460.4       21.4       25.2       16.3     1015.6       39.5       22.4        0.0        0.0        0.0       0.00      183.0       0.00       5.82        4.4
21:16             258       19.3         62       24.1      460.4       22.2       25.2       16.3     1015.6       39.5       22.4        0.0        0.0        0.0       0.00      183.5       0.00       5.85        4.4
21:18             274        9.7         62       24.1      460.4       24.1       25.2       16.3     1015.7       39.5       22.4        0.0        0.0        0.0       0.00      183.9       0.00       5.85        4.4
21:20             274       11.3         62       24.1      460.4       22.9       25.2       16.3     1015.8       39.5       22.4        0.0        0.0        0.0       0.00      184.1       0.00       5.85        4.4
21:22             274        9.7         62       24.1      460.4       24.1       25.2       16.3     1015.8       39.5       22.4        0.0        0.0        0.0       0.00      184.3       0.00       5.85        4.4
21:24             265       11.3         62       24.1      460.4       22.9       25.2       16.3     1015.7       39.5       22.4        0.0        0.0        0.0       0.00      184.7       0.00       5.85        4.4
21:26             267       16.1         62       24.0      460.4       24.0       25.1       16.3     1015.7       39.5       22.4        0.0        0.0        0.0       0.00      185.1       0.00       5.85        4.4
21:28             263        6.4         62       24.0      460.4       24.0       25.1       16.3     1015.7       39.5       22.4        0.0        0.0        0.0       0.00      185.4       0.00       5.85        4.4
21:30             252       19.3         62       24.0      460.4       23.5       25.1       16.3     1015.8       39.5       22.4        0.0        0.0        0.0       0.00      185.8       0.00       5.85        4.4
21:32             265       14.5         62       24.0      460.4       23.2       25.1       16.3     1015.9       39.5       22.4        0.0        0.0        0.0       0.00      186.1       0.00       5.87        4.4
21:34             266       14.5         62       24.0      460.4       22.5       25.1       16.3     1015.9       39.5       22.4        0.0        0.0        0.0       0.00      186.4       0.00       5.87        4.4
21:36             260       16.1         62       23.9      460.4       21.8       25.1       16.2     1015.9       39.5       22.4        0.0        0.0        0.0       0.00      186.9       0.00       5.87        4.4
21:38             264       17.7         62       23.9      460.4       23.1       25.1       16.2     1016.0       39.5       22.4        0.0        0.0        0.0       0.00      187.3       0.00       5.87        4.4
21:40             280       14.5         62       23.9      460.4       22.7       25.0       16.2     1016.0       39.5       22.4        0.0        0.0        0.0       0.00      187.7       0.00       5.87        4.4
21:42             263       12.9         62       23.9      460.4       22.7       25.0       16.2     1016.0       39.5       22.4        0.0        0.0        0.0       0.00      188.1       0.00       5.87        4.4
21:44             261       14.5         62       23.8      460.4       22.7       25.0       16.1     1016.0       39.5       22.4        0.0        0.0        0.0       0.00      188.5       0.00       5.87        4.4
21:46             271       16.1         63       23.8      460.4       22.7       25.0       16.4     1016.0       39.5       22.4        0.0        0.0        0.0       0.00      188.9       0.00       5.89        4.4
21:48             265       16.1         62       23.8      460.4       22.2       24.9       16.1     1015.9       39.5       22.4        0.0        0.0        0.0       0.00      189.4       0.00       5.89        4.4
21:50             269       17.7         63       23.7      460.4       21.5       24.9       16.3     1015.9       39.5       22.4        0.0        0.0        0.0       0.00      189.8       0.00       5.89        4.4
21:52             276       11.3         63       23.7      460.4       23.7       24.9       16.3     1015.9       39.5       22.4        0.0        0.0        0.0       0.00      190.2       0.00       5.89        4.4
21:54             277        9.7         63       23.7      460.4       23.7       24.9       16.2     1015.9       39.5       22.4        0.0        0.0        0.0       0.00      190.4       0.00       5.89        4.4
21:56             259       16.1         63       23.7      460.4       23.7       24.9       16.2     1015.9       39.5       22.4        0.0        0.0        0.0       0.00      190.8       0.00       5.89        4.4
21:58             259        6.4         63       23.7      460.4       23.7       24.9       16.2     1015.9       39.5       22.4        0.0        0.0        0.0       0.00      191.1       0.00       5.89        4.4
22:00             259       12.9         63       23.6      460.4       22.4       24.8       16.2     1015.9       39.5       22.4        0.0        0.0        0.0       0.00      191.5       0.00       5.89        4.4
22:02             263       14.5         63       23.6      460.4       21.7       24.8       16.2     1015.9       39.5       22.4        0.0        0.0        0.0       0.00      191.8       0.00       5.90        4.4
22:04             266       11.3         63       23.6      460.4       22.3       24.7       16.1     1015.9       39.5       22.4        0.0        0.0        0.0       0.00      192.2       0.00       5.90        4.4
22:06             276        9.7         63       23.6      460.4       23.6       24.7       16.1     1016.0       39.5       22.4        0.0        0.0        0.0       0.00      192.5       0.00       5.90        4.4
22:08             281       14.5         63       23.6      460.4       22.3       24.7       16.1     1015.9       39.5       22.4        0.0        0.0        0.0       0.00      192.8       0.00       5.90        4.4
22:10             271       11.3         63       23.6      460.4       22.3       24.7       16.1     1015.9       39.5       22.4        0.0        0.0        0.0       0.00      193.1       0.00       5.90        4.4
22:12             273        9.7         63       23.6      460.4       22.7       24.7       16.1     1015.9       39.5       22.4        0.0        0.0        0.0       0.00      193.4       0.00       5.90        4.4
22:14             269       17.7         63       23.5      460.4       21.2       24.7       16.1     1015.9       39.5       22.4        0.0        0.0        0.0       0.00      193.9       0.00       5.90        4.4
22:16             285       12.9         63       23.5      460.4       21.9       24.7       16.1     1015.9       39.5       22.4        0.0        0.0        0.0       0.00      194.3       0.00       5.92        4.4
22:18             269       11.3         63       23.5      460.4       22.3       24.7       16.1     1015.9       39.5       22.4        0.0        0.0        0.0       0.00      194.8       0.00       5.92        4.4
22:20             278       11.3         63       23.5      460.4       22.3       24.7       16.1     1015.9       39.5       22.4        0.0        0.0        0.0       0.00      195.2       0.00       5.92        4.4
22:22             277       19.3         62       23.4      460.4       22.6       24.6       15.8     1015.9       39.5       22.4        0.0        0.0        0.0       0.00      195.7       0.00       5.92        4.4
22:24             273       11.3         63       23.4      460.4       22.6       24.6       16.0     1015.9       39.5       22.4        0.0        0.0        0.0       0.00      196.0       0.00       5.92        4.4
22:26             271       12.9         63       23.5      460.4       22.6       24.7       16.1     1015.9       39.5       22.4        0.0        0.0        0.0       0.00      196.3       0.00       5.92        4.4
22:28             268       17.7         62       23.5      460.4       21.6       24.6       15.8     1015.9       39.5       22.4        0.0        0.0        0.0       0.00      196.8       0.00       5.92        4.4
22:29             265       14.5         62       23.5      460.4       21.9       24.6       15.8     1015.9       39.5       22.4        0.0        0.0        0.0       0.00      197.1       0.00       5.92        4.4
22:32             268        6.4         62       23.5      460.4       23.5       24.6       15.8     1015.9       39.5       22.4        0.0        0.0        0.0       0.00      197.4       0.00       5.93        4.4
22:34             267       16.1         62       23.5      460.4       21.9       24.6       15.8     1015.9       39.5       22.4        0.0        0.0        0.0       0.00      197.7       0.00       5.93        4.4
22:35             275       16.1         62       23.5      460.4       21.9       24.6       15.8     1016.0       39.5       22.4        0.0        0.0        0.0       0.00      198.2       0.00       5.93        4.4
22:37             271       12.9         62       23.5      460.4       22.3       24.6       15.8     1016.0       39.5       22.4        0.0        0.0        0.0       0.00      198.5       0.00       5.93        4.4
22:40             263       12.9         61       23.5      460.4       22.6       24.6       15.6     1016.0       39.5       22.4        0.0        0.0        0.0       0.00      198.9       0.00       5.93        4.4
22:42             275       19.3         61       23.6      460.4       21.6       24.6       15.6     1016.0       39.5       22.4        0.0        0.0        0.0       0.00      199.3       0.00       5.93        4.4
22:44             274       12.9         61       23.6      460.4       22.7       24.6       15.6     1015.9       39.5       22.4        0.0        0.0        0.0       0.00      199.7       0.00       5.93        4.4
22:46             273       16.1         61       23.5      460.4       22.3       24.6       15.6     1015.9       39.5       22.4        0.0        0.0        0.0       0.00      200.0       0.00       5.95        4.4
22:48             259        9.7         61       23.6      460.4       23.6       24.6       15.6     1016.0       39.5       22.4        0.0        0.0        0.0       0.00      200.3       0.00       5.95        4.4
22:50             271       14.5         61       23.6      460.4       23.6       24.6       15.6     1016.0       39.5       22.4        0.0        0.0        0.0       0.00      200.7       0.00       5.95        4.4
22:52             268        4.8         61       23.6      460.4       23.6       24.6       15.6     1016.0       39.5       22.4        0.0        0.0        0.0       0.00      200.9       0.00       5.95        4.4
22:54             276       14.5         60       23.6      460.4       21.6       24.6       15.3     1016.0       39.5       22.4        0.0        0.0        0.0       0.00      201.3       0.00       5.95        4.4
22:56             266       14.5         60       23.6      460.4       21.6       24.6       15.3     1016.0       39.5       22.4        0.0        0.0        0.0       0.00      201.6       0.00       5.95        4.4
22:58             267       11.3         60       23.6      460.4       22.4       24.6       15.4     1016.0       39.5       22.4        0.0        0.0        0.0       0.00      201.9       0.00       5.95        4.4
23:00             265       14.5         60       23.6      460.4       22.4       24.6       15.4     1016.0       39.5       22.4        0.0        0.0        0.0       0.00      202.3       0.00       5.95        4.4
23:01             271        6.4         60       23.6      460.4       23.6       24.6       15.4     1016.0       39.5       22.4        0.0        0.0        0.0       0.00      202.6       0.00       5.97        4.4
23:04             259        6.4         60       23.6      460.4       23.6       24.6       15.4     1016.0       39.5       22.4        0.0        0.0        0.0       0.00      202.8       0.00       5.97        4.4
23:06             269       11.3         60       23.6      460.4       22.7       24.6       15.4     1016.0       39.5       22.4        0.0        0.0        0.0       0.00      203.1       0.00       5.97        4.4
23:08             269       11.3         60       23.6      460.4       22.4       24.6       15.4     1016.0       39.5       22.4        0.0        0.0        0.0       0.00      203.4       0.00       5.97        4.4
23:10             258       12.9         59       23.6      460.4       22.7       24.6       15.1     1015.9       39.5       22.4        0.0        0.0        0.0       0.00      203.7       0.00       5.97        4.4
23:12             246       17.7         59       23.6      460.4       22.1       24.6       15.1     1016.0       39.5       22.4        0.0        0.0        0.0       0.00      204.1       0.00       5.97        4.4
23:13             261       14.5         59       23.6      460.4       23.6       24.5       15.1     1015.9       39.5       22.4        0.0        0.0        0.0       0.00      204.5       0.00       5.97        4.4
23:16             252       11.3         60       23.6      460.4       23.6       24.6       15.3     1015.9       39.5       22.4        0.0        0.0        0.0       0.00      204.8       0.00       5.98        4.4
23:18             254       11.3         60       23.6      460.4       22.3       24.6       15.3     1016.0       39.5       22.4        0.0        0.0        0.0       0.00      205.0       0.00       5.98        4.4
23:20             253        8.0         60       23.5      460.4       23.0       24.5       15.3     1015.9       39.5       22.4        0.0        0.0        0.0       0.00      205.3       0.00       5.98        4.4
23:22             253       12.9         60       23.4      460.4       21.9       24.4       15.2     1016.0       39.5       22.4        0.0        0.0        0.0       0.00      205.5       0.00       5.98        4.4
23:24             248       12.9         60       23.4      460.4       21.8       24.4       15.2     1015.9       39.5       22.4        0.0        0.0        0.0       0.00      205.9       0.00       5.98        4.4
23:25             251       12.9         60       23.3      460.4       21.7       24.3       15.1     1015.9       39.5       22.4        0.0        0.0        0.0       0.00      206.2       0.00       5.98        4.4
23:28             251       11.3         60       23.3      460.4       23.3       24.3       15.1     1015.9       39.5       22.4        0.0        0.0        0.0       0.00      206.5       0.00       5.98        4.4
23:30             254       16.1         60       23.3      460.4       21.7       24.3       15.1     1016.0       39.5       22.4        0.0        0.0        0.0       0.00      206.9       0.00       5.98        4.4
23:32             242       16.1         60       23.2      460.4       22.3       24.2       15.0     1015.9       39.5       22.4        0.0        0.0        0.0       0.00      207.3       0.00       6.00        4.4
23:33             250       11.3         60       23.2      460.4       23.2       24.2       15.0     1015.9       39.5       22.4        0.0        0.0        0.0       0.00      207.6       0.00       6.00        4.4
23:36             250       11.3         60       23.2      460.4       23.2       24.2       15.0     1015.9       39.5       22.4        0.0        0.0        0.0       0.00      207.9       0.00       6.00        4.4
23:37             254       11.3         60       23.2      460.4       22.6       24.2       15.0     1016.0       39.5       22.4        0.0        0.0        0.0       0.00      208.3       0.00       6.00        4.4
23:40             254       16.1         60       23.2      460.4       22.6       24.2       15.0     1015.9       39.5       22.4        0.0        0.0        0.0       0.00      208.6       0.00       6.00        4.4
23:42             252       16.1         60       23.1      460.4       20.8       24.1       14.9     1015.9       39.5       22.4        0.0        0.0        0.0       0.00      209.0       0.00       6.00        4.4
23:44             236       16.1         60       23.1      460.4       22.6       24.1       14.9     1016.0       39.5       22.4        0.0        0.0        0.0       0.00      209.4       0.00       6.00        4.4
23:45             245       12.9         60       23.1      460.4       21.8       24.1       14.9     1016.0       39.5       22.4        0.0        0.0        0.0       0.00      209.7       0.00       6.01        4.4
23:48             249        8.0         60       23.1      460.4       23.1       24.1       14.9     1016.0       39.5       22.4        0.0        0.0        0.0       0.00      210.0       0.00       6.01        4.4
23:50             252        8.0         60       23.1      460.4       22.5       24.1       14.9     1015.9       39.5       22.4        0.0        0.0        0.0       0.00      210.3       0.00       6.01        4.4
23:51             254        8.0         60       23.0      460.4       23.0       24.0       14.8     1016.0       39.5       22.4        0.0        0.0        0.0       0.00      210.6       0.00       6.01        4.4
23:54             252       11.3         61       23.0      460.4       22.5       24.1       15.1     1016.0       39.5       22.4        0.0        0.0        0.0       0.00      210.9       0.00       6.01        4.4
23:56             252       12.9         61       23.0      460.4       23.0       24.1       15.1     1016.0       39.5       22.4        0.0        0.0        0.0       0.00      211.2       0.00       6.01        4.4
23:57             252        8.0         61       22.9      460.4       22.4       24.0       15.0     1015.9       39.5       22.4        0.0        0.0        0.0       0.00      211.4       0.00       6.01        4.4


Detalle de hace 2 das:

17/6/18
Time         Wind Dir  Wind Gust   Humidity       Temp   Tot Rain Wind Chill Heat Index  Dew Point   Barom SL Temp Out H Temp Out L  DailyRain   HourRain   24HrRain   RainRate   Wind Run   Deg Heat   Deg Cool  MonthRain
                          km/hr          %         C         mm         C         C         C         mb         C         C         mm         mm         mm      mm/hr         km         C         C         mm
0:00              266        9.7         45       24.6      460.4       24.6       24.7       11.9     1013.2       24.6       24.6        0.0        0.0        0.0       0.00      141.3       0.00       4.99        4.4
0:02              266        4.8         45       24.5      460.4       24.5       24.7       11.8     1013.2       24.6       24.5        0.0        0.0        0.0       0.00        0.1       0.00       0.03        4.4
0:04              266        1.6         45       24.6      460.4       24.6       24.7       11.9     1013.2       24.6       24.5        0.0        0.0        0.0       0.00        0.1       0.00       0.03        4.4
0:06              266        4.8         45       24.5      460.4       24.5       24.7       11.8     1013.3       24.6       24.5        0.0        0.0        0.0       0.00        0.3       0.00       0.03        4.4
0:08              266        6.4         46       24.5      460.4       24.5       24.7       12.1     1013.3       24.6       24.5        0.0        0.0        0.0       0.00        0.4       0.00       0.03        4.4
0:10              266        6.4         46       24.5      460.4       24.5       24.7       12.1     1013.2       24.6       24.5        0.0        0.0        0.0       0.00        0.6       0.00       0.03        4.4
0:12              265        9.7         46       24.4      460.4       24.4       24.7       12.1     1013.3       24.6       24.4        0.0        0.0        0.0       0.00        0.8       0.00       0.03        4.4
0:14              265        6.4         46       24.3      460.4       24.3       24.6       12.0     1013.3       24.6       24.3        0.0        0.0        0.0       0.00        0.9       0.00       0.03        4.4
0:16              265        3.2         47       24.3      460.4       24.3       24.6       12.3     1013.3       24.6       24.3        0.0        0.0        0.0       0.00        1.0       0.00       0.05        4.4
0:18              265        4.8         47       24.2      460.4       24.2       24.5       12.2     1013.2       24.6       24.2        0.0        0.0        0.0       0.00        1.1       0.00       0.05        4.4
0:20              265        4.8         47       24.1      460.4       24.1       24.4       12.1     1013.2       24.6       24.1        0.0        0.0        0.0       0.00        1.2       0.00       0.05        4.4
0:22              265        6.4         47       24.1      460.4       24.1       24.3       12.1     1013.2       24.6       24.1        0.0        0.0        0.0       0.00        1.4       0.00       0.05        4.4
0:24              265        4.8         48       23.9      460.4       23.9       24.3       12.3     1013.2       24.6       23.9        0.0        0.0        0.0       0.00        1.5       0.00       0.05        4.4
0:26              265        9.7         48       23.9      460.4       23.9       24.2       12.2     1013.3       24.6       23.9        0.0        0.0        0.0       0.00        1.7       0.00       0.05        4.4
0:28              262       11.3         49       23.8      460.4       22.9       24.2       12.4     1013.2       24.6       23.8        0.0        0.0        0.0       0.00        1.9       0.00       0.05        4.4
0:30              261       11.3         50       23.7      460.4       22.8       24.1       12.6     1013.3       24.6       23.7        0.0        0.0        0.0       0.00        2.2       0.00       0.05        4.4
0:32              261        6.4         50       23.6      460.4       23.6       24.0       12.5     1013.3       24.6       23.6        0.0        0.0        0.0       0.00        2.4       0.00       0.07        4.4
0:34              261        4.8         51       23.4      460.4       23.4       23.9       12.7     1013.2       24.6       23.4        0.0        0.0        0.0       0.00        2.6       0.00       0.07        4.4
0:36              261        4.8         51       23.3      460.4       23.3       23.8       12.6     1013.3       24.6       23.3        0.0        0.0        0.0       0.00        2.7       0.00       0.07        4.4
0:38              261        4.8         52       23.3      460.4       23.3       23.8       12.9     1013.2       24.6       23.3        0.0        0.0        0.0       0.00        2.8       0.00       0.07        4.4
0:40              261        6.4         52       23.2      460.4       23.2       23.8       12.8     1013.2       24.6       23.2        0.0        0.0        0.0       0.00        3.0       0.00       0.07        4.4
0:42              260        4.8         52       23.1      460.4       23.1       23.7       12.7     1013.3       24.6       23.1        0.0        0.0        0.0       0.00        3.2       0.00       0.07        4.4
0:44              260        4.8         53       23.1      460.4       23.1       23.7       13.0     1013.3       24.6       23.1        0.0        0.0        0.0       0.00        3.3       0.00       0.07        4.4
0:46              260        0.0         53       22.9      460.4       22.9       23.6       12.9     1013.3       24.6       22.9        0.0        0.0        0.0       0.00        3.3       0.00       0.08        4.4
0:48              260        0.0         53       22.9      460.4       22.9       23.5       12.8     1013.3       24.6       22.9        0.0        0.0        0.0       0.00        3.3       0.00       0.08        4.4
0:50              260        0.0         53       22.8      460.4       22.8       23.4       12.8     1013.3       24.6       22.8        0.0        0.0        0.0       0.00        3.3       0.00       0.08        4.4
0:52              260        0.0         54       22.8      460.4       22.8       23.4       13.0     1013.3       24.6       22.8        0.0        0.0        0.0       0.00        3.3       0.00       0.08        4.4
0:54              260        0.0         54       22.7      460.4       22.7       23.4       12.9     1013.4       24.6       22.7        0.0        0.0        0.0       0.00        3.3       0.00       0.08        4.4
0:56              260        4.8         54       22.6      460.4       22.6       23.3       12.8     1013.5       24.6       22.6        0.0        0.0        0.0       0.00        3.4       0.00       0.08        4.4
0:58              260        4.8         54       22.6      460.4       22.6       23.3       12.8     1013.3       24.6       22.6        0.0        0.0        0.0       0.00        3.5       0.00       0.08        4.4
1:00              260        0.0         55       22.5      460.4       22.5       23.2       13.0     1013.3       24.6       22.5        0.0        0.0        0.0       0.00        3.5       0.00       0.08        4.4
1:02              260        0.0         55       22.4      460.4       22.4       23.2       13.0     1013.4       24.6       22.4        0.0        0.0        0.0       0.00        3.5       0.00       0.08        4.4
1:04              260        0.0         56       22.4      460.4       22.4       23.2       13.2     1013.5       24.6       22.4        0.0        0.0        0.0       0.00        3.5       0.00       0.08        4.4
1:06              260        1.6         56       22.4      460.4       22.4       23.2       13.2     1013.6       24.6       22.4        0.0        0.0        0.0       0.00        3.6       0.00       0.08        4.4
1:08              260        0.0         57       22.3      460.4       22.3       23.2       13.4     1013.5       24.6       22.3        0.0        0.0        0.0       0.00        3.6       0.00       0.08        4.4
1:10              260        0.0         57       22.3      460.4       22.3       23.1       13.4     1013.4       24.6       22.3        0.0        0.0        0.0       0.00        3.6       0.00       0.08        4.4
1:12              260        0.0         57       22.2      460.4       22.2       23.1       13.3     1013.5       24.6       22.2        0.0        0.0        0.0       0.00        3.6       0.00       0.08        4.4
1:14              260        0.0         58       22.2      460.4       22.2       23.1       13.5     1013.4       24.6       22.2        0.0        0.0        0.0       0.00        3.6       0.00       0.08        4.4
1:16              260        0.0         58       22.1      460.4       22.1       23.0       13.5     1013.6       24.6       22.1        0.0        0.0        0.0       0.00        3.6       0.00       0.08        4.4
1:18              260        0.0         59       22.1      460.4       22.1       23.0       13.7     1013.6       24.6       22.1        0.0        0.0        0.0       0.00        3.6       0.00       0.08        4.4
1:20              260        0.0         59       22.1      460.4       22.1       23.0       13.7     1013.6       24.6       22.0        0.0        0.0        0.0       0.00        3.6       0.00       0.08        4.4
1:22              260        4.8         59       22.0      460.4       22.0       22.9       13.6     1013.6       24.6       22.0        0.0        0.0        0.0       0.00        3.7       0.00       0.08        4.4
1:24              260        4.8         60       21.9      460.4       21.9       22.9       13.8     1013.7       24.6       21.9        0.0        0.0        0.0       0.00        3.8       0.00       0.08        4.4
1:26              260        6.4         61       21.9      460.4       21.9       23.0       14.0     1013.6       24.6       21.9        0.0        0.0        0.0       0.00        3.9       0.00       0.08        4.4
1:28              260        4.8         61       21.8      460.4       21.8       22.9       14.0     1013.6       24.6       21.8        0.0        0.0        0.0       0.00        4.0       0.00       0.08        4.4
1:30              260        0.0         62       21.8      460.4       21.8       22.9       14.2     1013.6       24.6       21.8        0.0        0.0        0.0       0.00        4.0       0.00       0.08        4.4
1:32              260        0.0         62       21.7      460.4       21.7       22.8       14.1     1013.6       24.6       21.7        0.0        0.0        0.0       0.00        4.0       0.00       0.08        4.4
1:34              260        0.0         63       21.7      460.4       21.7       22.9       14.3     1013.6       24.6       21.7        0.0        0.0        0.0       0.00        4.0       0.00       0.08        4.4
1:36              260        0.0         64       21.6      460.4       21.6       22.9       14.5     1013.6       24.6       21.6        0.0        0.0        0.0       0.00        4.0       0.00       0.08        4.4
1:38              260        6.4         65       21.6      460.4       21.6       22.9       14.7     1013.5       24.6       21.6        0.0        0.0        0.0       0.00        4.1       0.00       0.08        4.4
1:40              260        4.8         65       21.4      460.4       21.4       22.8       14.6     1013.6       24.6       21.4        0.0        0.0        0.0       0.00        4.2       0.00       0.08        4.4
1:42              260        1.6         65       21.4      460.4       21.4       22.7       14.5     1013.7       24.6       21.4        0.0        0.0        0.0       0.00        4.3       0.00       0.08        4.4
1:44              260        1.6         66       21.3      460.4       21.3       22.7       14.7     1013.6       24.6       21.3        0.0        0.0        0.0       0.00        4.3       0.00       0.08        4.4
1:46              260        0.0         66       21.2      460.4       21.2       22.6       14.6     1013.6       24.6       21.2        0.0        0.0        0.0       0.00        4.3       0.00       0.08        4.4
1:48              260        6.4         66       21.1      460.4       21.1       22.5       14.5     1013.6       24.6       21.1        0.0        0.0        0.0       0.00        4.4       0.00       0.08        4.4
1:50              260        9.7         66       21.1      460.4       21.1       22.4       14.5     1013.6       24.6       21.1        0.0        0.0        0.0       0.00        4.6       0.00       0.08        4.4
1:52              260        4.8         66       21.0      460.4       21.0       22.4       14.4     1013.6       24.6       21.0        0.0        0.0        0.0       0.00        4.7       0.00       0.08        4.4
1:54              260        4.8         66       20.9      460.4       20.9       22.3       14.4     1013.6       24.6       20.9        0.0        0.0        0.0       0.00        4.8       0.00       0.08        4.4
1:56              260        1.6         65       20.9      460.4       20.9       22.3       14.1     1013.6       24.6       20.9        0.0        0.0        0.0       0.00        5.0       0.00       0.08        4.4
1:58              260        4.8         66       20.9      460.4       20.9       22.3       14.4     1013.6       24.6       20.9        0.0        0.0        0.0       0.00        5.1       0.00       0.08        4.4
2:00              260        6.4         66       20.9      460.4       20.9       22.3       14.4     1013.6       24.6       20.9        0.0        0.0        0.0       0.00        5.2       0.00       0.08        4.4
2:02              259        9.7         66       20.9      460.4       20.9       22.3       14.4     1013.7       24.6       20.9        0.0        0.0        0.0       0.00        5.4       0.00       0.08        4.4
2:04              259        6.4         66       20.9      460.4       20.9       22.3       14.4     1013.7       24.6       20.9        0.0        0.0        0.0       0.00        5.5       0.00       0.08        4.4
2:06              259        4.8         66       20.9      460.4       20.9       22.3       14.3     1013.7       24.6       20.9        0.0        0.0        0.0       0.00        5.7       0.00       0.08        4.4
2:08              259        6.4         66       20.9      460.4       20.9       22.3       14.3     1013.7       24.6       20.9        0.0        0.0        0.0       0.00        5.8       0.00       0.08        4.4
2:10              258        4.8         66       20.8      460.4       20.8       22.2       14.3     1013.7       24.6       20.8        0.0        0.0        0.0       0.00        5.9       0.00       0.08        4.4
2:12              258        6.4         66       20.8      460.4       20.8       22.2       14.3     1013.7       24.6       20.8        0.0        0.0        0.0       0.00        6.1       0.00       0.08        4.4
2:14              258        9.7         66       20.8      460.4       20.8       22.2       14.2     1013.6       24.6       20.8        0.0        0.0        0.0       0.00        6.3       0.00       0.08        4.4
2:16              258        3.2         66       20.7      460.4       20.7       22.1       14.1     1013.7       24.6       20.7        0.0        0.0        0.0       0.00        6.4       0.00       0.08        4.4
2:18              258        4.8         66       20.7      460.4       20.7       22.0       14.1     1013.7       24.6       20.7        0.0        0.0        0.0       0.00        6.4       0.00       0.08        4.4
2:20              258        3.2         66       20.7      460.4       20.7       22.0       14.1     1013.7       24.6       20.7        0.0        0.0        0.0       0.00        6.5       0.00       0.08        4.4
2:22              258        6.4         66       20.7      460.4       20.7       22.0       14.1     1013.6       24.6       20.6        0.0        0.0        0.0       0.00        6.7       0.00       0.08        4.4
2:24              258        1.6         66       20.6      460.4       20.6       22.0       14.0     1013.7       24.6       20.6        0.0        0.0        0.0       0.00        6.7       0.00       0.08        4.4
2:26              258        0.0         66       20.6      460.4       20.6       22.0       14.0     1013.7       24.6       20.6        0.0        0.0        0.0       0.00        6.8       0.00       0.08        4.4
2:28              258        0.0         65       20.7      460.4       20.7       22.0       13.9     1013.7       24.6       20.6        0.0        0.0        0.0       0.00        6.8       0.00       0.08        4.4
2:30              258        0.0         65       20.6      460.4       20.6       21.9       13.8     1013.7       24.6       20.6        0.0        0.0        0.0       0.00        6.8       0.00       0.08        4.4
2:32              258        0.0         66       20.7      460.4       20.7       22.0       14.1     1013.8       24.6       20.6        0.0        0.0        0.0       0.00        6.8       0.00       0.08        4.4
2:34              258        0.0         66       20.6      460.4       20.6       22.0       14.0     1013.9       24.6       20.6        0.0        0.0        0.0       0.00        6.8       0.00       0.08        4.4
2:36              258        0.0         65       20.6      460.4       20.6       21.9       13.8     1013.8       24.6       20.6        0.0        0.0        0.0       0.00        6.8       0.00       0.08        4.4
2:38              258        0.0         65       20.7      460.4       20.7       22.0       13.9     1013.9       24.6       20.6        0.0        0.0        0.0       0.00        6.8       0.00       0.08        4.4
2:40              258        0.0         66       20.7      460.4       20.7       22.0       14.1     1013.8       24.6       20.6        0.0        0.0        0.0       0.00        6.8       0.00       0.08        4.4
2:42              258        0.0         66       20.7      460.4       20.7       22.0       14.1     1013.7       24.6       20.6        0.0        0.0        0.0       0.00        6.8       0.00       0.08        4.4
2:44              258        0.0         66       20.7      460.4       20.7       22.0       14.1     1013.8       24.6       20.6        0.0        0.0        0.0       0.00        6.8       0.00       0.08        4.4
2:46              258        0.0         66       20.7      460.4       20.7       22.0       14.1     1013.8       24.6       20.6        0.0        0.0        0.0       0.00        6.8       0.00       0.08        4.4
2:48              258        0.0         66       20.7      460.4       20.7       22.0       14.1     1013.8       24.6       20.6        0.0        0.0        0.0       0.00        6.8       0.00       0.08        4.4
2:50              258        0.0         66       20.7      460.4       20.7       22.0       14.1     1013.8       24.6       20.6        0.0        0.0        0.0       0.00        6.8       0.00       0.08        4.4
2:52              258        0.0         66       20.7      460.4       20.7       22.0       14.1     1013.8       24.6       20.6        0.0        0.0        0.0       0.00        6.8       0.00       0.08        4.4
2:54              258        0.0         66       20.6      460.4       20.6       22.0       14.0     1013.8       24.6       20.6        0.0        0.0        0.0       0.00        6.8       0.00       0.08        4.4
2:56              258        0.0         66       20.6      460.4       20.6       22.0       14.0     1013.9       24.6       20.6        0.0        0.0        0.0       0.00        6.8       0.00       0.08        4.4
2:58              258        6.4         66       20.6      460.4       20.6       21.9       14.0     1013.7       24.6       20.6        0.0        0.0        0.0       0.00        6.9       0.00       0.08        4.4
3:00              258        4.8         66       20.6      460.4       20.6       21.9       14.0     1013.8       24.6       20.6        0.0        0.0        0.0       0.00        7.0       0.00       0.08        4.4
3:02              258        3.2         66       20.5      460.4       20.5       21.9       13.9     1013.8       24.6       20.5        0.0        0.0        0.0       0.00        7.1       0.00       0.08        4.4
3:04              258        4.8         66       20.5      460.4       20.5       21.9       13.9     1013.7       24.6       20.5        0.0        0.0        0.0       0.00        7.2       0.00       0.08        4.4
3:06              258        3.2         66       20.4      460.4       20.4       21.8       13.9     1013.7       24.6       20.4        0.0        0.0        0.0       0.00        7.3       0.00       0.08        4.4
3:07              258        4.8         66       20.4      460.4       20.4       21.8       13.9     1013.7       24.6       20.4        0.0        0.0        0.0       0.00        7.4       0.00       0.08        4.4
3:10              258        3.2         66       20.4      460.4       20.4       21.8       13.9     1013.8       24.6       20.4        0.0        0.0        0.0       0.00        7.5       0.00       0.08        4.4
3:12              258        4.8         66       20.4      460.4       20.4       21.8       13.8     1013.8       24.6       20.4        0.0        0.0        0.0       0.00        7.6       0.00       0.08        4.4
3:14              258        6.4         66       20.4      460.4       20.4       21.8       13.8     1013.8       24.6       20.4        0.0        0.0        0.0       0.00        7.8       0.00       0.08        4.4
3:16              258        3.2         66       20.4      460.4       20.4       21.8       13.8     1013.8       24.6       20.4        0.0        0.0        0.0       0.00        7.9       0.00       0.08        4.4
3:18              258        4.8         66       20.4      460.4       20.4       21.8       13.8     1013.8       24.6       20.3        0.0        0.0        0.0       0.00        8.0       0.00       0.08        4.4
3:20              258        6.4         66       20.3      460.4       20.3       21.7       13.8     1013.8       24.6       20.3        0.0        0.0        0.0       0.00        8.1       0.00       0.08        4.4
3:22              258        4.8         66       20.3      460.4       20.3       21.7       13.8     1013.9       24.6       20.3        0.0        0.0        0.0       0.00        8.3       0.00       0.08        4.4
3:24              258        4.8         66       20.3      460.4       20.3       21.7       13.8     1014.0       24.6       20.3        0.0        0.0        0.0       0.00        8.4       0.00       0.08        4.4
3:26              258        4.8         66       20.3      460.4       20.3       21.7       13.7     1013.9       24.6       20.3        0.0        0.0        0.0       0.00        8.5       0.00       0.08        4.4
3:28              258        3.2         65       20.3      460.4       20.3       21.6       13.5     1013.9       24.6       20.3        0.0        0.0        0.0       0.00        8.7       0.00       0.08        4.4
3:30              258        3.2         65       20.2      460.4       20.2       21.5       13.4     1014.0       24.6       20.2        0.0        0.0        0.0       0.00        8.8       0.00       0.08        4.4
3:31              258        0.0         65       20.2      460.4       20.2       21.5       13.4     1014.0       24.6       20.2        0.0        0.0        0.0       0.00        8.8       0.00       0.08        4.4
3:34              258        1.6         65       20.2      460.4       20.2       21.5       13.4     1014.0       24.6       20.2        0.0        0.0        0.0       0.00        8.9       0.00       0.08        4.4
3:36              258        4.8         65       20.2      460.4       20.2       21.5       13.4     1013.9       24.6       20.2        0.0        0.0        0.0       0.00        9.0       0.00       0.08        4.4
3:38              258        6.4         64       20.2      460.4       20.2       21.5       13.2     1014.0       24.6       20.2        0.0        0.0        0.0       0.00        9.2       0.00       0.08        4.4
3:40              258        6.4         64       20.2      460.4       20.2       21.5       13.2     1013.9       24.6       20.2        0.0        0.0        0.0       0.00        9.3       0.00       0.08        4.4
3:42              258        6.4         64       20.2      460.4       20.2       21.5       13.2     1013.9       24.6       20.2        0.0        0.0        0.0       0.00        9.5       0.00       0.08        4.4
3:44              257        6.4         63       20.2      460.4       20.2       21.4       13.0     1013.9       24.6       20.2        0.0        0.0        0.0       0.00        9.6       0.00       0.08        4.4
3:46              258        4.8         63       20.2      460.4       20.2       21.4       13.0     1014.0       24.6       20.2        0.0        0.0        0.0       0.00        9.7       0.00       0.08        4.4
3:48              257        3.2         63       20.3      460.4       20.3       21.5       13.0     1013.9       24.6       20.2        0.0        0.0        0.0       0.00        9.9       0.00       0.08        4.4
3:50              258        3.2         63       20.3      460.4       20.3       21.5       13.0     1013.9       24.6       20.2        0.0        0.0        0.0       0.00        9.9       0.00       0.08        4.4
3:52              257        3.2         62       20.3      460.4       20.3       21.4       12.8     1014.0       24.6       20.2        0.0        0.0        0.0       0.00       10.0       0.00       0.08        4.4
3:54              257        0.0         62       20.3      460.4       20.3       21.5       12.8     1013.9       24.6       20.2        0.0        0.0        0.0       0.00       10.1       0.00       0.08        4.4
3:56              258        0.0         62       20.3      460.4       20.3       21.5       12.8     1014.0       24.6       20.2        0.0        0.0        0.0       0.00       10.1       0.00       0.08        4.4
3:58              258        0.0         62       20.4      460.4       20.4       21.5       12.9     1014.0       24.6       20.2        0.0        0.0        0.0       0.00       10.1       0.00       0.08        4.4
4:00              258        0.0         62       20.4      460.4       20.4       21.5       12.9     1014.1       24.6       20.2        0.0        0.0        0.0       0.00       10.1       0.00       0.08        4.4
4:02              258        0.0         62       20.4      460.4       20.4       21.5       12.9     1014.0       24.6       20.2        0.0        0.0        0.0       0.00       10.1       0.00       0.08        4.4
4:04              258        0.0         62       20.4      460.4       20.4       21.5       12.9     1014.0       24.6       20.2        0.0        0.0        0.0       0.00       10.1       0.00       0.08        4.4
4:06              258        0.0         62       20.4      460.4       20.4       21.6       12.9     1014.0       24.6       20.2        0.0        0.0        0.0       0.00       10.1       0.00       0.08        4.4
4:08              258        0.0         62       20.4      460.4       20.4       21.6       12.9     1013.9       24.6       20.2        0.0        0.0        0.0       0.00       10.1       0.00       0.08        4.4
4:10              258        0.0         62       20.4      460.4       20.4       21.6       12.9     1014.0       24.6       20.2        0.0        0.0        0.0       0.00       10.1       0.00       0.08        4.4
4:12              257        0.0         61       20.4      460.4       20.4       21.5       12.7     1014.0       24.6       20.2        0.0        0.0        0.0       0.00       10.1       0.00       0.08        4.4
4:14              258        0.0         61       20.4      460.4       20.4       21.5       12.7     1014.0       24.6       20.2        0.0        0.0        0.0       0.00       10.1       0.00       0.08        4.4
4:16              258        0.0         61       20.5      460.4       20.5       21.6       12.7     1014.0       24.6       20.2        0.0        0.0        0.0       0.00       10.1       0.00       0.08        4.4
4:18              258        0.0         61       20.5      460.4       20.5       21.6       12.7     1014.0       24.6       20.2        0.0        0.0        0.0       0.00       10.1       0.00       0.08        4.4
4:20              257        3.2         61       20.5      460.4       20.5       21.6       12.7     1014.0       24.6       20.2        0.0        0.0        0.0       0.00       10.1       0.00       0.08        4.4
4:22              257        0.0         60       20.6      460.4       20.6       21.6       12.5     1014.0       24.6       20.2        0.0        0.0        0.0       0.00       10.2       0.00       0.08        4.4
4:24              258        0.0         60       20.6      460.4       20.6       21.6       12.6     1014.1       24.6       20.2        0.0        0.0        0.0       0.00       10.2       0.00       0.08        4.4
4:26              258        0.0         60       20.6      460.4       20.6       21.6       12.6     1014.1       24.6       20.2        0.0        0.0        0.0       0.00       10.2       0.00       0.08        4.4
4:28              257        0.0         60       20.7      460.4       20.7       21.7       12.6     1014.1       24.6       20.2        0.0        0.0        0.0       0.00       10.2       0.00       0.08        4.4
4:30              257        0.0         59       20.7      460.4       20.7       21.7       12.4     1014.2       24.6       20.2        0.0        0.0        0.0       0.00       10.2       0.00       0.08        4.4
4:32              257        0.0         59       20.8      460.4       20.8       21.7       12.5     1014.2       24.6       20.2        0.0        0.0        0.0       0.00       10.2       0.00       0.08        4.4
4:34              258        0.0         59       20.8      460.4       20.8       21.7       12.5     1014.2       24.6       20.2        0.0        0.0        0.0       0.00       10.2       0.00       0.08        4.4
4:36              258        0.0         58       20.8      460.4       20.8       21.7       12.3     1014.3       24.6       20.2        0.0        0.0        0.0       0.00       10.2       0.00       0.08        4.4
4:38              257        0.0         58       20.8      460.4       20.8       21.7       12.3     1014.3       24.6       20.2        0.0        0.0        0.0       0.00       10.2       0.00       0.08        4.4
4:40              258        0.0         58       20.8      460.4       20.8       21.7       12.3     1014.3       24.6       20.2        0.0        0.0        0.0       0.00       10.2       0.00       0.08        4.4
4:42              258        0.0         58       20.8      460.4       20.8       21.7       12.3     1014.3       24.6       20.2        0.0        0.0        0.0       0.00       10.2       0.00       0.08        4.4
4:44              258        0.0         58       20.8      460.4       20.8       21.7       12.3     1014.3       24.6       20.2        0.0        0.0        0.0       0.00       10.2       0.00       0.08        4.4
4:46              258        0.0         58       20.8      460.4       20.8       21.7       12.3     1014.3       24.6       20.2        0.0        0.0        0.0       0.00       10.2       0.00       0.08        4.4
4:48              258        0.0         58       20.8      460.4       20.8       21.7       12.3     1014.3       24.6       20.2        0.0        0.0        0.0       0.00       10.2       0.00       0.08        4.4
4:50              258        0.0         58       20.8      460.4       20.8       21.7       12.3     1014.4       24.6       20.2        0.0        0.0        0.0       0.00       10.2       0.00       0.08        4.4
4:52              258        0.0         58       20.8      460.4       20.8       21.7       12.3     1014.3       24.6       20.2        0.0        0.0        0.0       0.00       10.2       0.00       0.08        4.4
4:54              258        0.0         58       20.9      460.4       20.9       21.8       12.3     1014.4       24.6       20.2        0.0        0.0        0.0       0.00       10.2       0.00       0.08        4.4
4:56              258        0.0         58       20.9      460.4       20.9       21.8       12.3     1014.3       24.6       20.2        0.0        0.0        0.0       0.00       10.2       0.00       0.08        4.4
4:58              258        6.4         58       20.9      460.4       20.9       21.8       12.3     1014.4       24.6       20.2        0.0        0.0        0.0       0.00       10.2       0.00       0.08        4.4
5:00              258        6.4         58       20.9      460.4       20.9       21.8       12.3     1014.3       24.6       20.2        0.0        0.0        0.0       0.00       10.3       0.00       0.08        4.4
5:02              257        3.2         57       20.9      460.4       20.9       21.7       12.1     1014.4       24.6       20.2        0.0        0.0        0.0       0.00       10.4       0.00       0.08        4.4
5:04              258        4.8         57       20.9      460.4       20.9       21.7       12.1     1014.3       24.6       20.2        0.0        0.0        0.0       0.00       10.5       0.00       0.08        4.4
5:06              258        4.8         57       20.9      460.4       20.9       21.8       12.1     1014.4       24.6       20.2        0.0        0.0        0.0       0.00       10.7       0.00       0.08        4.4
5:08              257        4.8         57       20.9      460.4       20.9       21.7       12.1     1014.5       24.6       20.2        0.0        0.0        0.0       0.00       10.8       0.00       0.08        4.4
5:10              257        4.8         57       20.9      460.4       20.9       21.7       12.1     1014.5       24.6       20.2        0.0        0.0        0.0       0.00       10.9       0.00       0.08        4.4
5:12              258        0.0         57       20.9      460.4       20.9       21.7       12.1     1014.6       24.6       20.2        0.0        0.0        0.0       0.00       10.9       0.00       0.08        4.4
5:14              257        0.0         57       20.9      460.4       20.9       21.7       12.1     1014.6       24.6       20.2        0.0        0.0        0.0       0.00       10.9       0.00       0.08        4.4
5:16              258        0.0         57       20.9      460.4       20.9       21.7       12.1     1014.7       24.6       20.2        0.0        0.0        0.0       0.00       10.9       0.00       0.08        4.4
5:18              258        0.0         58       20.9      460.4       20.9       21.8       12.3     1014.7       24.6       20.2        0.0        0.0        0.0       0.00       10.9       0.00       0.08        4.4
5:20              258        0.0         58       20.9      460.4       20.9       21.8       12.3     1014.7       24.6       20.2        0.0        0.0        0.0       0.00       10.9       0.00       0.08        4.4
5:22              258        0.0         58       20.9      460.4       20.9       21.8       12.3     1014.7       24.6       20.2        0.0        0.0        0.0       0.00       10.9       0.00       0.08        4.4
5:24              257        0.0         58       20.9      460.4       20.9       21.8       12.3     1014.8       24.6       20.2        0.0        0.0        0.0       0.00       10.9       0.00       0.08        4.4
5:26              257        0.0         58       20.9      460.4       20.9       21.8       12.3     1014.7       24.6       20.2        0.0        0.0        0.0       0.00       10.9       0.00       0.08        4.4
5:28              258        0.0         58       20.9      460.4       20.9       21.8       12.3     1014.7       24.6       20.2        0.0        0.0        0.0       0.00       10.9       0.00       0.08        4.4
5:30              258        0.0         59       20.9      460.4       20.9       21.8       12.6     1014.7       24.6       20.2        0.0        0.0        0.0       0.00       10.9       0.00       0.08        4.4
5:32              258        0.0         59       20.8      460.4       20.8       21.8       12.5     1014.8       24.6       20.2        0.0        0.0        0.0       0.00       10.9       0.00       0.08        4.4
5:34              258        0.0         58       20.8      460.4       20.8       21.7       12.3     1014.8       24.6       20.2        0.0        0.0        0.0       0.00       10.9       0.00       0.08        4.4
5:36              257        0.0         58       20.8      460.4       20.8       21.7       12.3     1014.9       24.6       20.2        0.0        0.0        0.0       0.00       10.9       0.00       0.08        4.4
5:38              258        0.0         59       20.8      460.4       20.8       21.8       12.5     1014.8       24.6       20.2        0.0        0.0        0.0       0.00       10.9       0.00       0.08        4.4
5:40              258        0.0         58       20.8      460.4       20.8       21.7       12.3     1014.9       24.6       20.2        0.0        0.0        0.0       0.00       10.9       0.00       0.08        4.4
5:42              258        0.0         58       20.8      460.4       20.8       21.7       12.3     1014.9       24.6       20.2        0.0        0.0        0.0       0.00       10.9       0.00       0.08        4.4
5:44              257        0.0         59       20.8      460.4       20.8       21.8       12.5     1014.8       24.6       20.2        0.0        0.0        0.0       0.00       10.9       0.00       0.08        4.4
5:46              258        0.0         58       20.8      460.4       20.8       21.7       12.3     1014.9       24.6       20.2        0.0        0.0        0.0       0.00       10.9       0.00       0.08        4.4
5:48              258        0.0         59       20.8      460.4       20.8       21.8       12.5     1014.9       24.6       20.2        0.0        0.0        0.0       0.00       10.9       0.00       0.08        4.4
5:50              257        0.0         59       20.9      460.4       20.9       21.8       12.6     1014.9       24.6       20.2        0.0        0.0        0.0       0.00       10.9       0.00       0.08        4.4
5:52              258        0.0         59       20.9      460.4       20.9       21.8       12.6     1014.9       24.6       20.2        0.0        0.0        0.0       0.00       10.9       0.00       0.08        4.4
5:54              258        0.0         60       20.9      460.4       20.9       21.9       12.8     1014.9       24.6       20.2        0.0        0.0        0.0       0.00       10.9       0.00       0.08        4.4
5:56              257        0.0         59       20.9      460.4       20.9       21.8       12.6     1015.0       24.6       20.2        0.0        0.0        0.0       0.00       10.9       0.00       0.08        4.4
5:58              257        0.0         59       20.9      460.4       20.9       21.9       12.6     1014.9       24.6       20.2        0.0        0.0        0.0       0.00       10.9       0.00       0.08        4.4
6:00              257        0.0         60       21.0      460.4       21.0       22.0       12.9     1015.0       24.6       20.2        0.0        0.0        0.0       0.00       10.9       0.00       0.08        4.4
6:02              257        0.0         60       21.0      460.4       21.0       22.0       12.9     1015.0       24.6       20.2        0.0        0.0        0.0       0.00       10.9       0.00       0.08        4.4
6:04              257        0.0         59       21.0      460.4       21.0       21.9       12.7     1015.0       24.6       20.2        0.0        0.0        0.0       0.00       10.9       0.00       0.08        4.4
6:06              257        0.0         59       21.0      460.4       21.0       21.9       12.7     1015.0       24.6       20.2        0.0        0.0        0.0       0.00       10.9       0.00       0.08        4.4
6:08              257        0.0         59       21.0      460.4       21.0       21.9       12.7     1015.1       24.6       20.2        0.0        0.0        0.0       0.00       10.9       0.00       0.08        4.4
6:10              257        0.0         59       21.0      460.4       21.0       21.9       12.7     1015.1       24.6       20.2        0.0        0.0        0.0       0.00       10.9       0.00       0.08        4.4
6:12              257        0.0         59       21.1      460.4       21.1       22.0       12.7     1015.1       24.6       20.2        0.0        0.0        0.0       0.00       10.9       0.00       0.08        4.4
6:14              257        0.0         59       21.1      460.4       21.1       22.0       12.7     1015.1       24.6       20.2        0.0        0.0        0.0       0.00       10.9       0.00       0.08        4.4
6:16              257        0.0         59       21.1      460.4       21.1       22.1       12.8     1015.2       24.6       20.2        0.0        0.0        0.0       0.00       10.9       0.00       0.08        4.4
6:18              257        0.0         59       21.1      460.4       21.1       22.1       12.8     1015.2       24.6       20.2        0.0        0.0        0.0       0.00       10.9       0.00       0.08        4.4
6:20              257        0.0         59       21.1      460.4       21.1       22.1       12.8     1015.1       24.6       20.2        0.0        0.0        0.0       0.00       10.9       0.00       0.08        4.4
6:22              257        0.0         59       21.2      460.4       21.2       22.1       12.8     1015.1       24.6       20.2        0.0        0.0        0.0       0.00       10.9       0.00       0.08        4.4
6:24              257        0.0         59       21.2      460.4       21.2       22.1       12.8     1015.1       24.6       20.2        0.0        0.0        0.0       0.00       10.9       0.00       0.08        4.4
6:26              257        0.0         60       21.2      460.4       21.2       22.2       13.2     1015.2       24.6       20.2        0.0        0.0        0.0       0.00       10.9       0.00       0.08        4.4
6:28              257        0.0         60       21.2      460.4       21.2       22.2       13.2     1015.2       24.6       20.2        0.0        0.0        0.0       0.00       10.9       0.00       0.08        4.4
6:30              257        0.0         60       21.3      460.4       21.3       22.3       13.2     1015.2       24.6       20.2        0.0        0.0        0.0       0.00       10.9       0.00       0.08        4.4
6:32              257        0.0         60       21.3      460.4       21.3       22.3       13.3     1015.2       24.6       20.2        0.0        0.0        0.0       0.00       10.9       0.00       0.08        4.4
6:34              257        0.0         60       21.3      460.4       21.3       22.3       13.3     1015.2       24.6       20.2        0.0        0.0        0.0       0.00       10.9       0.00       0.08        4.4
6:36              257        0.0         60       21.3      460.4       21.3       22.3       13.3     1015.2       24.6       20.2        0.0        0.0        0.0       0.00       10.9       0.00       0.08        4.4
6:38              257        3.2         59       21.4      460.4       21.4       22.3       13.1     1015.3       24.6       20.2        0.0        0.0        0.0       0.00       10.9       0.00       0.08        4.4
6:40              257        0.0         59       21.4      460.4       21.4       22.3       13.1     1015.2       24.6       20.2        0.0        0.0        0.0       0.00       10.9       0.00       0.08        4.4
6:42              257        0.0         59       21.4      460.4       21.4       22.4       13.1     1015.2       24.6       20.2        0.0        0.0        0.0       0.00       10.9       0.00       0.08        4.4
6:44              257        4.8         59       21.5      460.4       21.5       22.4       13.2     1015.3       24.6       20.2        0.0        0.0        0.0       0.00       10.9       0.00       0.08        4.4
6:46              257        4.8         59       21.6      460.4       21.6       22.5       13.2     1015.2       24.6       20.2        0.0        0.0        0.0       0.00       11.0       0.00       0.08        4.4
6:48              257        1.6         59       21.6      460.4       21.6       22.6       13.3     1015.2       24.6       20.2        0.0        0.0        0.0       0.00       11.0       0.00       0.08        4.4
6:50              257        3.2         59       21.7      460.4       21.7       22.6       13.3     1015.3       24.6       20.2        0.0        0.0        0.0       0.00       11.1       0.00       0.08        4.4
6:52              257        4.8         58       21.7      460.4       21.7       22.6       13.1     1015.3       24.6       20.2        0.0        0.0        0.0       0.00       11.2       0.00       0.08        4.4
6:54              257        3.2         58       21.8      460.4       21.8       22.7       13.2     1015.5       24.6       20.2        0.0        0.0        0.0       0.00       11.3       0.00       0.08        4.4
6:56              257        3.2         58       21.8      460.4       21.8       22.7       13.2     1015.5       24.6       20.2        0.0        0.0        0.0       0.00       11.4       0.00       0.08        4.4
6:58              257        4.8         58       21.8      460.4       21.8       22.7       13.2     1015.6       24.6       20.2        0.0        0.0        0.0       0.00       11.5       0.00       0.08        4.4
7:00              257        0.0         58       21.9      460.4       21.9       22.8       13.3     1015.6       24.6       20.2        0.0        0.0        0.0       0.00       11.6       0.00       0.08        4.4
7:02              257        0.0         58       21.9      460.4       21.9       22.8       13.3     1015.5       24.6       20.2        0.0        0.0        0.0       0.00       11.6       0.00       0.08        4.4
7:04              257        0.0         59       21.9      460.4       21.9       22.9       13.6     1015.5       24.6       20.2        0.0        0.0        0.0       0.00       11.6       0.00       0.08        4.4
7:06              257        0.0         59       22.0      460.4       22.0       22.9       13.6     1015.6       24.6       20.2        0.0        0.0        0.0       0.00       11.6       0.00       0.08        4.4
7:08              257        0.0         58       22.0      460.4       22.0       22.9       13.4     1015.5       24.6       20.2        0.0        0.0        0.0       0.00       11.6       0.00       0.08        4.4
7:10              257        4.8         58       22.1      460.4       22.1       23.0       13.5     1015.5       24.6       20.2        0.0        0.0        0.0       0.00       11.7       0.00       0.08        4.4
7:12              257        6.4         58       22.2      460.4       22.2       23.1       13.5     1015.5       24.6       20.2        0.0        0.0        0.0       0.00       11.8       0.00       0.08        4.4
7:14              257        4.8         58       22.2      460.4       22.2       23.1       13.6     1015.5       24.6       20.2        0.0        0.0        0.0       0.00       11.9       0.00       0.08        4.4
7:16              257        3.2         58       22.2      460.4       22.2       23.1       13.6     1015.6       24.6       20.2        0.0        0.0        0.0       0.00       12.0       0.00       0.09        4.4
7:18              257        3.2         58       22.3      460.4       22.3       23.2       13.6     1015.6       24.6       20.2        0.0        0.0        0.0       0.00       12.1       0.00       0.09        4.4
7:20              257        3.2         58       22.3      460.4       22.3       23.2       13.6     1015.7       24.6       20.2        0.0        0.0        0.0       0.00       12.2       0.00       0.09        4.4
7:22              257        3.2         58       22.3      460.4       22.3       23.2       13.7     1015.6       24.6       20.2        0.0        0.0        0.0       0.00       12.3       0.00       0.09        4.4
7:24              257        3.2         58       22.4      460.4       22.4       23.3       13.7     1015.7       24.6       20.2        0.0        0.0        0.0       0.00       12.4       0.00       0.09        4.4
7:26              257        3.2         58       22.4      460.4       22.4       23.3       13.7     1015.8       24.6       20.2        0.0        0.0        0.0       0.00       12.5       0.00       0.09        4.4
7:28              257        3.2         58       22.5      460.4       22.5       23.4       13.8     1015.8       24.6       20.2        0.0        0.0        0.0       0.00       12.5       0.00       0.09        4.4
7:30              257        4.8         58       22.5      460.4       22.5       23.4       13.8     1015.8       24.6       20.2        0.0        0.0        0.0       0.00       12.6       0.00       0.09        4.4
7:32              257        0.0         58       22.6      460.4       22.6       23.4       13.9     1015.7       24.6       20.2        0.0        0.0        0.0       0.00       12.7       0.00       0.09        4.4
7:34              257        0.0         58       22.6      460.4       22.6       23.5       13.9     1015.7       24.6       20.2        0.0        0.0        0.0       0.00       12.7       0.00       0.09        4.4
7:36              257        1.6         58       22.7      460.4       22.7       23.6       14.0     1015.7       24.6       20.2        0.0        0.0        0.0       0.00       12.7       0.00       0.09        4.4
7:38              257        0.0         58       22.7      460.4       22.7       23.6       14.0     1015.8       24.6       20.2        0.0        0.0        0.0       0.00       12.7       0.00       0.09        4.4
7:40              257        3.2         57       22.8      460.4       22.8       23.6       13.8     1015.7       24.6       20.2        0.0        0.0        0.0       0.00       12.8       0.00       0.09        4.4
7:42              257        4.8         57       22.8      460.4       22.8       23.7       13.9     1015.8       24.6       20.2        0.0        0.0        0.0       0.00       12.9       0.00       0.09        4.4
7:44              257        0.0         57       22.8      460.4       22.8       23.7       13.9     1015.8       24.6       20.2        0.0        0.0        0.0       0.00       13.0       0.00       0.09        4.4
7:46              257        0.0         57       22.9      460.4       22.9       23.7       13.9     1015.8       24.6       20.2        0.0        0.0        0.0       0.00       13.0       0.00       0.10        4.4
7:48              257        0.0         57       22.9      460.4       22.9       23.8       14.0     1015.9       24.6       20.2        0.0        0.0        0.0       0.00       13.0       0.00       0.10        4.4
7:50              257        0.0         57       23.1      460.4       23.1       23.9       14.1     1015.9       24.6       20.2        0.0        0.0        0.0       0.00       13.0       0.00       0.10        4.4
7:52              257        0.0         57       23.3      460.4       23.3       24.2       14.3     1015.8       24.6       20.2        0.0        0.0        0.0       0.00       13.0       0.00       0.10        4.4
7:54              257        4.8         57       23.4      460.4       23.4       24.3       14.4     1015.9       24.6       20.2        0.0        0.0        0.0       0.00       13.0       0.00       0.10        4.4
7:56              257        4.8         55       23.5      460.4       23.5       24.2       13.9     1015.9       24.6       20.2        0.0        0.0        0.0       0.00       13.1       0.00       0.10        4.4
7:58              257        4.8         55       23.5      460.4       23.5       24.2       13.9     1015.9       24.6       20.2        0.0        0.0        0.0       0.00       13.3       0.00       0.10        4.4
8:00              257        1.6         55       23.6      460.4       23.6       24.3       14.0     1015.8       24.6       20.2        0.0        0.0        0.0       0.00       13.3       0.00       0.10        4.4
8:02              257        0.0         54       23.6      460.4       23.6       24.2       13.7     1015.9       24.6       20.2        0.0        0.0        0.0       0.00       13.3       0.00       0.12        4.4
8:04              257        0.0         55       23.6      460.4       23.6       24.3       14.1     1015.9       24.6       20.2        0.0        0.0        0.0       0.00       13.3       0.00       0.12        4.4
8:06              257        0.0         55       23.7      460.4       23.7       24.4       14.2     1015.9       24.6       20.2        0.0        0.0        0.0       0.00       13.3       0.00       0.12        4.4
8:08              257        0.0         55       23.8      460.4       23.8       24.5       14.3     1015.8       24.6       20.2        0.0        0.0        0.0       0.00       13.3       0.00       0.12        4.4
8:10              257        0.0         55       23.9      460.4       23.9       24.6       14.3     1015.9       24.6       20.2        0.0        0.0        0.0       0.00       13.3       0.00       0.12        4.4
8:12              257        3.2         55       24.0      460.4       24.0       24.7       14.4     1015.9       24.6       20.2        0.0        0.0        0.0       0.00       13.4       0.00       0.12        4.4
8:14              257        3.2         53       24.0      460.4       24.0       24.6       13.8     1015.9       24.6       20.2        0.0        0.0        0.0       0.00       13.5       0.00       0.12        4.4
8:16              257        1.6         53       24.1      460.4       24.1       24.7       13.9     1015.9       24.6       20.2        0.0        0.0        0.0       0.00       13.5       0.00       0.14        4.4
8:18              257        0.0         52       24.1      460.4       24.1       24.7       13.7     1015.9       24.6       20.2        0.0        0.0        0.0       0.00       13.5       0.00       0.14        4.4
8:20              257        0.0         52       24.2      460.4       24.2       24.8       13.8     1015.9       24.6       20.2        0.0        0.0        0.0       0.00       13.5       0.00       0.14        4.4
8:22              257        0.0         52       24.3      460.4       24.3       24.9       13.9     1015.9       24.6       20.2        0.0        0.0        0.0       0.00       13.5       0.00       0.14        4.4
8:24              257        4.8         52       24.5      460.4       24.5       25.1       14.0     1015.9       24.6       20.2        0.0        0.0        0.0       0.00       13.5       0.00       0.14        4.4
8:26              257        0.0         51       24.6      460.4       24.6       25.1       13.8     1015.9       24.6       20.2        0.0        0.0        0.0       0.00       13.6       0.00       0.14        4.4
8:28              257        4.8         51       24.7      460.4       24.7       25.2       13.9     1015.9       24.7       20.2        0.0        0.0        0.0       0.00       13.6       0.00       0.14        4.4
8:30              257        1.6         51       24.7      460.4       24.7       25.2       13.9     1015.9       24.7       20.2        0.0        0.0        0.0       0.00       13.7       0.00       0.14        4.4
8:32              257        4.8         49       24.9      460.4       24.9       25.3       13.5     1015.9       24.9       20.2        0.0        0.0        0.0       0.00       13.8       0.00       0.17        4.4
8:34              257        6.4         48       24.9      460.4       24.9       25.3       13.2     1015.9       24.9       20.2        0.0        0.0        0.0       0.00       14.0       0.00       0.17        4.4
8:36              257        3.2         48       25.0      460.4       25.0       25.3       13.2     1015.9       25.0       20.2        0.0        0.0        0.0       0.00       14.1       0.00       0.17        4.4
8:38              257        0.0         48       25.0      460.4       25.0       25.3       13.2     1015.9       25.0       20.2        0.0        0.0        0.0       0.00       14.1       0.00       0.17        4.4
8:40              257        6.4         47       25.1      460.4       25.1       25.4       13.0     1015.9       25.1       20.2        0.0        0.0        0.0       0.00       14.3       0.00       0.17        4.4
8:42              257        1.6         47       25.2      460.4       25.2       25.5       13.1     1015.9       25.2       20.2        0.0        0.0        0.0       0.00       14.3       0.00       0.17        4.4
8:44              257        3.2         48       25.2      460.4       25.2       25.6       13.4     1015.9       25.2       20.2        0.0        0.0        0.0       0.00       14.4       0.00       0.17        4.4
8:46              257        4.8         47       25.3      460.4       25.3       25.6       13.2     1015.9       25.3       20.2        0.0        0.0        0.0       0.00       14.4       0.00       0.20        4.4
8:48              257        4.8         47       25.4      460.4       25.4       25.7       13.3     1015.9       25.4       20.2        0.0        0.0        0.0       0.00       14.5       0.00       0.20        4.4
8:50              257        4.8         47       25.6      460.4       25.6       25.8       13.4     1015.9       25.6       20.2        0.0        0.0        0.0       0.00       14.6       0.00       0.20        4.4
8:52              257        3.2         47       25.6      460.4       25.6       25.9       13.5     1015.9       25.6       20.2        0.0        0.0        0.0       0.00       14.6       0.00       0.20        4.4
8:54              257        0.0         46       25.7      460.4       25.7       25.9       13.2     1015.9       25.7       20.2        0.0        0.0        0.0       0.00       14.7       0.00       0.20        4.4
8:56              257        0.0         46       25.7      460.4       25.7       26.0       13.2     1015.8       25.7       20.2        0.0        0.0        0.0       0.00       14.7       0.00       0.20        4.4
8:57              257        6.4         46       25.8      460.4       25.8       26.0       13.3     1015.9       25.8       20.2        0.0        0.0        0.0       0.00       14.8       0.00       0.20        4.4
9:00              257        3.2         46       25.9      460.4       25.9       26.1       13.4     1015.8       25.9       20.2        0.0        0.0        0.0       0.00       14.9       0.00       0.20        4.4
9:02              257        3.2         46       25.9      460.4       25.9       26.2       13.4     1015.8       25.9       20.2        0.0        0.0        0.0       0.00       14.9       0.00       0.24        4.4
9:04              257        3.2         46       26.0      460.4       26.0       26.2       13.5     1015.8       26.0       20.2        0.0        0.0        0.0       0.00       15.0       0.00       0.24        4.4
9:06              257        8.0         45       26.1      460.4       25.7       26.2       13.2     1015.8       26.1       20.2        0.0        0.0        0.0       0.00       15.2       0.00       0.24        4.4
9:08              257        6.4         45       26.1      460.4       26.1       26.2       13.2     1015.8       26.1       20.2        0.0        0.0        0.0       0.00       15.4       0.00       0.24        4.4
9:10              257        3.2         45       26.1      460.4       26.1       26.2       13.2     1015.8       26.1       20.2        0.0        0.0        0.0       0.00       15.5       0.00       0.24        4.4
9:12              257        0.0         45       26.1      460.4       26.1       26.2       13.2     1015.8       26.1       20.2        0.0        0.0        0.0       0.00       15.5       0.00       0.24        4.4
9:14              257        1.6         45       26.2      460.4       26.2       26.4       13.3     1015.8       26.2       20.2        0.0        0.0        0.0       0.00       15.6       0.00       0.24        4.4
9:16              257        4.8         46       26.3      460.4       26.3       26.5       13.7     1015.7       26.3       20.2        0.0        0.0        0.0       0.00       15.6       0.00       0.28        4.4
9:18              257        3.2         45       26.3      460.4       26.3       26.5       13.5     1015.7       26.3       20.2        0.0        0.0        0.0       0.00       15.7       0.00       0.28        4.4
9:20              257        6.4         45       26.4      460.4       26.4       26.6       13.6     1015.8       26.4       20.2        0.0        0.0        0.0       0.00       15.8       0.00       0.28        4.4
9:22              257        6.4         44       26.6      460.4       26.6       26.7       13.3     1015.8       26.6       20.2        0.0        0.0        0.0       0.00       16.0       0.00       0.28        4.4
9:24              257        6.4         44       26.7      460.4       26.7       26.8       13.4     1015.8       26.7       20.2        0.0        0.0        0.0       0.00       16.1       0.00       0.28        4.4
9:26              257        3.2         44       26.7      460.4       26.7       26.9       13.5     1015.8       26.7       20.2        0.0        0.0        0.0       0.00       16.2       0.00       0.28        4.4
9:28              257        3.2         44       26.8      460.4       26.8       26.9       13.5     1015.8       26.8       20.2        0.0        0.0        0.0       0.00       16.3       0.00       0.28        4.4
9:30              257        0.0         43       26.8      460.4       26.8       26.9       13.2     1015.9       26.8       20.2        0.0        0.0        0.0       0.00       16.3       0.00       0.28        4.4
9:32              257        6.4         43       26.9      460.4       26.9       26.9       13.3     1015.8       26.9       20.2        0.0        0.0        0.0       0.00       16.4       0.00       0.33        4.4
9:34              257        6.4         43       27.0      460.4       27.0       27.0       13.4     1015.8       27.0       20.2        0.0        0.0        0.0       0.00       16.4       0.00       0.33        4.4
9:36              257        0.0         43       27.1      460.4       27.1       27.1       13.4     1015.7       27.1       20.2        0.0        0.0        0.0       0.00       16.6       0.00       0.33        4.4
9:38              257        0.0         43       27.2      460.4       27.2       27.1       13.5     1015.8       27.2       20.2        0.0        0.0        0.0       0.00       16.6       0.00       0.33        4.4
9:40              257        0.0         42       27.2      460.4       27.2       27.1       13.2     1015.7       27.2       20.2        0.0        0.0        0.0       0.00       16.6       0.00       0.33        4.4
9:42              257        0.0         43       27.3      460.4       27.3       27.3       13.7     1015.7       27.3       20.2        0.0        0.0        0.0       0.00       16.6       0.00       0.33        4.4
9:44              257        0.0         42       27.4      460.4       27.4       27.3       13.4     1015.7       27.4       20.2        0.0        0.0        0.0       0.00       16.6       0.00       0.33        4.4
9:46              257       11.3         43       27.6      460.4       27.3       27.5       13.9     1015.7       27.6       20.2        0.0        0.0        0.0       0.00       16.6       0.00       0.39        4.4
9:48              257        6.4         41       27.7      460.4       27.7       27.5       13.3     1015.7       27.7       20.2        0.0        0.0        0.0       0.00       16.8       0.00       0.39        4.4
9:50              257        4.8         41       27.7      460.4       27.7       27.5       13.3     1015.7       27.7       20.2        0.0        0.0        0.0       0.00       17.0       0.00       0.39        4.4
9:52              257        1.6         41       27.7      460.4       27.7       27.5       13.3     1015.7       27.7       20.2        0.0        0.0        0.0       0.00       17.1       0.00       0.39        4.4
9:54              257        6.4         42       27.8      460.4       27.8       27.6       13.7     1015.7       27.8       20.2        0.0        0.0        0.0       0.00       17.1       0.00       0.39        4.4
9:56              257        3.2         41       27.8      460.4       27.8       27.5       13.3     1015.7       27.8       20.2        0.0        0.0        0.0       0.00       17.2       0.00       0.39        4.4
9:58              257        6.4         41       27.8      460.4       27.8       27.6       13.4     1015.8       27.8       20.2        0.0        0.0        0.0       0.00       17.3       0.00       0.39        4.4
10:00             257        0.0         41       27.8      460.4       27.8       27.6       13.4     1015.7       27.8       20.2        0.0        0.0        0.0       0.00       17.3       0.00       0.39        4.4
10:02             257        4.8         41       27.9      460.4       27.9       27.6       13.4     1015.8       27.9       20.2        0.0        0.0        0.0       0.00       17.4       0.00       0.45        4.4
10:04             257        4.8         41       28.0      460.4       28.0       27.7       13.5     1015.7       28.0       20.2        0.0        0.0        0.0       0.00       17.5       0.00       0.45        4.4
10:06             257        3.2         41       28.2      460.4       28.2       27.9       13.7     1015.8       28.2       20.2        0.0        0.0        0.0       0.00       17.6       0.00       0.45        4.4
10:08             257        1.6         40       28.3      460.4       28.3       28.0       13.5     1015.7       28.3       20.2        0.0        0.0        0.0       0.00       17.6       0.00       0.45        4.4
10:10             257        0.0         40       28.5      460.4       28.5       28.1       13.6     1015.8       28.5       20.2        0.0        0.0        0.0       0.00       17.6       0.00       0.45        4.4
10:12             257        0.0         39       28.7      460.4       28.7       28.2       13.4     1015.8       28.7       20.2        0.0        0.0        0.0       0.00       17.7       0.00       0.45        4.4
10:14             257        0.0         39       28.8      460.4       28.8       28.4       13.5     1015.7       28.8       20.2        0.0        0.0        0.0       0.00       17.7       0.00       0.45        4.4
10:16             257        4.8         39       29.0      460.4       29.0       28.5       13.7     1015.8       29.0       20.2        0.0        0.0        0.0       0.00       17.8       0.00       0.52        4.4
10:18             257        6.4         39       29.1      460.4       29.1       28.6       13.8     1015.7       29.1       20.2        0.0        0.0        0.0       0.00       17.9       0.00       0.52        4.4
10:20             257        6.4         38       29.2      460.4       29.2       28.7       13.5     1015.8       29.2       20.2        0.0        0.0        0.0       0.00       18.0       0.00       0.52        4.4
10:22             257        8.0         38       29.3      460.4       29.3       28.7       13.5     1015.8       29.3       20.2        0.0        0.0        0.0       0.00       18.1       0.00       0.52        4.4
10:24             257        1.6         38       29.3      460.4       29.3       28.8       13.6     1015.8       29.3       20.2        0.0        0.0        0.0       0.00       18.2       0.00       0.52        4.4
10:26             257        6.4         38       29.4      460.4       29.4       28.9       13.7     1015.9       29.4       20.2        0.0        0.0        0.0       0.00       18.2       0.00       0.52        4.4
10:28             257        4.8         38       29.4      460.4       29.4       28.9       13.7     1015.9       29.5       20.2        0.0        0.0        0.0       0.00       18.3       0.00       0.52        4.4
10:30             257        0.0         39       29.4      460.4       29.4       28.9       14.0     1015.9       29.5       20.2        0.0        0.0        0.0       0.00       18.4       0.00       0.52        4.4
10:32             257        0.0         38       29.4      460.4       29.4       28.8       13.6     1015.8       29.5       20.2        0.0        0.0        0.0       0.00       18.4       0.00       0.60        4.4
10:34             257        0.0         38       29.4      460.4       29.4       28.9       13.7     1015.8       29.5       20.2        0.0        0.0        0.0       0.00       18.4       0.00       0.60        4.4
10:36             257        6.4         39       29.6      460.4       29.6       29.1       14.2     1015.7       29.6       20.2        0.0        0.0        0.0       0.00       18.5       0.00       0.60        4.4
10:38             257        8.0         38       29.7      460.4       29.7       29.2       13.9     1015.7       29.7       20.2        0.0        0.0        0.0       0.00       18.6       0.00       0.60        4.4
10:40             257        3.2         38       29.8      460.4       29.8       29.3       14.0     1015.6       29.8       20.2        0.0        0.0        0.0       0.00       18.7       0.00       0.60        4.4
10:42             257        6.4         38       29.9      460.4       29.9       29.4       14.1     1015.7       29.9       20.2        0.0        0.0        0.0       0.00       18.8       0.00       0.60        4.4
10:44             257        0.0         37       30.0      460.4       30.0       29.4       13.7     1015.7       30.0       20.2        0.0        0.0        0.0       0.00       18.9       0.00       0.60        4.4
10:46             257        8.0         37       30.1      460.4       30.0       29.5       13.8     1015.6       30.1       20.2        0.0        0.0        0.0       0.00       19.0       0.00       0.69        4.4
10:48             252        6.4         37       30.2      460.4       30.2       29.6       13.9     1015.7       30.2       20.2        0.0        0.0        0.0       0.00       19.3       0.00       0.69        4.4
10:50             250        8.0         37       30.3      460.4       30.3       29.7       14.0     1015.7       30.3       20.2        0.0        0.0        0.0       0.00       19.5       0.00       0.69        4.4
10:52             167        8.0         37       30.5      460.4       30.4       29.9       14.2     1015.7       30.5       20.2        0.0        0.0        0.0       0.00       19.7       0.00       0.69        4.4
10:54             161        6.4         36       30.7      460.4       30.7       30.0       13.9     1015.8       30.7       20.2        0.0        0.0        0.0       0.00       19.9       0.00       0.69        4.4
10:56             161        6.4         36       30.8      460.4       30.8       30.1       14.0     1015.7       30.8       20.2        0.0        0.0        0.0       0.00       20.0       0.00       0.69        4.4
10:58             161        0.0         36       30.9      460.4       30.9       30.2       14.1     1015.7       30.9       20.2        0.0        0.0        0.0       0.00       20.0       0.00       0.69        4.4
11:00             161        6.4         36       31.0      460.4       31.0       30.4       14.2     1015.7       31.0       20.2        0.0        0.0        0.0       0.00       20.0       0.00       0.69        4.4
11:02             161        0.0         36       31.2      460.4       31.2       30.6       14.3     1015.7       31.2       20.2        0.0        0.0        0.0       0.00       20.1       0.00       0.78        4.4
11:04             161        6.4         36       31.3      460.4       31.3       30.7       14.4     1015.7       31.3       20.2        0.0        0.0        0.0       0.00       20.1       0.00       0.78        4.4
11:06             160        6.4         36       31.4      460.4       31.4       30.8       14.5     1015.7       31.4       20.2        0.0        0.0        0.0       0.00       20.2       0.00       0.78        4.4
11:08             160        1.6         35       31.6      460.4       31.6       30.9       14.2     1015.7       31.6       20.2        0.0        0.0        0.0       0.00       20.3       0.00       0.78        4.4
11:10              97        6.4         35       31.7      460.4       31.7       31.1       14.3     1015.6       31.7       20.2        0.0        0.0        0.0       0.00       20.4       0.00       0.78        4.4
11:12             194        8.0         34       31.7      460.4       31.6       30.9       13.9     1015.7       31.7       20.2        0.0        0.0        0.0       0.00       20.6       0.00       0.78        4.4
11:13             202        8.0         34       31.4      460.4       31.4       30.7       13.7     1015.7       31.7       20.2        0.0        0.0        0.0       0.00       20.7       0.00       0.78        4.4
11:16             202        0.0         35       31.3      460.4       31.3       30.6       14.0     1015.7       31.7       20.2        0.0        0.0        0.0       0.00       20.9       0.00       0.88        4.4
11:18             202        0.0         35       31.2      460.4       31.2       30.5       13.9     1015.6       31.7       20.2        0.0        0.0        0.0       0.00       20.9       0.00       0.88        4.4
11:20             202        3.2         36       31.1      460.4       31.1       30.5       14.3     1015.6       31.7       20.2        0.0        0.0        0.0       0.00       20.9       0.00       0.88        4.4
11:22             202        4.8         35       31.1      460.4       31.1       30.4       13.9     1015.7       31.7       20.2        0.0        0.0        0.0       0.00       21.0       0.00       0.88        4.4
11:24             203        6.4         36       31.1      460.4       31.1       30.5       14.3     1015.6       31.7       20.2        0.0        0.0        0.0       0.00       21.1       0.00       0.88        4.4
11:26             203        6.4         35       31.2      460.4       31.2       30.5       13.9     1015.6       31.7       20.2        0.0        0.0        0.0       0.00       21.2       0.00       0.88        4.4
11:28             202        3.2         35       31.2      460.4       31.2       30.5       14.0     1015.6       31.7       20.2        0.0        0.0        0.0       0.00       21.3       0.00       0.88        4.4
11:30             203        0.0         35       31.3      460.4       31.3       30.6       14.0     1015.6       31.7       20.2        0.0        0.0        0.0       0.00       21.4       0.00       0.88        4.4
11:32             202        0.0         35       31.3      460.4       31.3       30.6       14.1     1015.5       31.7       20.2        0.0        0.0        0.0       0.00       21.4       0.00       0.97        4.4
11:34             202        3.2         35       31.4      460.4       31.4       30.8       14.2     1015.7       31.7       20.2        0.0        0.0        0.0       0.00       21.4       0.00       0.97        4.4
11:36             202        6.4         35       31.6      460.4       31.6       31.0       14.3     1015.7       31.7       20.2        0.0        0.0        0.0       0.00       21.5       0.00       0.97        4.4
11:38             202        0.0         34       31.7      460.4       31.7       31.0       13.9     1015.7       31.7       20.2        0.0        0.0        0.0       0.00       21.5       0.00       0.97        4.4
11:40             202        0.0         34       31.9      460.4       31.9       31.2       14.1     1015.6       31.9       20.2        0.0        0.0        0.0       0.00       21.5       0.00       0.97        4.4
11:42             202        0.0         35       32.0      460.4       32.0       31.5       14.6     1015.6       32.0       20.2        0.0        0.0        0.0       0.00       21.5       0.00       0.97        4.4
11:44             203        0.0         34       32.2      460.4       32.2       31.5       14.3     1015.6       32.2       20.2        0.0        0.0        0.0       0.00       21.5       0.00       0.97        4.4
11:46             202        1.6         34       32.2      460.4       32.2       31.6       14.4     1015.5       32.2       20.2        0.0        0.0        0.0       0.00       21.6       0.00       1.08        4.4
11:48             202        0.0         35       32.2      460.4       32.2       31.8       14.8     1015.5       32.3       20.2        0.0        0.0        0.0       0.00       21.6       0.00       1.08        4.4
11:50             202        0.0         34       32.3      460.4       32.3       31.7       14.4     1015.6       32.3       20.2        0.0        0.0        0.0       0.00       21.7       0.00       1.08        4.4
11:52             202        3.2         34       32.4      460.4       32.4       31.8       14.5     1015.5       32.4       20.2        0.0        0.0        0.0       0.00       21.7       0.00       1.08        4.4
11:54             202        3.2         34       32.5      460.4       32.5       32.0       14.6     1015.6       32.5       20.2        0.0        0.0        0.0       0.00       21.8       0.00       1.08        4.4
11:56             202        1.6         33       32.6      460.4       32.6       32.0       14.3     1015.5       32.6       20.2        0.0        0.0        0.0       0.00       21.8       0.00       1.08        4.4
11:58             202        0.0         33       32.6      460.4       32.6       32.0       14.3     1015.5       32.7       20.2        0.0        0.0        0.0       0.00       21.8       0.00       1.08        4.4
12:00             202        4.8         33       32.7      460.4       32.7       32.0       14.3     1015.5       32.7       20.2        0.0        0.0        0.0       0.00       21.8       0.00       1.08        4.4
12:02             202        3.2         32       32.7      460.4       32.7       31.9       13.9     1015.5       32.7       20.2        0.0        0.0        0.0       0.00       22.0       0.00       1.19        4.4
12:04             202        4.8         33       32.8      460.4       32.8       32.2       14.4     1015.4       32.8       20.2        0.0        0.0        0.0       0.00       22.1       0.00       1.19        4.4
12:06             203        8.0         33       32.8      460.4       32.8       32.2       14.4     1015.3       32.8       20.2        0.0        0.0        0.0       0.00       22.2       0.00       1.19        4.4
12:08             203        6.4         33       32.7      460.4       32.7       32.1       14.4     1015.4       32.8       20.2        0.0        0.0        0.0       0.00       22.4       0.00       1.19        4.4
12:10             203        4.8         32       32.7      460.4       32.7       31.9       13.9     1015.3       32.8       20.2        0.0        0.0        0.0       0.00       22.4       0.00       1.19        4.4
12:12             203        4.8         33       32.8      460.4       32.8       32.2       14.5     1015.3       32.8       20.2        0.0        0.0        0.0       0.00       22.5       0.00       1.19        4.4
12:14             205        6.4         32       32.8      460.4       32.8       32.1       14.0     1015.4       32.8       20.2        0.0        0.0        0.0       0.00       22.7       0.00       1.19        4.4
12:16             209        9.7         32       32.9      460.4       32.9       32.2       14.0     1015.5       32.9       20.2        0.0        0.0        0.0       0.00       22.8       0.00       1.30        4.4
12:18             210        6.4         32       32.9      460.4       32.9       32.2       14.1     1015.3       32.9       20.2        0.0        0.0        0.0       0.00       23.0       0.00       1.30        4.4
12:20             217        9.7         32       33.0      460.4       33.0       32.3       14.1     1015.4       33.0       20.2        0.0        0.0        0.0       0.00       23.2       0.00       1.30        4.4
12:22             227        3.2         32       33.0      460.4       33.0       32.3       14.1     1015.4       33.0       20.2        0.0        0.0        0.0       0.00       23.4       0.00       1.30        4.4
12:24             227        1.6         32       32.9      460.4       32.9       32.2       14.0     1015.3       33.0       20.2        0.0        0.0        0.0       0.00       23.4       0.00       1.30        4.4
12:26             227        6.4         32       32.9      460.4       32.9       32.2       14.0     1015.4       33.0       20.2        0.0        0.0        0.0       0.00       23.5       0.00       1.30        4.4
12:28             200        4.8         32       33.0      460.4       33.0       32.3       14.1     1015.3       33.0       20.2        0.0        0.0        0.0       0.00       23.7       0.00       1.30        4.4
12:30             202        6.4         32       33.2      460.4       33.2       32.5       14.3     1015.4       33.2       20.2        0.0        0.0        0.0       0.00       23.8       0.00       1.30        4.4
12:32             202        3.2         32       33.2      460.4       33.2       32.6       14.3     1015.3       33.2       20.2        0.0        0.0        0.0       0.00       23.9       0.00       1.42        4.4
12:34             219        9.7         31       33.3      460.4       33.3       32.5       13.9     1015.3       33.3       20.2        0.0        0.0        0.0       0.00       24.1       0.00       1.42        4.4
12:36             221        8.0         32       33.3      460.4       33.3       32.7       14.4     1015.4       33.3       20.2        0.0        0.0        0.0       0.00       24.3       0.00       1.42        4.4
12:38             221        3.2         31       33.3      460.4       33.3       32.5       13.9     1015.3       33.3       20.2        0.0        0.0        0.0       0.00       24.4       0.00       1.42        4.4
12:40             226        1.6         32       33.3      460.4       33.3       32.7       14.4     1015.3       33.3       20.2        0.0        0.0        0.0       0.00       24.5       0.00       1.42        4.4
12:42             226        3.2         33       33.3      460.4       33.3       32.9       14.9     1015.3       33.3       20.2        0.0        0.0        0.0       0.00       24.6       0.00       1.42        4.4
12:44             226        4.8         32       33.4      460.4       33.4       32.8       14.5     1015.3       33.4       20.2        0.0        0.0        0.0       0.00       24.7       0.00       1.42        4.4
12:46             226        1.6         32       33.4      460.4       33.4       32.8       14.5     1015.3       33.4       20.2        0.0        0.0        0.0       0.00       24.8       0.00       1.54        4.4
12:48             226        6.4         32       33.4      460.4       33.4       32.9       14.5     1015.3       33.4       20.2        0.0        0.0        0.0       0.00       24.9       0.00       1.54        4.4
12:50             226        8.0         32       33.6      460.4       33.6       33.0       14.6     1015.2       33.6       20.2        0.0        0.0        0.0       0.00       25.1       0.00       1.54        4.4
12:52             226        6.4         32       33.7      460.4       33.7       33.2       14.7     1015.3       33.7       20.2        0.0        0.0        0.0       0.00       25.2       0.00       1.54        4.4
12:54             226        4.8         32       33.7      460.4       33.7       33.3       14.8     1015.3       33.7       20.2        0.0        0.0        0.0       0.00       25.3       0.00       1.54        4.4
12:56             227        0.0         32       33.7      460.4       33.7       33.3       14.8     1015.3       33.7       20.2        0.0        0.0        0.0       0.00       25.4       0.00       1.54        4.4
12:58             226        6.4         32       33.7      460.4       33.7       33.2       14.7     1015.3       33.7       20.2        0.0        0.0        0.0       0.00       25.5       0.00       1.54        4.4
13:00             226        0.0         31       33.7      460.4       33.7       33.1       14.3     1015.2       33.7       20.2        0.0        0.0        0.0       0.00       25.6       0.00       1.54        4.4
13:02             226        0.0         31       33.8      460.4       33.8       33.2       14.3     1015.2       33.8       20.2        0.0        0.0        0.0       0.00       25.6       0.00       1.66        4.4
13:04             227        3.2         32       33.8      460.4       33.8       33.4       14.8     1015.3       33.8       20.2        0.0        0.0        0.0       0.00       25.6       0.00       1.66        4.4
13:06             227        0.0         31       33.9      460.4       33.9       33.3       14.4     1015.3       33.9       20.2        0.0        0.0        0.0       0.00       25.7       0.00       1.66        4.4
13:08             227        0.0         31       33.9      460.4       33.9       33.4       14.5     1015.2       33.9       20.2        0.0        0.0        0.0       0.00       25.7       0.00       1.66        4.4
13:10             226        3.2         32       34.1      460.4       34.1       33.8       15.1     1015.2       34.1       20.2        0.0        0.0        0.0       0.00       25.7       0.00       1.66        4.4
13:12             226        0.0         31       34.3      460.4       34.3       33.8       14.7     1015.2       34.3       20.2        0.0        0.0        0.0       0.00       25.7       0.00       1.66        4.4
13:14             226        1.6         31       34.4      460.4       34.4       34.1       14.9     1015.2       34.4       20.2        0.0        0.0        0.0       0.00       25.7       0.00       1.66        4.4
13:16             225        8.0         31       34.7      460.4       34.7       34.4       15.1     1015.2       34.7       20.2        0.0        0.0        0.0       0.00       25.9       0.00       1.79        4.4
13:18             215        6.4         30       34.9      460.4       34.9       34.6       14.8     1015.2       34.9       20.2        0.0        0.0        0.0       0.00       26.0       0.00       1.79        4.4
13:20             213        4.8         30       35.2      460.4       35.2       34.9       15.0     1015.2       35.2       20.2        0.0        0.0        0.0       0.00       26.2       0.00       1.79        4.4
13:22             213        4.8         30       35.4      460.4       35.4       35.2       15.2     1015.2       35.4       20.2        0.0        0.0        0.0       0.00       26.3       0.00       1.79        4.4
13:24             222        4.8         29       35.4      460.4       35.4       35.0       14.7     1015.2       35.4       20.2        0.0        0.0        0.0       0.00       26.5       0.00       1.79        4.4
13:26             182       14.5         29       35.3      460.4       35.3       34.9       14.6     1015.1       35.4       20.2        0.0        0.0        0.0       0.00       26.7       0.00       1.79        4.4
13:28             182        0.0         30       35.2      460.4       35.2       35.0       15.0     1015.1       35.4       20.2        0.0        0.0        0.0       0.00       26.7       0.00       1.79        4.4
13:30             182        3.2         30       35.3      460.4       35.3       35.1       15.1     1015.1       35.4       20.2        0.0        0.0        0.0       0.00       26.8       0.00       1.79        4.4
13:32             182        3.2         29       35.4      460.4       35.4       35.0       14.7     1015.1       35.4       20.2        0.0        0.0        0.0       0.00       26.9       0.00       1.93        4.4
13:33             180        6.4         30       35.4      460.4       35.4       35.2       15.2     1015.1       35.4       20.2        0.0        0.0        0.0       0.00       27.0       0.00       1.93        4.4
13:35             178        1.6         29       35.5      460.4       35.5       35.2       14.8     1015.0       35.5       20.2        0.0        0.0        0.0       0.00       27.0       0.00       1.93        4.4
13:38             178        1.6         30       35.7      460.4       35.7       35.7       15.4     1015.0       35.7       20.2        0.0        0.0        0.0       0.00       27.1       0.00       1.93        4.4
13:40             178        4.8         29       35.8      460.4       35.8       35.7       15.0     1015.0       35.8       20.2        0.0        0.0        0.0       0.00       27.2       0.00       1.93        4.4
13:42             180        9.7         29       35.9      460.4       35.9       35.8       15.1     1015.0       35.9       20.2        0.0        0.0        0.0       0.00       27.4       0.00       1.93        4.4
13:44             180        9.7         29       36.0      460.4       36.0       35.9       15.2     1015.0       36.0       20.2        0.0        0.0        0.0       0.00       27.5       0.00       1.93        4.4
13:46             180        6.4         29       36.1      460.4       36.1       36.0       15.2     1015.0       36.1       20.2        0.0        0.0        0.0       0.00       27.7       0.00       2.08        4.4
13:48             223       11.3         29       36.1      460.4       36.1       36.1       15.3     1015.0       36.1       20.2        0.0        0.0        0.0       0.00       27.9       0.00       2.08        4.4
13:50             227        8.0         29       35.9      460.4       35.9       35.8       15.1     1015.0       36.1       20.2        0.0        0.0        0.0       0.00       28.1       0.00       2.08        4.4
13:52             227        4.8         29       35.8      460.4       35.8       35.6       15.0     1015.1       36.1       20.2        0.0        0.0        0.0       0.00       28.2       0.00       2.08        4.4
13:54             227        4.8         29       35.7      460.4       35.7       35.5       14.9     1015.0       36.1       20.2        0.0        0.0        0.0       0.00       28.3       0.00       2.08        4.4
13:56             227        0.0         29       35.7      460.4       35.7       35.4       14.9     1015.0       36.1       20.2        0.0        0.0        0.0       0.00       28.3       0.00       2.08        4.4
13:58             227        0.0         29       35.7      460.4       35.7       35.5       14.9     1015.0       36.1       20.2        0.0        0.0        0.0       0.00       28.3       0.00       2.08        4.4
14:02             227        9.7         30       35.9      460.4       35.9       36.1       15.7     1014.9       36.1       20.2        0.0        0.0        0.0       0.00       28.4       0.00       2.22        4.4
14:04             246       11.3         29       35.9      460.4       35.9       35.8       15.1     1015.0       36.1       20.2        0.0        0.0        0.0       0.00       28.7       0.00       2.22        4.4
14:06             246        8.0         30       35.8      460.4       35.8       35.8       15.5     1014.8       36.1       20.2        0.0        0.0        0.0       0.00       28.9       0.00       2.22        4.4
14:08             247        8.0         30       35.6      460.4       35.6       35.5       15.3     1014.8       36.1       20.2        0.0        0.0        0.0       0.00       29.1       0.00       2.22        4.4
14:10             240        6.4         30       35.4      460.4       35.4       35.3       15.2     1014.7       36.1       20.2        0.0        0.0        0.0       0.00       29.3       0.00       2.22        4.4
14:12             228        9.7         30       35.4      460.4       35.4       35.3       15.2     1014.8       36.1       20.2        0.0        0.0        0.0       0.00       29.5       0.00       2.22        4.4
14:14             228        0.0         29       35.6      460.4       35.6       35.3       14.8     1014.8       36.1       20.2        0.0        0.0        0.0       0.00       29.6       0.00       2.22        4.4
14:16             228        3.2         30       35.6      460.4       35.6       35.6       15.4     1014.7       36.1       20.2        0.0        0.0        0.0       0.00       29.6       0.00       2.36        4.4
14:18             228        6.4         31       35.8      460.4       35.8       36.1       16.0     1014.7       36.1       20.2        0.0        0.0        0.0       0.00       29.7       0.00       2.36        4.4
14:19             228        6.4         30       35.8      460.4       35.8       35.8       15.5     1014.7       36.1       20.2        0.0        0.0        0.0       0.00       29.8       0.00       2.36        4.4
14:22             228        3.2         30       35.7      460.4       35.7       35.7       15.5     1014.6       36.1       20.2        0.0        0.0        0.0       0.00       30.0       0.00       2.36        4.4
14:23             229        4.8         30       35.7      460.4       35.7       35.7       15.4     1014.6       36.1       20.2        0.0        0.0        0.0       0.00       30.0       0.00       2.36        4.4
14:26             228        0.0         30       35.7      460.4       35.7       35.7       15.4     1014.7       36.1       20.2        0.0        0.0        0.0       0.00       30.1       0.00       2.36        4.4
14:28             231        8.0         31       35.7      460.4       35.7       36.0       16.0     1014.7       36.1       20.2        0.0        0.0        0.0       0.00       30.1       0.00       2.36        4.4
14:30             235        8.0         31       35.7      460.4       35.7       36.0       16.0     1014.7       36.1       20.2        0.0        0.0        0.0       0.00       30.3       0.00       2.36        4.4
14:32             235        6.4         31       35.7      460.4       35.7       35.9       15.9     1014.6       36.1       20.2        0.0        0.0        0.0       0.00       30.4       0.00       2.51        4.4
14:34             235        6.4         31       35.7      460.4       35.7       35.9       15.9     1014.6       36.1       20.2        0.0        0.0        0.0       0.00       30.5       0.00       2.51        4.4
14:36             236        8.0         30       35.6      460.4       35.6       35.6       15.4     1014.6       36.1       20.2        0.0        0.0        0.0       0.00       30.7       0.00       2.51        4.4
14:37             240        8.0         31       35.6      460.4       35.6       35.7       15.8     1014.5       36.1       20.2        0.0        0.0        0.0       0.00       30.9       0.00       2.51        4.4
14:40             240        0.0         31       35.6      460.4       35.6       35.7       15.8     1014.6       36.1       20.2        0.0        0.0        0.0       0.00       30.9       0.00       2.51        4.4
14:42             239        8.0         32       35.7      460.4       35.7       36.1       16.4     1014.6       36.1       20.2        0.0        0.0        0.0       0.00       31.1       0.00       2.51        4.4
14:44             225        8.0         33       35.9      460.4       35.9       36.8       17.1     1014.5       36.1       20.2        0.0        0.0        0.0       0.00       31.3       0.00       2.51        4.4
14:46             197        6.4         32       36.1      460.4       36.1       36.9       16.8     1014.5       36.1       20.2        0.0        0.0        0.0       0.00       31.6       0.00       2.65        4.4
14:48             197        4.8         32       36.4      460.4       36.4       37.3       17.1     1014.5       36.4       20.2        0.0        0.0        0.0       0.00       31.6       0.00       2.65        4.4
14:50             198        4.8         30       36.5      460.4       36.5       36.9       16.1     1014.5       36.5       20.2        0.0        0.0        0.0       0.00       31.7       0.00       2.65        4.4
14:52             211       11.3         31       36.5      460.4       36.5       37.2       16.7     1014.4       36.5       20.2        0.0        0.0        0.0       0.00       31.9       0.00       2.65        4.4
14:54             219        9.7         30       36.5      460.4       36.5       36.9       16.1     1014.4       36.6       20.2        0.0        0.0        0.0       0.00       32.1       0.00       2.65        4.4
14:56             219        6.4         30       36.4      460.4       36.4       36.8       16.0     1014.5       36.6       20.2        0.0        0.0        0.0       0.00       32.2       0.00       2.65        4.4
14:58             219        3.2         30       36.3      460.4       36.3       36.7       16.0     1014.4       36.6       20.2        0.0        0.0        0.0       0.00       32.3       0.00       2.65        4.4
15:00             220        6.4         30       36.3      460.4       36.3       36.6       16.0     1014.4       36.6       20.2        0.0        0.0        0.0       0.00       32.5       0.00       2.65        4.4
15:02             220        0.0         31       36.2      460.4       36.2       36.8       16.4     1014.3       36.6       20.2        0.0        0.0        0.0       0.00       32.5       0.00       2.80        4.4
15:04             220        6.4         31       36.3      460.4       36.3       36.9       16.5     1014.4       36.6       20.2        0.0        0.0        0.0       0.00       32.6       0.00       2.80        4.4
15:06             209        9.7         31       36.4      460.4       36.4       37.0       16.6     1014.3       36.6       20.2        0.0        0.0        0.0       0.00       32.8       0.00       2.80        4.4
15:08             210        0.0         30       36.5      460.4       36.5       36.9       16.1     1014.3       36.6       20.2        0.0        0.0        0.0       0.00       33.0       0.00       2.80        4.4
15:10             210        4.8         30       36.5      460.4       36.5       36.9       16.1     1014.4       36.6       20.2        0.0        0.0        0.0       0.00       33.0       0.00       2.80        4.4
15:12             210        1.6         30       36.5      460.4       36.5       36.9       16.1     1014.3       36.6       20.2        0.0        0.0        0.0       0.00       33.0       0.00       2.80        4.4
15:14             210        0.0         31       36.6      460.4       36.6       37.4       16.8     1014.4       36.6       20.2        0.0        0.0        0.0       0.00       33.1       0.00       2.80        4.4
15:15             210        3.2         31       36.7      460.4       36.7       37.6       16.8     1014.4       36.7       20.2        0.0        0.0        0.0       0.00       33.2       0.00       2.95        4.4
15:18             194        4.8         31       36.8      460.4       36.8       37.8       16.9     1014.3       36.8       20.2        0.0        0.0        0.0       0.00       33.4       0.00       2.95        4.4
15:20             211       11.3         31       36.9      460.4       36.9       37.9       17.0     1014.5       36.9       20.2        0.0        0.0        0.0       0.00       33.6       0.00       2.95        4.4
15:21             205        8.0         30       36.9      460.4       36.9       37.7       16.5     1014.4       36.9       20.2        0.0        0.0        0.0       0.00       33.9       0.00       2.95        4.4
15:24             207        9.7         30       36.9      460.4       36.9       37.7       16.5     1014.4       36.9       20.2        0.0        0.0        0.0       0.00       34.1       0.00       2.95        4.4
15:26             207        8.0         30       36.9      460.4       36.9       37.7       16.5     1014.5       36.9       20.2        0.0        0.0        0.0       0.00       34.3       0.00       2.95        4.4
15:27             207        3.2         31       37.0      460.4       37.0       38.0       17.1     1014.6       37.0       20.2        0.0        0.0        0.0       0.00       34.3       0.00       2.95        4.4
15:29             208        6.4         31       36.9      460.4       36.9       38.0       17.0     1014.5       37.0       20.2        0.0        0.0        0.0       0.00       34.5       0.00       2.95        4.4
15:32             208        4.8         31       36.8      460.4       36.8       37.8       16.9     1014.5       37.0       20.2        0.0        0.0        0.0       0.00       34.6       0.00       3.11        4.4
15:34             182       16.1         31       36.8      460.4       36.8       37.7       16.9     1014.5       37.0       20.2        0.0        0.0        0.0       0.00       34.8       0.00       3.11        4.4
15:36             180       12.9         31       36.8      460.4       36.8       37.8       16.9     1014.5       37.0       20.2        0.0        0.0        0.0       0.00       35.3       0.00       3.11        4.4
15:38             184        8.0         31       36.9      460.4       36.9       38.0       17.0     1014.5       37.0       20.2        0.0        0.0        0.0       0.00       35.4       0.00       3.11        4.4
15:40             194       11.3         30       37.1      460.4       37.1       37.8       16.6     1014.5       37.1       20.2        0.0        0.0        0.0       0.00       35.7       0.00       3.11        4.4
15:41             195        0.0         30       37.1      460.4       37.1       37.9       16.7     1014.4       37.1       20.2        0.0        0.0        0.0       0.00       35.8       0.00       3.11        4.4
15:44             192        4.8         30       37.2      460.4       37.2       38.1       16.8     1014.5       37.2       20.2        0.0        0.0        0.0       0.00       36.0       0.00       3.11        4.4
15:46             201        9.7         30       37.3      460.4       37.3       38.3       16.9     1014.4       37.3       20.2        0.0        0.0        0.0       0.00       36.1       0.00       3.27        4.4
15:48             209        3.2         30       37.2      460.4       37.2       38.1       16.8     1014.4       37.3       20.2        0.0        0.0        0.0       0.00       36.3       0.00       3.27        4.4
15:50             209        6.4         30       37.2      460.4       37.2       38.0       16.7     1014.4       37.3       20.2        0.0        0.0        0.0       0.00       36.5       0.00       3.27        4.4
15:52             225        6.4         30       37.0      460.4       37.0       37.8       16.6     1014.4       37.3       20.2        0.0        0.0        0.0       0.00       36.7       0.00       3.27        4.4
15:53             225        8.0         29       36.9      460.4       36.9       37.3       15.9     1014.5       37.3       20.2        0.0        0.0        0.0       0.00       37.0       0.00       3.27        4.4
15:56             221        9.7         30       36.8      460.4       36.8       37.5       16.4     1014.4       37.3       20.2        0.0        0.0        0.0       0.00       37.1       0.00       3.27        4.4
15:58             218        9.7         29       36.8      460.4       36.8       37.2       15.9     1014.5       37.3       20.2        0.0        0.0        0.0       0.00       37.4       0.00       3.27        4.4
16:00             219        6.4         29       36.8      460.4       36.8       37.2       15.9     1014.4       37.3       20.2        0.0        0.0        0.0       0.00       37.6       0.00       3.27        4.4
16:02             169       19.3         29       36.9      460.4       36.9       37.4       16.0     1014.4       37.3       20.2        0.0        0.0        0.0       0.00       37.9       0.00       3.42        4.4
16:04             168       17.7         29       37.0      460.4       37.0       37.5       16.0     1014.3       37.3       20.2        0.0        0.0        0.0       0.00       38.2       0.00       3.42        4.4
16:05             173        8.0         29       37.2      460.4       37.2       37.8       16.2     1014.3       37.3       20.2        0.0        0.0        0.0       0.00       38.6       0.00       3.42        4.4
16:08             197       14.5         29       37.3      460.4       37.3       38.0       16.3     1014.3       37.3       20.2        0.0        0.0        0.0       0.00       38.9       0.00       3.42        4.4
16:10             170       19.3         28       37.4      460.4       37.4       37.9       15.9     1014.3       37.4       20.2        0.0        0.0        0.0       0.00       39.4       0.00       3.42        4.4
16:11             151       14.5         28       37.5      460.4       37.5       38.0       15.9     1014.3       37.5       20.2        0.0        0.0        0.0       0.00       39.8       0.00       3.42        4.4
16:14             160       11.3         28       37.6      460.4       37.6       38.1       16.0     1014.2       37.6       20.2        0.0        0.0        0.0       0.00       40.1       0.00       3.42        4.4
16:16             173       16.1         28       37.7      460.4       37.7       38.2       16.1     1014.2       37.7       20.2        0.0        0.0        0.0       0.00       40.3       0.00       3.59        4.4
16:17             180        6.4         28       37.8      460.4       37.8       38.4       16.2     1014.2       37.8       20.2        0.0        0.0        0.0       0.00       40.7       0.00       3.59        4.4
16:20             180        4.8         27       37.8      460.4       37.8       38.2       15.6     1014.1       37.8       20.2        0.0        0.0        0.0       0.00       40.8       0.00       3.59        4.4
16:22             179       17.7         27       37.9      460.4       37.9       38.3       15.7     1014.2       37.9       20.2        0.0        0.0        0.0       0.00       41.2       0.00       3.59        4.4
16:24             182        9.7         27       37.9      460.4       37.9       38.3       15.7     1014.2       37.9       20.2        0.0        0.0        0.0       0.00       41.5       0.00       3.59        4.4
16:26             184        8.0         27       37.8      460.4       37.8       38.2       15.6     1014.2       37.9       20.2        0.0        0.0        0.0       0.00       41.7       0.00       3.59        4.4
16:28             177       16.1         27       37.8      460.4       37.8       38.2       15.6     1014.2       37.9       20.2        0.0        0.0        0.0       0.00       42.1       0.00       3.59        4.4
16:30             178        6.4         27       37.8      460.4       37.8       38.1       15.6     1014.2       37.9       20.2        0.0        0.0        0.0       0.00       42.3       0.00       3.59        4.4
16:32             178       11.3         27       37.8      460.4       37.8       38.1       15.6     1014.1       37.9       20.2        0.0        0.0        0.0       0.00       42.5       0.00       3.75        4.4
16:34             162       17.7         27       37.7      460.4       37.7       38.0       15.5     1014.2       37.9       20.2        0.0        0.0        0.0       0.00       42.9       0.00       3.75        4.4
16:35             178       17.7         27       37.7      460.4       37.7       38.0       15.5     1014.0       37.9       20.2        0.0        0.0        0.0       0.00       43.3       0.00       3.75        4.4
16:38             177       11.3         27       37.7      460.4       37.7       38.0       15.5     1014.1       37.9       20.2        0.0        0.0        0.0       0.00       43.7       0.00       3.75        4.4
16:40             197       14.5         27       37.7      460.4       37.7       38.0       15.5     1014.1       37.9       20.2        0.0        0.0        0.0       0.00       44.1       0.00       3.75        4.4
16:42             179       12.9         27       37.7      460.4       37.7       38.0       15.5     1014.1       37.9       20.2        0.0        0.0        0.0       0.00       44.5       0.00       3.75        4.4
16:43             179        9.7         27       37.6      460.4       37.6       37.9       15.4     1014.1       37.9       20.2        0.0        0.0        0.0       0.00       44.8       0.00       3.75        4.4
16:46             180        8.0         27       37.6      460.4       37.6       37.9       15.4     1014.2       37.9       20.2        0.0        0.0        0.0       0.00       45.1       0.00       3.91        4.4
16:48             182        8.0         27       37.6      460.4       37.6       37.9       15.4     1014.1       37.9       20.2        0.0        0.0        0.0       0.00       45.4       0.00       3.91        4.4
16:50             201        9.7         27       37.7      460.4       37.7       38.0       15.5     1014.0       37.9       20.2        0.0        0.0        0.0       0.00       45.6       0.00       3.91        4.4
16:52             199        6.4         27       37.7      460.4       37.7       38.0       15.5     1014.1       37.9       20.2        0.0        0.0        0.0       0.00       45.8       0.00       3.91        4.4
16:54             196        9.7         27       37.7      460.4       37.7       38.0       15.5     1014.0       37.9       20.2        0.0        0.0        0.0       0.00       46.1       0.00       3.91        4.4
16:55             196        8.0         27       37.8      460.4       37.8       38.1       15.6     1014.0       37.9       20.2        0.0        0.0        0.0       0.00       46.2       0.00       3.91        4.4
16:58             177        8.0         27       37.8      460.4       37.8       38.2       15.6     1013.9       37.9       20.2        0.0        0.0        0.0       0.00       46.5       0.00       3.91        4.4
17:00             175       14.5         27       37.9      460.4       37.9       38.3       15.7     1013.9       37.9       20.2        0.0        0.0        0.0       0.00       46.9       0.00       3.91        4.4
17:02             175       12.9         27       37.9      460.4       37.9       38.4       15.7     1013.9       37.9       20.2        0.0        0.0        0.0       0.00       47.2       0.00       4.08        4.4
17:04             177       11.3         27       38.0      460.4       38.0       38.5       15.8     1013.8       38.0       20.2        0.0        0.0        0.0       0.00       47.5       0.00       4.08        4.4
17:06             177        9.7         26       38.0      460.4       38.0       38.2       15.2     1013.9       38.0       20.2        0.0        0.0        0.0       0.00       47.8       0.00       4.08        4.4
17:08             180        6.4         26       38.0      460.4       38.0       38.2       15.2     1013.9       38.0       20.2        0.0        0.0        0.0       0.00       48.0       0.00       4.08        4.4
17:10             178        9.7         27       38.1      460.4       38.1       38.6       15.8     1013.9       38.1       20.2        0.0        0.0        0.0       0.00       48.2       0.00       4.08        4.4
17:12             178        6.4         27       38.1      460.4       38.1       38.6       15.8     1013.9       38.1       20.2        0.0        0.0        0.0       0.00       48.4       0.00       4.08        4.4
17:14             178        8.0         27       38.1      460.4       38.1       38.7       15.9     1013.9       38.1       20.2        0.0        0.0        0.0       0.00       48.5       0.00       4.08        4.4
17:16             178        4.8         27       38.2      460.4       38.2       38.8       15.9     1013.9       38.2       20.2        0.0        0.0        0.0       0.00       48.7       0.00       4.25        4.4
17:18             182        9.7         26       38.1      460.4       38.1       38.4       15.3     1013.8       38.2       20.2        0.0        0.0        0.0       0.00       48.8       0.00       4.25        4.4
17:20             184        4.8         26       37.9      460.4       37.9       38.1       15.1     1013.8       38.2       20.2        0.0        0.0        0.0       0.00       49.0       0.00       4.25        4.4
17:21             184        6.4         27       37.8      460.4       37.8       38.2       15.6     1013.8       38.2       20.2        0.0        0.0        0.0       0.00       49.1       0.00       4.25        4.4
17:24             184        4.8         27       37.8      460.4       37.8       38.1       15.6     1013.8       38.2       20.2        0.0        0.0        0.0       0.00       49.2       0.00       4.25        4.4
17:26             183        4.8         27       37.7      460.4       37.7       38.0       15.5     1013.8       38.2       20.2        0.0        0.0        0.0       0.00       49.4       0.00       4.25        4.4
17:28             182        9.7         27       37.7      460.4       37.7       38.0       15.5     1013.8       38.2       20.2        0.0        0.0        0.0       0.00       49.6       0.00       4.25        4.4
17:30             183       12.9         26       37.8      460.4       37.8       37.8       15.0     1013.9       38.2       20.2        0.0        0.0        0.0       0.00       49.9       0.00       4.25        4.4
17:31             182        3.2         26       37.8      460.4       37.8       37.9       15.0     1013.8       38.2       20.2        0.0        0.0        0.0       0.00       50.1       0.00       4.41        4.4
17:33             182        6.4         26       37.9      460.4       37.9       38.0       15.1     1013.8       38.2       20.2        0.0        0.0        0.0       0.00       50.3       0.00       4.41        4.4
17:36             182        3.2         26       37.9      460.4       37.9       38.0       15.1     1013.8       38.2       20.2        0.0        0.0        0.0       0.00       50.4       0.00       4.41        4.4
17:38             182        8.0         26       38.0      460.4       38.0       38.2       15.2     1013.8       38.2       20.2        0.0        0.0        0.0       0.00       50.6       0.00       4.41        4.4
17:40             182        6.4         26       38.1      460.4       38.1       38.3       15.2     1013.8       38.2       20.2        0.0        0.0        0.0       0.00       50.7       0.00       4.41        4.4
17:42             182        6.4         27       38.1      460.4       38.1       38.7       15.9     1013.8       38.2       20.2        0.0        0.0        0.0       0.00       50.9       0.00       4.41        4.4
17:44             182        8.0         26       38.2      460.4       38.2       38.4       15.3     1013.8       38.2       20.2        0.0        0.0        0.0       0.00       51.1       0.00       4.41        4.4
17:45             182        6.4         26       38.2      460.4       38.2       38.4       15.3     1013.9       38.2       20.2        0.0        0.0        0.0       0.00       51.3       0.00       4.58        4.4
17:48             182        8.0         27       38.2      460.4       38.2       38.8       15.9     1013.8       38.2       20.2        0.0        0.0        0.0       0.00       51.4       0.00       4.58        4.4
17:50             182        8.0         27       38.1      460.4       38.1       38.7       15.9     1013.9       38.2       20.2        0.0        0.0        0.0       0.00       51.6       0.00       4.58        4.4
17:52             190        9.7         26       38.1      460.4       38.1       38.4       15.3     1013.7       38.2       20.2        0.0        0.0        0.0       0.00       51.8       0.00       4.58        4.4
17:54             196       12.9         27       38.1      460.4       38.1       38.6       15.8     1013.9       38.2       20.2        0.0        0.0        0.0       0.00       52.0       0.00       4.58        4.4
17:56             198        8.0         26       37.9      460.4       37.9       38.1       15.1     1013.7       38.2       20.2        0.0        0.0        0.0       0.00       52.3       0.00       4.58        4.4
17:58             202       12.9         27       37.8      460.4       37.8       38.2       15.6     1013.8       38.2       20.2        0.0        0.0        0.0       0.00       52.6       0.00       4.58        4.4
18:00             199        9.7         27       37.7      460.4       37.7       38.0       15.5     1013.7       38.2       20.2        0.0        0.0        0.0       0.00       52.9       0.00       4.58        4.4
18:02             194        6.4         27       37.6      460.4       37.6       37.9       15.4     1013.7       38.2       20.2        0.0        0.0        0.0       0.00       53.1       0.00       4.74        4.4
18:04             194        4.8         27       37.6      460.4       37.6       37.8       15.4     1013.7       38.2       20.2        0.0        0.0        0.0       0.00       53.2       0.00       4.74        4.4
18:06             194        3.2         27       37.6      460.4       37.6       37.8       15.4     1013.8       38.2       20.2        0.0        0.0        0.0       0.00       53.3       0.00       4.74        4.4
18:08             196        6.4         28       37.5      460.4       37.5       38.0       15.9     1013.8       38.2       20.2        0.0        0.0        0.0       0.00       53.5       0.00       4.74        4.4
18:10             196        3.2         27       37.4      460.4       37.4       37.5       15.3     1013.7       38.2       20.2        0.0        0.0        0.0       0.00       53.6       0.00       4.74        4.4
18:11             196        4.8         28       37.3      460.4       37.3       37.6       15.7     1013.8       38.2       20.2        0.0        0.0        0.0       0.00       53.7       0.00       4.74        4.4
18:14             196        4.8         28       37.1      460.4       37.1       37.4       15.6     1013.8       38.2       20.2        0.0        0.0        0.0       0.00       53.9       0.00       4.74        4.4
18:16             196        0.0         29       37.0      460.4       37.0       37.5       16.0     1013.8       38.2       20.2        0.0        0.0        0.0       0.00       54.0       0.00       4.90        4.4
18:17             196        8.0         29       36.9      460.4       36.9       37.4       16.0     1013.8       38.2       20.2        0.0        0.0        0.0       0.00       54.2       0.00       4.90        4.4
18:20             196        9.7         29       36.9      460.4       36.9       37.3       15.9     1013.8       38.2       20.2        0.0        0.0        0.0       0.00       54.4       0.00       4.90        4.4
18:22             197        6.4         28       36.9      460.4       36.9       37.1       15.4     1013.9       38.2       20.2        0.0        0.0        0.0       0.00       54.6       0.00       4.90        4.4
18:23             211       25.7         28       36.9      460.4       36.9       37.1       15.4     1014.0       38.2       20.2        0.0        0.0        0.0       0.00       54.9       0.00       4.90        4.4
18:26             171       20.9         31       36.7      460.4       36.7       37.6       16.8     1013.9       38.2       20.2        0.0        0.0        0.0       0.00       55.4       0.00       4.90        4.4
18:28             194        9.7         33       36.4      460.4       36.4       37.6       17.5     1014.0       38.2       20.2        0.0        0.0        0.0       0.00       55.8       0.00       4.90        4.4
18:30             211       16.1         33       36.1      460.4       36.1       37.1       17.3     1014.0       38.2       20.2        0.0        0.0        0.0       0.00       56.2       0.00       4.90        4.4
18:32             183       22.5         34       35.8      460.4       35.8       36.9       17.5     1014.0       38.2       20.2        0.0        0.0        0.0       0.00       56.7       0.00       5.05        4.4
18:34             198       12.9         35       35.5      460.4       35.5       36.7       17.7     1014.0       38.2       20.2        0.0        0.0        0.0       0.00       57.0       0.00       5.05        4.4
18:35             206        6.4         35       35.3      460.4       35.3       36.4       17.6     1014.0       38.2       20.2        0.0        0.0        0.0       0.00       57.3       0.00       5.05        4.4
18:38             211        8.0         35       35.2      460.4       35.2       36.1       17.4     1014.0       38.2       20.2        0.0        0.0        0.0       0.00       57.6       0.00       5.05        4.4
18:40             191        9.7         36       35.1      460.4       35.1       36.2       17.8     1014.0       38.2       20.2        0.0        0.0        0.0       0.00       57.9       0.00       5.05        4.4
18:42             192        6.4         37       34.9      460.4       34.9       36.3       18.1     1013.9       38.2       20.2        0.0        0.0        0.0       0.00       58.1       0.00       5.05        4.4
18:44             211        9.7         36       34.8      460.4       34.8       35.8       17.6     1013.9       38.2       20.2        0.0        0.0        0.0       0.00       58.4       0.00       5.05        4.4
18:46             217        8.0         35       34.7      460.4       34.7       35.3       17.0     1013.9       38.2       20.2        0.0        0.0        0.0       0.00       58.7       0.00       5.18        4.4
18:48             211       14.5         35       34.6      460.4       34.6       35.1       16.9     1014.0       38.2       20.2        0.0        0.0        0.0       0.00       58.9       0.00       5.18        4.4
18:50             211        9.7         35       34.4      460.4       34.4       34.9       16.8     1014.0       38.2       20.2        0.0        0.0        0.0       0.00       59.2       0.00       5.18        4.4
18:52             217       11.3         36       34.3      460.4       34.3       34.9       17.1     1014.1       38.2       20.2        0.0        0.0        0.0       0.00       59.6       0.00       5.18        4.4
18:54             232       12.9         36       34.2      460.4       34.2       34.7       17.0     1014.1       38.2       20.2        0.0        0.0        0.0       0.00       59.8       0.00       5.18        4.4
18:56             224       14.5         36       33.9      460.4       33.9       34.4       16.8     1014.1       38.2       20.2        0.0        0.0        0.0       0.00       60.1       0.00       5.18        4.4
18:58             227       12.9         36       33.8      460.4       33.8       34.1       16.6     1014.1       38.2       20.2        0.0        0.0        0.0       0.00       60.5       0.00       5.18        4.4
19:00             225        8.0         36       33.6      460.4       33.6       33.9       16.5     1014.1       38.2       20.2        0.0        0.0        0.0       0.00       60.7       0.00       5.18        4.4
19:02             224        9.7         36       33.5      460.4       33.5       33.7       16.4     1014.1       38.2       20.2        0.0        0.0        0.0       0.00       61.0       0.00       5.30        4.4
19:04             224        9.7         37       33.4      460.4       33.4       33.8       16.7     1014.2       38.2       20.2        0.0        0.0        0.0       0.00       61.2       0.00       5.30        4.4
19:06             223       11.3         37       33.3      460.4       33.3       33.6       16.6     1014.2       38.2       20.2        0.0        0.0        0.0       0.00       61.5       0.00       5.30        4.4
19:07             227       12.9         38       33.2      460.4       33.2       33.6       17.0     1014.3       38.2       20.2        0.0        0.0        0.0       0.00       61.7       0.00       5.30        4.4
19:10             234       16.1         38       33.1      460.4       33.1       33.5       16.9     1014.2       38.2       20.2        0.0        0.0        0.0       0.00       62.1       0.00       5.30        4.4
19:12             236       11.3         39       32.9      460.4       32.9       33.4       17.1     1014.2       38.2       20.2        0.0        0.0        0.0       0.00       62.4       0.00       5.30        4.4
19:14             236       11.3         39       32.8      460.4       32.8       33.2       17.0     1014.2       38.2       20.2        0.0        0.0        0.0       0.00       62.7       0.00       5.30        4.4
19:16             225        9.7         39       32.6      460.4       32.6       33.0       16.9     1014.2       38.2       20.2        0.0        0.0        0.0       0.00       63.0       0.00       5.41        4.4
19:18             222       19.3         40       32.5      460.4       32.4       33.0       17.2     1014.2       38.2       20.2        0.0        0.0        0.0       0.00       63.3       0.00       5.41        4.4
19:20             230       11.3         40       32.3      460.4       32.2       32.8       17.0     1014.3       38.2       20.2        0.0        0.0        0.0       0.00       63.7       0.00       5.41        4.4
19:22             232       17.7         40       32.2      460.4       32.0       32.5       16.9     1014.2       38.2       20.2        0.0        0.0        0.0       0.00       64.1       0.00       5.41        4.4
19:24             229        8.0         40       32.0      460.4       32.0       32.3       16.7     1014.3       38.2       20.2        0.0        0.0        0.0       0.00       64.3       0.00       5.41        4.4
19:26             232        9.7         41       31.8      460.4       31.8       32.2       17.0     1014.4       38.2       20.2        0.0        0.0        0.0       0.00       64.6       0.00       5.41        4.4
19:27             232        8.0         41       31.7      460.4       31.7       32.1       16.9     1014.4       38.2       20.2        0.0        0.0        0.0       0.00       64.8       0.00       5.41        4.4
19:30             229       11.3         41       31.6      460.4       31.5       31.9       16.8     1014.5       38.2       20.2        0.0        0.0        0.0       0.00       65.1       0.00       5.41        4.4
19:32             220       16.1         42       31.5      460.4       31.1       31.9       17.0     1014.4       38.2       20.2        0.0        0.0        0.0       0.00       65.5       0.00       5.51        4.4
19:33             227       17.7         41       31.3      460.4       31.2       31.5       16.5     1014.5       38.2       20.2        0.0        0.0        0.0       0.00       65.9       0.00       5.51        4.4
19:36             231        8.0         42       31.2      460.4       31.1       31.5       16.8     1014.5       38.2       20.2        0.0        0.0        0.0       0.00       66.1       0.00       5.51        4.4
19:38             238       17.7         41       31.1      460.4       30.6       31.2       16.3     1014.5       38.2       20.2        0.0        0.0        0.0       0.00       66.6       0.00       5.51        4.4
19:39             232       16.1         41       30.9      460.4       30.5       31.0       16.2     1014.6       38.2       20.2        0.0        0.0        0.0       0.00       66.9       0.00       5.51        4.4
19:42             250       19.3         41       30.8      460.4       30.4       30.8       16.0     1014.5       38.2       20.2        0.0        0.0        0.0       0.00       67.4       0.00       5.51        4.4
19:44             236        8.0         41       30.7      460.4       30.5       30.6       15.9     1014.5       38.2       20.2        0.0        0.0        0.0       0.00       67.7       0.00       5.51        4.4
19:46             248       16.1         41       30.6      460.4       30.6       30.5       15.8     1014.5       38.2       20.2        0.0        0.0        0.0       0.00       68.1       0.00       5.60        4.4
19:48             247       11.3         41       30.4      460.4       30.3       30.3       15.7     1014.5       38.2       20.2        0.0        0.0        0.0       0.00       68.4       0.00       5.60        4.4
19:50             248       16.1         41       30.3      460.4       30.0       30.2       15.6     1014.7       38.2       20.2        0.0        0.0        0.0       0.00       68.7       0.00       5.60        4.4
19:52             244       14.5         41       30.3      460.4       30.1       30.1       15.6     1014.6       38.2       20.2        0.0        0.0        0.0       0.00       69.0       0.00       5.60        4.4
19:54             239        9.7         41       30.2      460.4       30.2       30.1       15.5     1014.7       38.2       20.2        0.0        0.0        0.0       0.00       69.3       0.00       5.60        4.4
19:56             239       14.5         41       30.1      460.4       29.6       29.9       15.4     1014.8       38.2       20.2        0.0        0.0        0.0       0.00       69.7       0.00       5.60        4.4
19:58             240       14.5         41       30.1      460.4       29.5       29.9       15.4     1014.8       38.2       20.2        0.0        0.0        0.0       0.00       69.9       0.00       5.60        4.4
20:00             238       14.5         41       30.0      460.4       29.4       29.8       15.3     1014.9       38.2       20.2        0.0        0.0        0.0       0.00       70.3       0.00       5.60        4.4
20:02             246       12.9         41       29.9      460.4       29.7       29.7       15.2     1014.9       38.2       20.2        0.0        0.0        0.0       0.00       70.7       0.00       5.69        4.4
20:04             227       12.9         41       29.8      460.4       29.7       29.6       15.2     1014.9       38.2       20.2        0.0        0.0        0.0       0.00       71.0       0.00       5.69        4.4
20:06             239       12.9         41       29.7      460.4       29.2       29.5       15.1     1014.9       38.2       20.2        0.0        0.0        0.0       0.00       71.3       0.00       5.69        4.4
20:08             259       16.1         41       29.7      460.4       29.7       29.4       15.0     1014.9       38.2       20.2        0.0        0.0        0.0       0.00       71.7       0.00       5.69        4.4
20:10             246       12.9         41       29.6      460.4       29.4       29.3       14.9     1015.1       38.2       20.2        0.0        0.0        0.0       0.00       72.1       0.00       5.69        4.4
20:12             243       17.7         41       29.5      460.4       28.8       29.2       14.9     1015.0       38.2       20.2        0.0        0.0        0.0       0.00       72.5       0.00       5.69        4.4
20:14             250       19.3         41       29.5      460.4       28.9       29.2       14.9     1014.8       38.2       20.2        0.0        0.0        0.0       0.00       73.0       0.00       5.69        4.4
20:16             258       19.3         40       29.5      460.4       29.2       29.1       14.5     1014.9       38.2       20.2        0.0        0.0        0.0       0.00       73.5       0.00       5.76        4.4
20:18             257       11.3         40       29.5      460.4       29.5       29.1       14.5     1014.9       38.2       20.2        0.0        0.0        0.0       0.00       73.8       0.00       5.76        4.4
20:20             251       14.5         40       29.5      460.4       28.8       29.1       14.5     1014.9       38.2       20.2        0.0        0.0        0.0       0.00       74.2       0.00       5.76        4.4
20:22             251       17.7         39       29.5      460.4       28.7       29.0       14.1     1014.9       38.2       20.2        0.0        0.0        0.0       0.00       74.6       0.00       5.76        4.4
20:23             254       16.1         39       29.5      460.4       28.8       29.0       14.1     1014.9       38.2       20.2        0.0        0.0        0.0       0.00       75.1       0.00       5.76        4.4
20:26             250       12.9         39       29.6      460.4       29.0       29.1       14.2     1014.9       38.2       20.2        0.0        0.0        0.0       0.00       75.6       0.00       5.76        4.4
20:28             261       12.9         39       29.6      460.4       29.0       29.1       14.2     1014.9       38.2       20.2        0.0        0.0        0.0       0.00       76.0       0.00       5.76        4.4
20:30             252       19.3         39       29.5      460.4       29.0       29.0       14.1     1015.0       38.2       20.2        0.0        0.0        0.0       0.00       76.4       0.00       5.76        4.4
20:32             252       14.5         39       29.5      460.4       28.8       29.0       14.1     1015.0       38.2       20.2        0.0        0.0        0.0       0.00       76.9       0.00       5.84        4.4
20:34             254       14.5         39       29.4      460.4       28.7       29.0       14.1     1015.1       38.2       20.2        0.0        0.0        0.0       0.00       77.3       0.00       5.84        4.4
20:36             246       16.1         39       29.4      460.4       28.7       28.9       14.0     1015.1       38.2       20.2        0.0        0.0        0.0       0.00       77.8       0.00       5.84        4.4
20:38             252       16.1         39       29.4      460.4       28.9       28.9       14.0     1015.1       38.2       20.2        0.0        0.0        0.0       0.00       78.2       0.00       5.84        4.4
20:40             249       17.7         39       29.3      460.4       29.3       28.9       14.0     1015.1       38.2       20.2        0.0        0.0        0.0       0.00       78.6       0.00       5.84        4.4
20:42             250       17.7         39       29.3      460.4       28.4       28.9       14.0     1015.1       38.2       20.2        0.0        0.0        0.0       0.00       79.1       0.00       5.84        4.4
20:44             257       19.3         39       29.3      460.4       28.7       28.8       13.9     1015.1       38.2       20.2        0.0        0.0        0.0       0.00       79.6       0.00       5.84        4.4
20:46             253       12.9         39       29.2      460.4       28.7       28.7       13.9     1015.2       38.2       20.2        0.0        0.0        0.0       0.00       80.0       0.00       5.92        4.4
20:48             261       19.3         39       29.2      460.4       28.6       28.7       13.9     1015.2       38.2       20.2        0.0        0.0        0.0       0.00       80.5       0.00       5.92        4.4
20:50             250       17.7         39       29.2      460.4       28.5       28.7       13.8     1015.3       38.2       20.2        0.0        0.0        0.0       0.00       80.8       0.00       5.92        4.4
20:52             250       17.7         39       29.1      460.4       28.2       28.6       13.8     1015.3       38.2       20.2        0.0        0.0        0.0       0.00       81.3       0.00       5.92        4.4
20:54             248       17.7         39       29.1      460.4       28.3       28.6       13.8     1015.3       38.2       20.2        0.0        0.0        0.0       0.00       81.7       0.00       5.92        4.4
20:56             252       17.7         39       29.1      460.4       28.3       28.6       13.7     1015.5       38.2       20.2        0.0        0.0        0.0       0.00       82.2       0.00       5.92        4.4
20:58             254       22.5         39       29.1      460.4       28.3       28.6       13.7     1015.5       38.2       20.2        0.0        0.0        0.0       0.00       82.6       0.00       5.92        4.4
21:00             252       17.7         39       29.1      460.4       28.0       28.6       13.7     1015.6       38.2       20.2        0.0        0.0        0.0       0.00       83.0       0.00       5.92        4.4
21:02             263       16.1         39       29.1      460.4       28.4       28.6       13.7     1015.5       38.2       20.2        0.0        0.0        0.0       0.00       83.4       0.00       5.99        4.4
21:04             257       11.3         39       29.1      460.4       29.1       28.6       13.7     1015.5       38.2       20.2        0.0        0.0        0.0       0.00       83.8       0.00       5.99        4.4
21:06             250       14.5         39       29.0      460.4       29.0       28.5       13.7     1015.4       38.2       20.2        0.0        0.0        0.0       0.00       84.1       0.00       5.99        4.4
21:08             257       17.7         39       29.0      460.4       28.5       28.5       13.7     1015.4       38.2       20.2        0.0        0.0        0.0       0.00       84.5       0.00       5.99        4.4
21:10             267       19.3         39       29.0      460.4       28.0       28.5       13.7     1015.4       38.2       20.2        0.0        0.0        0.0       0.00       84.9       0.00       5.99        4.4
21:12             265       24.1         39       29.0      460.4       28.2       28.5       13.7     1015.3       38.2       20.2        0.0        0.0        0.0       0.00       85.3       0.00       5.99        4.4
21:14             265       12.9         39       29.1      460.4       28.4       28.6       13.7     1015.2       38.2       20.2        0.0        0.0        0.0       0.00       85.7       0.00       5.99        4.4
21:16             262        9.7         39       29.1      460.4       29.1       28.6       13.7     1015.2       38.2       20.2        0.0        0.0        0.0       0.00       86.1       0.00       6.06        4.4
21:18             269       11.3         39       29.1      460.4       28.5       28.6       13.7     1015.2       38.2       20.2        0.0        0.0        0.0       0.00       86.5       0.00       6.06        4.4
21:20             285       17.7         38       29.1      460.4       28.4       28.5       13.3     1015.3       38.2       20.2        0.0        0.0        0.0       0.00       86.9       0.00       6.06        4.4
21:22             272       16.1         38       29.1      460.4       29.1       28.5       13.3     1015.2       38.2       20.2        0.0        0.0        0.0       0.00       87.2       0.00       6.06        4.4
21:24             265       12.9         38       29.1      460.4       28.7       28.5       13.3     1015.2       38.2       20.2        0.0        0.0        0.0       0.00       87.7       0.00       6.06        4.4
21:26             270       12.9         38       29.1      460.4       28.4       28.5       13.3     1015.2       38.2       20.2        0.0        0.0        0.0       0.00       88.0       0.00       6.06        4.4
21:28             268       16.1         38       29.1      460.4       28.1       28.5       13.3     1015.2       38.2       20.2        0.0        0.0        0.0       0.00       88.4       0.00       6.06        4.4
21:30             267       17.7         37       29.1      460.4       28.1       28.4       12.9     1015.1       38.2       20.2        0.0        0.0        0.0       0.00       88.9       0.00       6.06        4.4
21:32             261       16.1         37       29.1      460.4       28.1       28.4       12.9     1015.2       38.2       20.2        0.0        0.0        0.0       0.00       89.4       0.00       6.14        4.4
21:34             265       17.7         37       29.1      460.4       28.3       28.4       12.9     1015.1       38.2       20.2        0.0        0.0        0.0       0.00       89.9       0.00       6.14        4.4
21:36             266       16.1         37       29.0      460.4       28.2       28.4       12.9     1015.1       38.2       20.2        0.0        0.0        0.0       0.00       90.4       0.00       6.14        4.4
21:38             263       19.3         37       28.9      460.4       28.6       28.3       12.8     1015.2       38.2       20.2        0.0        0.0        0.0       0.00       90.8       0.00       6.14        4.4
21:40             271       14.5         37       28.9      460.4       28.1       28.3       12.8     1015.1       38.2       20.2        0.0        0.0        0.0       0.00       91.2       0.00       6.14        4.4
21:42             273       16.1         37       28.9      460.4       28.5       28.2       12.8     1015.0       38.2       20.2        0.0        0.0        0.0       0.00       91.6       0.00       6.14        4.4
21:44             271       12.9         37       28.9      460.4       28.4       28.2       12.8     1015.0       38.2       20.2        0.0        0.0        0.0       0.00       92.0       0.00       6.14        4.4
21:46             271       14.5         37       28.9      460.4       28.1       28.2       12.8     1015.0       38.2       20.2        0.0        0.0        0.0       0.00       92.5       0.00       6.21        4.4
21:48             270       16.1         37       28.8      460.4       28.8       28.2       12.7     1014.9       38.2       20.2        0.0        0.0        0.0       0.00       92.8       0.00       6.21        4.4
21:50             270       12.9         37       28.8      460.4       28.5       28.2       12.7     1015.0       38.2       20.2        0.0        0.0        0.0       0.00       93.2       0.00       6.21        4.4
21:52             276        6.4         37       28.8      460.4       28.8       28.1       12.7     1015.0       38.2       20.2        0.0        0.0        0.0       0.00       93.5       0.00       6.21        4.4
21:54             271        9.7         38       28.8      460.4       28.4       28.2       13.1     1015.0       38.2       20.2        0.0        0.0        0.0       0.00       93.8       0.00       6.21        4.4
21:56             273       11.3         38       28.7      460.4       28.3       28.2       13.0     1015.0       38.2       20.2        0.0        0.0        0.0       0.00       94.1       0.00       6.21        4.4
21:58             269       12.9         38       28.6      460.4       27.9       28.1       12.9     1015.0       38.2       20.2        0.0        0.0        0.0       0.00       94.4       0.00       6.21        4.4
22:00             270        0.0         38       28.6      460.4       28.6       28.1       12.9     1015.0       38.2       20.2        0.0        0.0        0.0       0.00       94.5       0.00       6.21        4.4
22:02             270        0.0         38       28.6      460.4       28.6       28.0       12.9     1015.1       38.2       20.2        0.0        0.0        0.0       0.00       94.5       0.00       6.28        4.4
22:03             270       11.3         38       28.5      460.4       28.5       28.0       12.8     1015.1       38.2       20.2        0.0        0.0        0.0       0.00       94.6       0.00       6.28        4.4
22:06             270        6.4         38       28.4      460.4       28.4       27.9       12.8     1015.1       38.2       20.2        0.0        0.0        0.0       0.00       94.8       0.00       6.28        4.4
22:08             270        6.4         38       28.4      460.4       28.4       27.9       12.7     1015.1       38.2       20.2        0.0        0.0        0.0       0.00       94.9       0.00       6.28        4.4
22:10             270        0.0         38       28.3      460.4       28.3       27.8       12.7     1015.1       38.2       20.2        0.0        0.0        0.0       0.00       95.0       0.00       6.28        4.4
22:12             270       11.3         38       28.3      460.4       28.3       27.8       12.6     1015.1       38.2       20.2        0.0        0.0        0.0       0.00       95.1       0.00       6.28        4.4
22:14             270        3.2         39       28.3      460.4       28.3       27.8       13.0     1015.3       38.2       20.2        0.0        0.0        0.0       0.00       95.2       0.00       6.28        4.4
22:16             269       11.3         39       28.2      460.4       28.2       27.8       13.0     1015.3       38.2       20.2        0.0        0.0        0.0       0.00       95.4       0.00       6.34        4.4
22:18             257        8.0         39       28.2      460.4       27.9       27.7       12.9     1015.3       38.2       20.2        0.0        0.0        0.0       0.00       95.7       0.00       6.34        4.4
22:20             250        4.8         39       28.1      460.4       28.1       27.7       12.9     1015.4       38.2       20.2        0.0        0.0        0.0       0.00       95.9       0.00       6.34        4.4
22:22             207        6.4         40       28.1      460.4       28.1       27.7       13.2     1015.4       38.2       20.2        0.0        0.0        0.0       0.00       96.1       0.00       6.34        4.4
22:24             205       14.5         40       28.0      460.4       27.7       27.7       13.2     1015.4       38.2       20.2        0.0        0.0        0.0       0.00       96.4       0.00       6.34        4.4
22:26             213        9.7         40       27.9      460.4       27.9       27.6       13.1     1015.5       38.2       20.2        0.0        0.0        0.0       0.00       96.7       0.00       6.34        4.4
22:28             218       11.3         40       27.8      460.4       27.8       27.5       13.0     1015.5       38.2       20.2        0.0        0.0        0.0       0.00       96.9       0.00       6.34        4.4
22:30             232       11.3         40       27.7      460.4       27.2       27.4       12.9     1015.5       38.2       20.2        0.0        0.0        0.0       0.00       97.1       0.00       6.34        4.4
22:32             234        9.7         40       27.6      460.4       27.1       27.3       12.8     1015.5       38.2       20.2        0.0        0.0        0.0       0.00       97.4       0.00       6.40        4.4
22:34             234       11.3         41       27.5      460.4       27.2       27.3       13.1     1015.6       38.2       20.2        0.0        0.0        0.0       0.00       97.7       0.00       6.40        4.4
22:36             234        8.0         41       27.4      460.4       27.1       27.3       13.0     1015.6       38.2       20.2        0.0        0.0        0.0       0.00       97.9       0.00       6.40        4.4
22:38             235       11.3         41       27.4      460.4       26.7       27.2       13.0     1015.5       38.2       20.2        0.0        0.0        0.0       0.00       98.2       0.00       6.40        4.4
22:40             239        9.7         41       27.3      460.4       27.0       27.1       12.9     1015.5       38.2       20.2        0.0        0.0        0.0       0.00       98.5       0.00       6.40        4.4
22:42             242       16.1         41       27.2      460.4       26.7       27.1       12.8     1015.6       38.2       20.2        0.0        0.0        0.0       0.00       98.7       0.00       6.40        4.4
22:44             247       14.5         41       27.2      460.4       26.2       27.0       12.8     1015.5       38.2       20.2        0.0        0.0        0.0       0.00       99.1       0.00       6.40        4.4
22:46             241       19.3         41       27.1      460.4       25.9       27.0       12.7     1015.5       38.2       20.2        0.0        0.0        0.0       0.00       99.6       0.00       6.45        4.4
22:47             238       12.9         42       27.1      460.4       27.1       27.0       13.1     1015.5       38.2       20.2        0.0        0.0        0.0       0.00       99.9       0.00       6.45        4.4
22:50             238        6.4         42       26.9      460.4       26.9       26.9       13.0     1015.6       38.2       20.2        0.0        0.0        0.0       0.00      100.2       0.00       6.45        4.4
22:52             260       11.3         42       26.9      460.4       26.3       26.9       12.9     1015.6       38.2       20.2        0.0        0.0        0.0       0.00      100.5       0.00       6.45        4.4
22:53             247       16.1         43       26.8      460.4       25.5       26.8       13.2     1015.6       38.2       20.2        0.0        0.0        0.0       0.00      100.9       0.00       6.45        4.4
22:56             248       17.7         43       26.7      460.4       25.1       26.8       13.1     1015.6       38.2       20.2        0.0        0.0        0.0       0.00      101.4       0.00       6.45        4.4
22:58             237        9.7         43       26.7      460.4       26.3       26.8       13.1     1015.5       38.2       20.2        0.0        0.0        0.0       0.00      101.8       0.00       6.45        4.4
23:00             250       11.3         43       26.6      460.4       26.3       26.7       13.0     1015.6       38.2       20.2        0.0        0.0        0.0       0.00      102.1       0.00       6.45        4.4
23:02             247       17.7         43       26.6      460.4       24.9       26.7       13.0     1015.6       38.2       20.2        0.0        0.0        0.0       0.00      102.5       0.00       6.50        4.4
23:04             247       12.9         43       26.4      460.4       26.1       26.5       12.9     1015.6       38.2       20.2        0.0        0.0        0.0       0.00      102.8       0.00       6.50        4.4
23:06             244       16.1         43       26.4      460.4       25.5       26.5       12.8     1015.5       38.2       20.2        0.0        0.0        0.0       0.00      103.3       0.00       6.50        4.4
23:08             246       16.1         43       26.3      460.4       24.7       26.4       12.8     1015.5       38.2       20.2        0.0        0.0        0.0       0.00      103.7       0.00       6.50        4.4
23:10             248       16.1         44       26.3      460.4       25.2       26.4       13.1     1015.5       38.2       20.2        0.0        0.0        0.0       0.00      104.1       0.00       6.50        4.4
23:12             251       16.1         44       26.2      460.4       24.6       26.4       13.0     1015.3       38.2       20.2        0.0        0.0        0.0       0.00      104.6       0.00       6.50        4.4
23:14             251       14.5         44       26.2      460.4       25.8       26.3       13.0     1015.3       38.2       20.2        0.0        0.0        0.0       0.00      105.0       0.00       6.50        4.4
23:16             248       17.7         44       26.2      460.4       24.5       26.3       13.0     1015.4       38.2       20.2        0.0        0.0        0.0       0.00      105.5       0.00       6.55        4.4
23:18             257       19.3         44       26.2      460.4       24.3       26.3       13.0     1015.3       38.2       20.2        0.0        0.0        0.0       0.00      105.9       0.00       6.55        4.4
23:20             237       19.3         44       26.2      460.4       24.5       26.4       13.0     1015.2       38.2       20.2        0.0        0.0        0.0       0.00      106.3       0.00       6.55        4.4
23:22             249       11.3         44       26.2      460.4       25.3       26.4       13.0     1015.2       38.2       20.2        0.0        0.0        0.0       0.00      106.8       0.00       6.55        4.4
23:24             249       14.5         44       26.2      460.4       26.2       26.3       13.0     1015.2       38.2       20.2        0.0        0.0        0.0       0.00      107.1       0.00       6.55        4.4
23:26             247       16.1         44       26.1      460.4       25.0       26.3       12.9     1015.1       38.2       20.2        0.0        0.0        0.0       0.00      107.6       0.00       6.55        4.4
23:28             246       11.3         44       26.1      460.4       25.2       26.3       12.9     1015.2       38.2       20.2        0.0        0.0        0.0       0.00      107.9       0.00       6.55        4.4
23:30             251       16.1         44       26.1      460.4       25.7       26.2       12.9     1015.1       38.2       20.2        0.0        0.0        0.0       0.00      108.3       0.00       6.55        4.4
23:32             248       14.5         44       26.0      460.4       24.8       26.1       12.8     1015.2       38.2       20.2        0.0        0.0        0.0       0.00      108.7       0.00       6.59        4.4
23:34             248       12.9         44       25.9      460.4       25.9       26.1       12.8     1015.2       38.2       20.2        0.0        0.0        0.0       0.00      109.0       0.00       6.59        4.4
23:36             249       11.3         44       25.9      460.4       25.6       26.1       12.8     1015.3       38.2       20.2        0.0        0.0        0.0       0.00      109.3       0.00       6.59        4.4
23:37             243       12.9         44       25.9      460.4       24.7       26.0       12.7     1015.2       38.2       20.2        0.0        0.0        0.0       0.00      109.7       0.00       6.59        4.4
23:40             246       11.3         44       25.8      460.4       24.9       26.0       12.7     1015.2       38.2       20.2        0.0        0.0        0.0       0.00      110.0       0.00       6.59        4.4
23:42             240       16.1         44       25.8      460.4       24.4       26.0       12.7     1015.2       38.2       20.2        0.0        0.0        0.0       0.00      110.4       0.00       6.59        4.4
23:43             244       11.3         44       25.8      460.4       25.8       26.0       12.7     1015.1       38.2       20.2        0.0        0.0        0.0       0.00      110.7       0.00       6.59        4.4
23:46             244       11.3         45       25.8      460.4       25.8       26.0       13.0     1015.1       38.2       20.2        0.0        0.0        0.0       0.00      111.0       0.00       6.63        4.4
23:48             243        9.7         45       25.7      460.4       25.1       25.9       12.9     1015.1       38.2       20.2        0.0        0.0        0.0       0.00      111.2       0.00       6.63        4.4
23:50             243        8.0         45       25.7      460.4       25.7       25.9       12.9     1015.2       38.2       20.2        0.0        0.0        0.0       0.00      111.4       0.00       6.63        4.4
23:52             242        9.7         45       25.6      460.4       24.9       25.8       12.8     1015.2       38.2       20.2        0.0        0.0        0.0       0.00      111.6       0.00       6.63        4.4
23:54             229        8.0         45       25.6      460.4       25.6       25.7       12.8     1015.3       38.2       20.2        0.0        0.0        0.0       0.00      111.9       0.00       6.63        4.4
23:56             229        6.4         46       25.5      460.4       25.5       25.7       13.0     1015.2       38.2       20.2        0.0        0.0        0.0       0.00      112.1       0.00       6.63        4.4
23:58             228        8.0         46       25.4      460.4       25.4       25.6       12.9     1015.4       38.2       20.2        0.0        0.0        0.0       0.00      112.3       0.00       6.63        4.4